[[{"header":{"parameterUnit":"m.s-1","parameterCategory":1,"la1":30.6,"la2":28.766,"lo1":-90.7593,"lo2":-88.6598,"dy":0.0162,"dx":0.0183,"nx":116,"ny":114,"refTime":"2024-02-28T18:00:00:Z","depth":0,"parameterNumber":2,"parameterNumberName":"U-component_of_WINDS"},"data":[0.0,0.0,0.0,0.0,0.0,0.0,0.0,0.0,0.0,0.0,0.0,0.0,0.0,0.0,0.0,0.0,0.0,0.0,0.0,0.0,0.0,0.0,0.0,0.0,0.0,0.0,0.0,0.0,0.0,0.0,0.0,0.0,0.0,0.0,0.0,0.0,0.0,0.0,0.0,0.0,0.0,0.0,0.0,0.0,0.0,0.0,0.0,0.0,0.0,0.0,0.0,0.0,0.0,0.0,0.0,0.0,0.0,0.0,0.0,0.0,0.0,0.0,0.0,0.0,0.0,0.0,0.0,0.0,0.0,0.0,0.0,0.0,0.0,0.0,0.0,0.0,0.0,0.0,0.0,0.0,0.0,0.0,0.0,0.0,0.0,0.0,0.0,0.0,0.0,0.0,0.0,0.0,0.0,0.0,0.0,0.0,0.0,0.0,0.0,0.0,0.0,0.0,0.0,0.0,0.0,0.0,0.0,0.0,0.0,0.0,0.0,0.0,0.0,0.0,0.0,0.0,0.0,0.0,0.0,0.0,0.0,0.0,0.0,0.0,0.0,0.0,0.0,0.0,0.0,0.0,0.0,0.0,0.0,0.0,0.0,0.0,0.0,0.0,0.0,0.0,0.0,0.0,0.0,0.0,0.0,0.0,0.0,0.0,0.0,0.0,0.0,0.0,0.0,0.0,0.0,0.0,0.0,0.0,0.0,0.0,0.0,0.0,0.0,0.0,0.0,0.0,0.0,0.0,0.0,0.0,0.0,0.0,0.0,0.0,0.0,0.0,0.0,0.0,0.0,0.0,0.0,0.0,0.0,0.0,0.0,0.0,0.0,0.0,0.0,0.0,0.0,0.0,0.0,0.0,0.0,0.0,0.0,0.0,0.0,0.0,0.0,0.0,0.0,0.0,0.0,0.0,0.0,0.0,0.0,0.0,0.0,0.0,0.0,0.0,0.0,0.0,0.0,0.0,0.0,0.0,0.0,0.0,0.0,0.0,0.0,0.0,0.0,0.0,0.0,0.0,0.0,0.0,0.0,0.0,0.0,0.0,0.0,0.0,0.0,0.0,0.0,0.0,0.0,0.0,0.0,0.0,0.0,0.0,0.0,0.0,0.0,0.0,0.0,0.0,0.0,0.0,0.0,0.0,0.0,0.0,0.0,0.0,0.0,0.0,0.0,0.0,0.0,0.0,0.0,0.0,0.0,0.0,0.0,0.0,0.0,0.0,0.0,0.0,0.0,0.0,0.0,0.0,0.0,0.0,0.0,0.0,0.0,0.0,0.0,0.0,0.0,0.0,0.0,0.0,0.0,0.0,0.0,0.0,0.0,0.0,0.0,0.0,0.0,0.0,0.0,0.0,0.0,0.0,0.0,0.0,0.0,0.0,0.0,0.0,0.0,0.0,0.0,0.0,0.0,0.0,0.0,0.0,0.0,0.0,0.0,0.0,0.0,0.0,0.0,0.0,0.0,0.0,0.0,0.0,0.0,0.0,0.0,0.0,0.0,0.0,0.0,0.0,0.0,0.0,0.0,0.0,0.0,0.0,0.0,0.0,0.0,0.0,0.0,0.0,0.0,0.0,0.0,0.0,0.0,0.0,0.0,0.0,0.0,0.0,0.0,0.0,0.0,0.0,0.0,0.0,0.0,0.0,0.0,0.0,0.0,0.0,0.0,0.0,0.0,0.0,0.0,0.0,0.0,0.0,0.0,0.0,0.0,0.0,0.0,0.0,0.0,0.0,0.0,0.0,0.0,0.0,0.0,0.0,0.0,0.0,0.0,0.0,0.0,0.0,0.0,0.0,0.0,0.0,0.0,0.0,0.0,0.0,0.0,0.0,0.0,0.0,0.0,0.0,0.0,0.0,0.0,0.0,0.0,0.0,0.0,0.0,0.0,0.0,0.0,0.0,0.0,0.0,0.0,0.0,0.0,0.0,0.0,0.0,0.0,0.0,0.0,0.0,0.0,0.0,0.0,0.0,0.0,0.0,0.0,0.0,0.0,0.0,0.0,0.0,0.0,0.0,0.0,0.0,0.0,0.0,0.0,0.0,0.0,0.0,0.0,0.0,0.0,0.0,0.0,0.0,0.0,0.0,0.0,0.0,0.0,0.0,0.0,0.0,0.0,0.0,0.0,0.0,0.0,0.0,0.0,0.0,0.0,0.0,0.0,0.0,0.0,0.0,0.0,0.0,0.0,0.0,0.0,0.0,0.0,0.0,0.0,0.0,0.0,0.0,0.0,0.0,0.0,0.0,0.0,0.0,0.0,0.0,0.0,0.0,0.0,0.0,0.0,0.0,0.0,0.0,0.0,0.0,0.0,0.0,0.0,0.0,0.0,0.0,0.0,0.0,0.0,0.0,0.0,0.0,0.0,0.0,0.0,0.0,0.0,0.0,0.0,0.0,0.0,0.0,0.0,0.0,0.0,0.0,0.0,0.0,0.0,0.0,0.0,0.0,0.0,0.0,0.0,0.0,0.0,0.0,0.0,0.0,0.0,0.0,0.0,0.0,0.0,0.0,0.0,0.0,0.0,0.0,0.0,0.0,0.0,0.0,0.0,0.0,0.0,0.0,0.0,0.0,0.0,0.0,0.0,0.0,0.0,0.0,0.0,0.0,0.0,0.0,0.0,0.0,0.0,0.0,0.0,0.0,0.0,0.0,0.0,0.0,0.0,0.0,0.0,0.0,0.0,0.0,0.0,0.0,0.0,0.0,0.0,0.0,0.0,0.0,0.0,0.0,0.0,0.0,0.0,0.0,0.0,0.0,0.0,0.0,0.0,0.0,0.0,0.0,0.0,0.0,0.0,0.0,0.0,0.0,0.0,0.0,0.0,0.0,0.0,0.0,0.0,0.0,0.0,0.0,0.0,0.0,0.0,0.0,0.0,0.0,0.0,0.0,0.0,0.0,0.0,0.0,0.0,0.0,0.0,0.0,0.0,0.0,0.0,0.0,0.0,0.0,0.0,0.0,0.0,0.0,0.0,0.0,0.0,0.0,0.0,0.0,0.0,0.0,0.0,0.0,0.0,0.0,0.0,0.0,0.0,0.0,0.0,0.0,0.0,0.0,0.0,0.0,0.0,0.0,0.0,0.0,0.0,0.0,0.0,0.0,0.0,0.0,0.0,0.0,0.0,0.0,0.0,0.0,0.0,0.0,0.0,0.0,0.0,0.0,0.0,0.0,0.0,0.0,0.0,0.0,0.0,0.0,0.0,0.0,0.0,0.0,0.0,0.0,0.0,0.0,0.0,0.0,0.0,0.0,0.0,0.0,0.0,0.0,0.0,0.0,0.0,0.0,0.0,0.0,0.0,0.0,0.0,0.0,0.0,0.0,0.0,0.0,0.0,0.0,0.0,0.0,0.0,0.0,0.0,0.0,0.0,0.0,0.0,0.0,0.0,0.0,0.0,0.0,0.0,0.0,0.0,0.0,0.0,0.0,0.0,0.0,0.0,0.0,0.0,0.0,0.0,0.0,0.0,0.0,0.0,0.0,0.0,0.0,0.0,0.0,0.0,0.0,0.0,0.0,0.0,0.0,0.0,0.0,0.0,0.0,0.0,0.0,0.0,0.0,0.0,0.0,0.0,0.0,0.0,0.0,0.0,0.0,0.0,0.0,0.0,0.0,0.0,0.0,0.0,0.0,0.0,0.0,0.0,0.0,0.0,0.0,0.0,0.0,0.0,0.0,0.0,0.0,0.0,0.0,0.0,0.0,0.0,0.0,0.0,0.0,0.0,0.0,0.0,0.0,0.0,0.0,0.0,0.0,0.0,0.0,0.0,0.0,0.0,0.0,0.0,0.0,0.0,0.0,0.0,0.0,0.0,0.0,0.0,0.0,0.0,0.0,0.0,0.0,0.0,0.0,0.0,0.0,0.0,0.0,0.0,0.0,0.0,0.0,0.0,0.0,0.0,0.0,0.0,0.0,0.0,0.0,0.0,0.0,0.0,0.0,0.0,0.0,0.0,0.0,0.0,0.0,0.0,0.0,0.0,0.0,0.0,0.0,0.0,0.0,0.0,0.0,0.0,0.0,0.0,0.0,0.0,0.0,0.0,0.0,0.0,0.0,0.0,0.0,0.0,0.0,0.0,0.0,0.0,0.0,0.0,0.0,0.0,0.0,0.0,0.0,0.0,0.0,0.0,0.0,0.0,0.0,0.0,0.0,0.0,0.0,0.0,0.0,0.0,0.0,0.0,0.0,0.0,0.0,0.0,0.0,0.0,0.0,0.0,0.0,0.0,0.0,0.0,0.0,0.0,0.0,0.0,0.0,0.0,0.0,0.0,0.0,0.0,0.0,0.0,0.0,0.0,0.0,0.0,0.0,0.0,0.0,0.0,0.0,0.0,0.0,0.0,0.0,0.0,0.0,0.0,0.0,0.0,0.0,0.0,0.0,0.0,0.0,0.0,0.0,0.0,0.0,0.0,0.0,0.0,0.0,0.0,0.0,0.0,0.0,0.0,0.0,0.0,0.0,0.0,0.0,0.0,0.0,0.0,0.0,0.0,0.0,0.0,0.0,0.0,0.0,0.0,0.0,0.0,0.0,0.0,0.0,0.0,0.0,0.0,0.0,0.0,0.0,0.0,0.0,0.0,0.0,0.0,0.0,0.0,0.0,0.0,0.0,0.0,0.0,0.0,0.0,0.0,0.0,0.0,0.0,0.0,0.0,0.0,0.0,0.0,0.0,0.0,0.0,0.0,0.0,0.0,0.0,0.0,0.0,0.0,0.0,0.0,0.0,0.0,0.0,0.0,0.0,0.0,0.0,0.0,0.0,0.0,0.0,0.0,0.0,0.0,0.0,0.0,0.0,0.0,0.0,0.0,0.0,0.0,0.0,0.0,0.0,0.0,0.0,0.0,0.0,0.0,0.0,0.0,0.0,0.0,0.0,0.0,0.0,0.0,0.0,0.0,0.0,0.0,0.0,0.0,0.0,0.0,0.0,0.0,0.0,0.0,0.0,0.0,0.0,0.0,0.0,0.0,0.0,0.0,0.0,0.0,0.0,0.0,0.0,0.0,0.0,0.0,0.0,0.0,0.0,0.0,0.0,0.0,0.0,0.0,0.0,0.0,0.0,0.0,0.0,0.0,0.0,0.0,0.0,0.0,0.0,0.0,0.0,0.0,0.0,0.0,0.0,0.0,0.0,0.0,0.0,0.0,0.0,0.0,0.0,0.0,0.0,0.0,0.0,0.0,0.0,0.0,0.0,0.0,0.0,0.0,0.0,0.0,0.0,0.0,0.0,0.0,0.0,0.0,0.0,0.0,0.0,0.0,0.0,0.0,0.0,0.0,0.0,0.0,0.0,0.0,0.0,0.0,0.0,0.0,0.0,0.0,0.0,0.0,0.0,0.0,0.0,0.0,0.0,0.0,0.0,0.0,0.0,0.0,0.0,0.0,0.0,0.0,0.0,0.0,0.0,0.0,0.0,0.0,0.0,0.0,0.0,0.0,0.0,0.0,0.0,0.0,0.0,0.0,0.0,0.0,0.0,0.0,0.0,0.0,0.0,0.0,0.0,0.0,0.0,0.0,0.0,0.0,0.0,0.0,0.0,0.0,0.0,0.0,0.0,0.0,0.0,0.0,0.0,0.0,0.0,0.0,0.0,0.0,0.0,0.0,0.0,0.0,0.0,0.0,0.0,0.0,0.0,0.0,0.0,0.0,0.0,0.0,0.0,0.0,0.0,0.0,0.0,0.0,0.0,0.0,0.0,0.0,0.0,0.0,0.0,0.0,0.0,0.0,0.0,0.0,0.0,0.0,0.0,0.0,0.0,0.0,0.0,0.0,0.0,0.0,0.0,0.0,0.0,0.0,0.0,0.0,0.0,0.0,0.0,0.0,0.0,0.0,0.0,0.0,0.0,0.0,0.0,0.0,0.0,0.0,0.0,0.0,0.0,0.0,0.0,0.0,0.0,0.0,0.0,0.0,0.0,0.0,0.0,0.0,0.0,0.0,0.0,0.0,0.0,0.0,0.0,0.0,0.0,0.0,0.0,0.0,0.0,0.0,0.0,0.0,0.0,0.0,0.0,0.0,0.0,0.0,0.0,0.0,0.0,0.0,0.0,0.0,0.0,0.0,0.0,0.0,0.0,0.0,0.0,0.0,0.0,1.6951,1.5804,0.0,0.0,0.0,0.0,0.0,0.0,0.0,0.0,0.0,0.0,0.0,0.0,0.0,0.0,0.0,0.0,0.0,0.0,0.0,0.0,0.0,0.0,0.0,0.0,0.0,0.0,0.0,0.0,0.0,0.0,0.0,0.0,0.0,0.0,0.5169,0.5028,0.4925,0.4817,0.4677,0.4591,0.4467,0.4046,0.3724,0.3594,0.0,0.0,0.0,0.0,0.0,0.0,0.0,0.0,0.0,0.0,0.0,0.0,0.0,0.0,0.0,0.0,0.0,0.0,0.0,0.0,0.0,0.0,0.0,0.0,0.0,0.0,0.0,0.0,0.0,0.0,0.0,0.0,0.0,0.0,0.0,0.0,0.0,0.0,0.0,0.0,0.0,0.0,0.0,0.0,0.0,0.0,0.0,0.0,0.0,0.0,0.0,0.0,0.0,0.0,0.0,0.0,0.0,0.0,0.0,0.0,0.0,0.0,0.0,0.0,0.0,0.0,0.0,0.0,0.0,0.0,1.885,1.8334,0.0,0.0,0.0,0.0,0.0,0.0,0.0,0.0,0.0,0.0,0.0,0.0,0.0,0.0,0.0,0.0,0.0,0.0,0.0,0.0,0.0,0.0,0.0,0.6009,0.6264,0.6427,0.6467,0.6448,0.0,0.0,0.0,0.0,0.0,0.613,0.6028,0.5681,0.5614,0.5867,0.557,0.5344,0.5162,0.4833,0.4483,0.4174,0.3797,0.0,0.0,0.0,0.0,0.0,0.0,0.0,0.0,0.0,0.0,0.0,0.0,0.0,0.0,0.0,0.0,0.0,0.0,0.0,0.0,0.0,0.0,0.0,0.0,0.0,0.0,0.0,0.0,0.0,0.0,0.0,0.0,0.0,0.0,0.0,0.0,0.0,0.0,0.0,0.0,0.0,0.0,0.0,0.0,0.0,0.0,0.0,0.0,0.0,0.0,0.0,0.0,0.0,0.0,0.0,0.0,0.0,0.0,0.0,0.0,0.0,0.0,0.0,1.8589,1.8874,1.9037,1.9173,1.9696,2.0474,2.072,2.1156,2.1555,1.9751,0.0,0.0,0.0,0.0,0.0,0.0,0.0,0.0,0.0,0.0,0.0,0.0,0.0,0.0,0.0,0.0,0.0,0.0,0.0,0.0,0.0,0.6058,0.6312,0.6644,0.6651,0.6599,0.6412,0.0,0.6639,0.6,0.6109,0.604,0.5685,0.5759,0.5817,0.5818,0.5945,0.5786,0.5362,0.5357,0.5199,0.4841,0.4159,0.3725,0.3464,0.0,0.0,0.0,0.0,0.0,0.0,0.0,0.0,0.0,0.0,0.0,0.0,0.0,0.0,0.0,0.0,0.0,0.0,0.0,0.0,0.0,0.0,0.0,0.0,0.0,0.0,0.0,0.0,0.0,0.0,0.0,0.0,0.0,0.0,0.0,0.0,0.0,0.0,0.0,0.0,0.0,1.2893,1.2528,0.0,0.0,0.0,0.0,0.0,0.0,0.0,0.0,0.0,0.0,0.0,0.0,0.0,1.7483,1.9226,1.9841,2.0319,2.0655,2.0649,2.0678,2.0669,2.0374,2.0395,2.0732,2.2032,0.0,1.9343,2.0537,0.0,0.0,0.0,0.0,0.0,0.0,0.0,0.0,0.0,0.0,0.0,0.0,0.0,0.0,0.0,0.0,0.0,0.0,0.0,0.0,0.0,0.6958,0.7391,0.7642,0.7661,0.7628,0.7517,0.7588,0.7384,0.681,0.6794,0.668,0.633,0.6327,0.6411,0.6519,0.6809,0.6674,0.617,0.5936,0.5723,0.5476,0.4769,0.4247,0.3876,0.3669,0.0,0.0,0.0,0.0,0.0,0.0,0.0,0.0,0.0,0.0,0.0,0.0,0.0,0.0,0.0,0.0,0.0,0.0,0.0,0.0,0.0,0.0,0.0,0.0,0.0,0.0,0.0,0.0,0.0,0.0,0.0,0.0,0.0,0.0,0.0,0.0,0.0,0.0,0.0,1.2692,1.3156,1.3147,1.2978,1.2924,0.0,0.0,0.0,0.0,0.0,0.0,0.0,0.0,0.0,1.7854,1.8263,1.8897,1.9704,2.0359,2.0747,2.0882,2.1114,2.1374,2.1624,2.1344,2.1324,2.1573,2.2225,2.1591,2.0218,2.1039,2.083,1.9896,0.0,0.0,0.0,0.0,1.7118,1.5917,0.0,0.0,0.0,0.0,0.0,0.0,0.0,0.0,0.0,0.0,0.0,0.0,0.7109,0.7749,0.8291,0.8533,0.8502,0.8436,0.8317,0.8134,0.7849,0.7438,0.7302,0.7168,0.7061,0.7005,0.7146,0.7399,0.7558,0.7334,0.6795,0.6438,0.6122,0.5852,0.5464,0.4931,0.4347,0.39,0.3494,0.3114,0.0,0.0,0.0,0.0,0.0,0.0,0.0,0.0,0.0,0.0,0.0,0.0,0.0,0.0,0.0,0.0,0.0,0.0,0.0,0.0,0.0,0.0,0.0,0.0,0.0,0.0,0.0,0.0,0.0,0.0,0.0,0.0,0.0,0.0,0.0,0.0,0.0,1.3487,1.3758,1.387,1.3435,1.3394,0.0,0.0,0.0,0.0,0.0,0.0,1.7405,1.8372,1.8958,1.9062,1.9849,2.0261,2.0281,2.0953,2.123,2.106,2.1293,2.1562,2.19,2.1466,2.1401,2.1626,2.1712,2.1506,2.1133,2.1489,2.1512,2.1218,2.0145,1.8672,1.7326,1.8701,1.8048,1.6653,0.0,0.0,0.0,0.0,0.0,0.0,0.0,0.0,0.0,0.0,0.0,0.7463,0.7741,0.8139,0.8548,0.8926,0.8778,0.8517,0.8122,0.7926,0.7617,0.7224,0.7078,0.7172,0.7457,0.7709,0.7933,0.8129,0.7852,0.741,0.6795,0.6792,0.6393,0.5722,0.6157,0.5681,0.4563,0.4221,0.3648,0.2999,0.2775,0.0,0.0,0.0,0.0,0.0,0.0,0.0,0.0,0.0,0.0,0.0,0.0,0.0,0.0,0.0,0.0,0.0,0.0,0.0,0.0,0.0,0.0,0.0,0.0,0.0,0.0,0.0,0.0,0.0,0.0,0.0,0.0,0.0,0.0,0.0,0.0,0.0,0.0,1.4714,1.5506,0.0,0.0,0.0,0.0,1.6853,1.7027,1.7448,1.838,1.8795,1.932,2.0007,2.0457,2.0864,2.1336,2.1813,2.2052,2.2008,2.1588,2.1401,2.1392,2.0306,1.9912,2.0114,2.0377,2.0604,2.0893,2.1948,2.163,2.061,2.0981,2.0129,1.8771,1.9586,1.9443,1.8962,0.0,0.0,0.0,0.0,0.0,0.0,0.0,0.0,0.6942,0.6859,0.7442,0.799,0.8333,0.8881,0.9384,0.9806,0.9489,0.9239,0.9147,0.864,0.8274,0.7978,0.7659,0.7628,0.7886,0.819,0.8304,0.8201,0.8082,0.7775,0.7241,0.7058,0.67,0.6124,0.5988,0.5561,0.4832,0.4785,0.4306,0.355,0.3469,0.3152,0.0,0.0,0.0,0.0,0.0,0.0,0.0,0.0,0.0,0.0,0.0,0.0,0.0,0.0,0.0,0.0,0.0,0.0,0.0,0.0,0.0,0.0,0.0,0.0,0.0,0.0,0.0,0.0,0.0,0.0,0.0,0.0,0.0,0.0,0.0,0.0,0.0,1.6075,1.6258,0.0,1.6349,1.643,1.6822,1.757,1.8277,1.8767,1.8942,1.9777,2.0286,2.0244,2.0953,2.1221,2.0935,2.1534,2.1687,2.141,2.1419,2.1383,2.1365,2.0695,2.0298,2.0088,2.0298,2.0289,2.0114,2.0694,2.1362,2.1939,2.139,2.0701,1.997,2.0264,1.987,1.9344,0.0,0.0,0.0,0.0,0.0,0.0,0.0,0.0,0.7264,0.7577,0.8067,0.8565,0.916,0.9637,0.9963,1.0139,0.9832,0.9504,0.9293,0.8957,0.8698,0.8493,0.8442,0.8477,0.8612,0.8752,0.876,0.8552,0.842,0.8157,0.7852,0.7496,0.7051,0.6517,0.6296,0.5719,0.5001,0.5206,0.4699,0.3774,0.381,0.3428,0.2873,0.0,0.0,0.0,0.0,0.0,0.0,0.0,0.0,0.0,0.0,0.0,0.0,0.0,0.0,0.0,0.0,0.0,0.0,0.0,0.0,0.0,0.0,0.0,0.0,0.0,0.0,0.0,0.0,0.0,0.0,0.0,0.0,0.0,0.0,1.6226,1.6943,1.6959,1.7077,1.7258,1.7561,1.7622,1.7883,1.8553,1.9285,1.9662,1.9554,2.0419,2.0826,2.0663,2.132,2.1588,2.1419,2.1865,2.1945,2.1713,2.1731,2.175,2.1731,2.1227,2.0845,2.0633,2.0536,2.035,2.0147,2.0263,2.1145,2.2293,2.1109,2.0485,2.0264,2.0346,2.0048,1.9764,0.0,0.0,0.0,0.0,0.0,0.0,0.0,0.7185,0.7382,0.8648,0.8859,0.9256,1.0103,1.0263,1.0227,0.9948,0.974,0.9277,0.8516,0.8794,0.8906,0.8654,0.9289,0.9611,0.9634,0.9447,0.9334,0.9305,0.8859,0.8588,0.85,0.8113,0.754,0.682,0.7003,0.6296,0.5053,0.5497,0.4863,0.3557,0.3738,0.3321,0.2598,0.0,0.0,0.0,0.0,0.0,0.0,0.0,0.0,0.0,0.0,0.0,0.0,0.0,0.0,0.0,0.0,0.0,0.0,0.0,0.0,0.0,0.0,0.0,0.0,0.0,0.0,0.0,0.0,0.0,0.0,0.0,0.0,0.0,1.6794,1.7221,1.749,1.7302,1.8105,1.8522,1.82,1.8432,1.8909,1.9659,1.9861,2.0019,2.0292,2.0564,2.0925,2.1392,2.1633,2.2122,2.2823,2.2876,2.2964,2.311,2.2671,2.2451,2.2353,2.1713,2.1499,2.1651,2.1015,2.0826,2.1006,2.0844,2.1127,2.1522,2.0159,1.9642,1.9683,1.9871,2.0107,2.042,0.0,0.0,0.0,0.0,0.0,0.0,0.779,0.7947,0.8247,0.8737,0.916,0.9627,1.0142,1.039,1.0534,1.0616,1.0112,0.9759,0.9559,0.9484,0.9417,0.9405,1.0037,1.0254,0.9897,0.9961,0.9851,0.9519,0.9554,0.9379,0.9078,0.8548,0.8061,0.7482,0.6871,0.6299,0.5769,0.5591,0.5129,0.4568,0.4502,0.4159,0.3758,0.0,0.0,0.0,0.0,0.0,0.0,0.0,0.0,0.0,0.0,0.0,0.0,0.0,0.0,0.0,0.0,0.0,0.0,0.0,0.0,0.0,0.0,0.0,0.0,0.0,0.0,0.0,0.0,0.0,0.0,0.0,1.7049,1.7754,1.738,1.8343,1.8977,1.894,1.9555,1.9932,1.984,1.9893,2.0039,2.0279,2.0405,2.0555,2.0826,2.1195,2.1562,2.1919,2.2939,2.353,2.3539,2.4591,2.4591,2.3628,2.3495,2.2984,2.2185,2.1998,2.183,2.1687,2.1856,2.1588,2.1006,2.1011,2.078,2.043,2.0307,2.0449,2.0718,2.049,2.0778,2.1211,0.0,0.0,0.0,0.0,0.0,0.0,0.8241,0.8248,0.8555,0.9433,0.9621,0.9913,1.0516,1.0579,1.0611,1.0712,1.0187,0.9819,0.9681,0.9793,1.0068,1.051,1.0808,1.0821,1.0534,1.036,1.0164,0.9907,0.9907,0.982,0.9563,0.9161,0.8632,0.8053,0.7445,0.683,0.6213,0.6038,0.568,0.5146,0.5146,0.4729,0.4253,0.4685,0.4772,0.4725,0.4979,0.5105,0.5253,0.5708,0.0,0.0,0.0,0.0,0.0,0.0,0.0,0.0,0.0,0.0,0.0,0.0,0.0,0.0,0.0,0.0,0.0,0.0,0.0,0.0,0.0,0.0,0.0,0.0,1.7796,1.8574,1.8564,1.9346,1.9904,1.9962,2.0444,2.0825,2.0929,2.0745,2.0721,2.0874,2.095,2.1141,2.1454,2.1807,2.2313,2.2984,2.3873,2.4405,2.4541,2.5411,2.5411,2.4541,2.4451,2.4051,2.3422,2.3287,2.3017,2.2554,2.2726,2.2307,2.1545,2.1579,2.1299,2.0836,0.0,0.0,0.0,0.0,2.0762,2.1009,0.0,0.0,0.0,0.0,0.0,0.0,0.876,0.8415,0.8681,1.0368,1.0135,1.0143,1.0972,1.0705,1.0519,1.051,1.0104,0.9746,0.9469,1.0111,1.0871,1.1739,1.1553,1.1413,1.1365,1.0771,1.0424,1.0424,1.0207,1.0125,1.0125,0.9777,0.9292,0.8632,0.8328,0.758,0.6564,0.6748,0.6305,0.5549,0.5677,0.5173,0.4359,0.5066,0.5044,0.4701,0.5282,0.5497,0.557,0.6062,0.0,0.0,0.0,0.0,0.0,0.0,0.0,0.0,0.0,0.0,0.0,0.0,0.0,0.0,0.0,0.0,0.0,0.0,0.0,0.0,0.0,0.0,0.0,0.0,1.8726,1.9676,1.992,2.028,2.0528,2.0488,2.0825,2.121,2.1499,2.1186,2.1109,2.151,2.1551,2.1767,2.2185,2.2443,0.0,0.0,0.0,2.5029,2.5726,2.5823,2.5777,2.5635,2.5351,2.5183,2.5087,2.4822,2.4351,2.3719,2.3476,2.2973,2.2364,2.2364,2.2278,2.1968,2.051,1.9924,1.9947,2.0318,2.0301,2.0186,0.0,0.0,0.0,0.0,0.0,0.0,0.9095,0.9169,0.9536,1.0476,1.018,1.0109,1.0701,1.0604,1.0491,1.0417,1.0237,1.0379,1.093,1.1735,1.2229,1.2182,1.2343,1.2231,1.186,1.1564,1.13,1.1111,1.1084,1.0959,1.0786,1.0125,0.9772,0.9598,0.8636,0.7937,0.7496,0.7187,0.6697,0.621,0.608,0.5534,0.4893,0.5228,0.5401,0.5479,0.5533,0.5731,0.6018,0.6388,0.6626,0.6912,0.7731,0.8093,0.0,0.0,0.0,0.0,0.0,0.0,0.0,0.0,0.0,0.0,0.0,0.0,0.0,0.0,0.0,0.0,0.0,0.0,0.0,1.8583,1.981,2.0593,2.0254,2.1233,2.16,2.0627,2.0738,2.1011,2.1268,2.1726,2.2116,2.2373,2.2492,2.2662,2.2872,2.3287,2.3754,2.4212,2.5279,2.6053,2.6398,2.718,2.6983,2.5831,2.5588,0.0,2.4295,2.384,2.3738,2.3923,2.3724,2.335,2.2838,2.2742,2.2463,2.2022,2.1181,2.0739,2.058,2.0149,1.9902,1.9692,0.0,0.0,0.0,0.0,0.0,0.0,0.9414,0.9533,0.9907,1.0795,1.0449,1.0383,1.0928,1.0657,1.0573,1.0841,1.0741,1.1066,1.1978,1.2284,1.2594,1.3002,1.2935,1.2796,1.2552,1.2075,1.1768,1.1671,1.1419,1.1251,1.1122,1.0554,1.0294,1.0202,0.9292,0.8684,0.8336,0.7981,0.7448,0.6741,0.6656,0.6169,0.5547,0.5683,0.5673,0.5642,0.5976,0.609,0.6144,0.6808,0.7102,0.7305,0.7969,0.8462,0.8844,0.0,0.0,0.0,0.0,0.0,0.0,0.0,0.0,0.0,0.0,0.0,0.0,0.0,0.0,1.514,1.6266,0.0,1.8417,1.9067,2.0166,2.1,2.094,2.1663,2.1959,2.1238,2.1549,2.19,2.2138,2.2325,2.2584,2.2889,2.2891,2.3146,2.3776,2.4072,2.4608,2.5396,2.6139,2.6685,2.6957,2.728,2.7101,2.6401,2.6154,2.5702,2.5116,2.4983,2.462,2.4164,2.4126,2.3671,2.3009,2.31,2.2925,2.258,2.2108,2.1605,2.1099,2.0699,1.9952,1.9133,0.0,0.0,0.0,0.0,0.0,0.0,0.0,0.9846,1.0214,1.1144,1.0804,1.0678,1.1228,1.0843,1.0731,1.1229,1.136,1.179,1.2756,1.2678,1.2994,1.3866,1.3561,1.3307,1.3222,1.2619,1.2314,1.2272,1.1837,1.1628,1.1542,1.1111,1.0852,1.0766,1.0077,0.9515,0.9082,0.8859,0.8153,0.7228,0.7228,0.6833,0.626,0.626,0.5967,0.5598,0.6233,0.6222,0.6135,0.7071,0.7468,0.7706,0.8178,0.8815,0.9363,0.9216,0.9727,0.0,0.0,0.0,0.0,0.0,0.0,0.0,0.0,0.0,1.3687,1.4839,1.5353,1.6011,1.7332,1.8047,1.8712,1.9455,2.036,2.1156,2.1517,2.1961,2.224,2.2262,2.2447,2.2716,2.3069,2.2889,2.2923,2.3288,2.3372,2.3769,2.4593,2.4878,2.5436,2.6476,2.6645,2.6938,2.7309,2.7034,2.6948,2.6986,2.6592,2.6304,2.61,2.6207,2.5662,2.4564,2.454,2.3994,2.3155,2.3408,2.3388,2.3232,2.3013,2.2494,2.1829,2.1377,2.0249,1.8963,0.0,0.0,0.0,0.0,0.0,0.0,0.0,0.0,1.0723,1.1367,1.1051,1.0868,1.1167,1.1097,1.1059,1.1125,1.1923,1.2618,1.3089,1.3726,1.4226,1.4552,1.4356,1.4062,1.3652,1.3561,1.3434,1.3222,1.296,1.2705,1.2534,1.1886,1.1585,1.1542,1.0641,1.0077,0.9772,0.9388,0.8644,0.7716,0.7716,0.7323,0.6748,0.6922,0.6441,0.5696,0.5785,0.5831,0.599,0.6665,0.7364,0.8056,0.8645,0.9428,1.012,0.9879,1.005,1.029,1.0237,1.0962,1.19,1.2616,1.3101,1.3797,0.0,0.0,1.5305,1.656,1.719,1.7811,1.8933,1.9463,1.9918,2.0548,2.0825,2.1156,2.1517,2.2469,2.3287,2.3935,2.299,2.2474,2.3063,2.325,2.3409,2.3706,2.4503,2.5005,2.5104,2.5717,2.6113,2.6222,2.6197,2.6534,2.7309,2.7034,2.7034,2.7262,2.6486,2.6149,2.6091,2.5625,2.5489,2.5509,2.4938,2.4293,2.3689,2.3506,2.3521,2.3711,2.3493,2.3368,2.3098,2.1691,2.0683,1.9909,0.0,0.0,0.0,0.0,0.0,0.0,0.0,0.0,0.0,1.1323,1.1326,1.1329,1.1425,1.142,1.142,1.1504,1.2023,1.2735,1.3622,1.4023,1.4519,1.5081,1.4908,1.4706,1.4538,1.4237,1.4062,1.3977,1.3603,1.3349,1.3264,1.2619,1.2277,1.2235,1.1456,1.0895,1.0506,1.0077,0.9428,0.8644,0.8512,0.8116,0.7577,0.7309,0.701,0.6743,0.6616,0.6492,0.0,0.7372,0.7893,0.8313,0.9045,0.9601,1.0019,1.0072,1.0383,1.0847,1.1249,1.1706,1.2293,1.3133,1.3766,1.444,1.5421,1.5783,1.6176,1.7221,1.7773,1.8333,1.9201,1.9701,2.0062,2.0182,2.0791,2.1312,2.1602,2.2473,2.3386,2.4431,2.4003,2.3824,2.4235,2.4142,2.4138,2.4365,2.5016,2.5441,2.5585,2.6104,2.6462,2.6594,2.6444,2.6592,2.7081,2.6794,2.6794,2.7081,2.639,2.5994,2.5849,2.5625,2.543,2.5178,2.4402,2.3965,2.3804,2.3347,2.3403,2.3762,2.3602,2.345,2.3209,2.2473,2.1579,2.0654,0.0,0.0,0.0,0.0,0.0,0.0,0.0,0.0,0.0,0.0,1.1529,1.1591,1.1591,1.1591,1.1655,1.1793,1.2065,1.2726,1.391,1.4168,1.469,1.5487,1.5367,1.5245,1.5291,1.4858,1.4685,1.4817,1.4401,1.4153,1.4025,1.3533,1.3188,1.2899,1.2382,1.182,1.1255,1.0796,1.0164,0.9476,0.9213,0.8775,0.8273,0.7891,0.7617,0.7447,0.7278,0.7069,0.7045,0.8039,0.8431,0.8631,0.9362,0.9822,1.014,1.0241,1.0626,1.1147,1.1911,1.2303,0.0,1.3613,1.4262,1.4858,1.5683,1.6197,1.6721,1.7508,1.816,1.8734,1.9347,1.9939,2.0237,2.003,2.0794,2.147,2.166,2.2393,2.3355,2.4477,2.4761,2.5036,2.5452,2.5183,2.5066,2.5331,2.5892,2.6278,2.6379,2.678,2.7023,2.6986,2.6954,2.6916,2.689,2.7038,2.7148,2.7277,2.6885,2.6486,2.6123,2.5917,2.5625,2.5187,2.4507,2.4212,2.4173,2.3607,2.3539,2.3805,2.3624,2.3414,2.3155,2.2995,2.2292,2.1208,0.0,0.0,0.0,0.0,0.0,0.0,0.0,0.0,0.0,0.0,0.0,0.0,0.0,1.1591,1.1654,1.1786,1.2091,1.276,1.3824,1.4319,1.4965,1.5856,1.5679,1.5622,1.5684,1.5338,1.5405,1.587,1.5627,1.5325,1.4843,1.4909,1.4402,1.3486,1.3267,1.2745,1.2032,1.1516,1.0766,0.9951,0.9689,0.9165,0.8592,0.8771,0.8251,0.7375,0.7319,0.7348,0.7486,0.8256,0.8741,0.9176,0.9706,1.0319,1.081,1.0558,1.0617,1.0894,1.1688,1.2375,1.308,1.395,1.4489,1.5048,1.6162,1.6544,1.6867,1.7556,1.8478,1.9317,1.9808,2.0378,2.0717,2.0483,2.0979,2.1473,2.1564,2.2447,2.3419,2.4293,2.4868,2.5543,2.6494,2.6293,2.6295,2.6613,2.7482,2.7913,2.7651,2.8079,2.8008,2.7231,2.7686,2.761,2.6907,2.8043,2.8518,2.8275,2.82,2.7792,2.713,2.6396,2.6091,2.6052,2.5771,2.543,2.5021,2.4479,2.4085,2.3789,2.3779,2.3506,2.3115,2.3125,2.2598,2.161,0.0,0.0,0.0,0.0,0.0,0.0,0.0,0.0,0.0,0.0,0.0,0.0,0.0,0.0,0.0,0.0,1.2364,1.2811,1.3696,1.4303,1.4883,1.5553,1.585,1.607,1.6228,1.6154,1.627,1.6568,1.6581,1.6432,1.6177,1.6007,1.5513,1.4752,1.4307,1.3717,1.2971,1.218,1.1565,1.1073,1.0337,0.9946,0.9653,0.9014,0.8634,0.8413,0.0,0.7673,0.7359,0.8025,0.8398,0.8699,0.9395,0.9866,1.0284,1.0858,1.1205,1.1576,1.2525,1.3067,1.362,1.4628,1.529,1.5886,1.6477,1.7123,1.785,1.8655,1.8899,1.9221,2.0254,2.0254,2.0131,2.015,2.098,2.1607,2.1645,2.2382,2.3169,2.39,2.4456,2.5151,2.6238,2.6552,2.6864,2.7137,2.7864,2.807,2.7479,2.7706,2.782,2.7704,2.7434,2.7445,2.7821,2.76,2.7644,2.7837,2.7146,2.6852,2.6893,2.6162,2.582,2.5781,2.5167,2.5139,2.5421,2.4079,2.3822,2.415,2.3574,2.3227,2.3047,2.274,2.2402,2.1896,0.0,0.0,0.0,0.0,0.0,0.0,0.0,0.0,0.0,0.0,0.0,0.0,0.0,0.0,0.0,0.0,0.0,1.2874,1.3603,1.4258,1.4832,1.5312,1.5759,1.6168,1.6423,1.6269,1.6412,1.6946,1.7071,1.7052,1.6919,1.7056,1.66,1.5646,1.5285,1.4637,1.3733,1.3022,1.2334,1.1628,1.0901,1.0421,1.0077,0.9307,0.8998,0.0,0.8859,0.8268,0.7666,0.8207,0.8492,0.873,0.9292,0.9666,1.0128,1.1114,1.1529,1.1922,1.3109,1.3624,1.4107,1.5085,1.5806,1.6294,1.6598,1.7474,1.8376,1.8787,1.8939,1.9151,1.9906,2.0043,2.0007,1.9943,2.1023,2.1917,2.2073,2.2432,2.3033,2.3939,2.4273,2.4886,2.6119,2.6482,2.6941,2.7711,2.8142,2.8283,2.7945,2.8165,2.8233,2.8149,2.8026,2.7983,2.8051,2.8067,2.8154,2.8459,2.7551,2.7112,2.7182,2.6448,2.5928,2.5684,2.5137,2.5235,2.5596,2.4555,2.4192,2.4365,2.3673,2.3285,2.2925,2.2485,2.2141,2.1871,0.0,0.0,0.0,0.0,0.0,0.0,0.0,0.0,0.0,0.0,0.0,0.0,0.0,0.0,0.0,0.0,0.0,0.0,1.3552,1.4264,1.4834,1.5163,1.5534,1.5898,1.6315,1.5777,1.6005,1.7009,1.7147,1.7141,1.7121,1.7992,1.7568,1.6095,1.6102,1.5448,1.4253,1.3952,1.3001,1.1681,1.1252,1.0611,0.9943,0.9679,0.9341,0.9056,0.9486,0.9087,0.8363,0.8782,0.9057,0.9278,0.9457,0.9888,1.0457,1.141,1.1673,1.1995,1.3438,1.4095,1.4549,1.5383,1.5963,1.6355,1.6568,1.7578,1.8367,1.8078,1.8628,1.9088,0.0,0.0,2.0319,1.9907,2.117,2.2349,2.2745,2.2627,2.304,0.0,0.0,0.0,0.0,0.0,2.6649,2.8275,2.8353,2.8562,2.9059,2.9312,2.9174,2.8441,2.9368,2.9154,2.772,2.9232,3.0019,2.9932,2.9147,2.8472,2.7895,2.7132,2.636,2.5742,2.5684,2.5693,2.5684,2.5635,2.5128,2.4368,2.4144,2.3551,2.2759,2.223,2.1919,2.1596,0.0,0.0,0.0,0.0,0.0,0.0,0.0,0.0,0.0,0.0,0.0,0.0,0.0,0.0,0.0,0.0,0.0,0.0,1.3495,1.3897,1.4425,1.5174,1.5504,1.6024,1.6731,1.667,1.6854,1.7313,1.7115,1.7045,1.7008,1.6946,1.6545,1.5767,1.5305,1.4667,1.3955,1.3068,1.2463,1.1997,1.1098,1.0699,1.0571,0.9871,0.9477,0.9281,0.9145,0.8855,0.8564,0.888,0.947,1.023,1.101,1.1348,1.1591,1.236,1.2629,1.2931,1.3898,1.4498,1.498,1.5514,1.6027,1.641,1.6451,1.7301,1.8133,1.8072,1.8355,1.8751,1.9207,1.9478,1.9757,2.0237,2.14,0.0,2.2756,2.2867,0.0,2.4361,0.0,2.4891,2.612,2.6059,2.6517,2.7988,2.7974,2.8152,2.8828,2.8943,2.8943,2.8896,2.9017,2.9052,2.8938,2.9026,2.9027,2.9035,2.8074,2.7737,2.7844,2.6751,2.6161,2.5955,2.5577,2.5538,2.5635,2.4982,2.4619,2.4309,2.3451,2.2986,2.2715,2.1883,2.1526,2.1419,0.0,0.0,0.0,0.0,0.0,0.0,0.0,0.0,0.0,0.0,0.0,0.0,0.0,0.0,0.0,0.0,0.0,0.0,0.0,1.4072,1.4553,1.5296,1.5618,1.5989,1.6554,1.6433,1.6552,1.6843,1.674,1.6677,1.6685,1.6715,1.6368,1.5733,1.509,1.4558,1.4069,1.3235,1.2638,0.0,0.0,1.1024,1.0574,0.9893,0.9591,0.9465,0.9181,0.9316,0.963,0.0,0.0,1.0995,1.1646,1.1992,1.2264,1.2941,1.3368,1.3716,1.4394,1.4792,1.5141,1.5606,1.6095,1.6498,1.6515,1.759,1.8442,1.814,1.8328,1.8592,1.8876,1.9237,1.9627,0.0,0.0,0.0,2.3092,2.2906,2.3227,0.0,2.4691,0.0,2.5694,2.5859,2.6346,2.7492,2.7533,2.798,2.9037,2.8989,2.9082,2.9462,2.9128,2.9033,2.9276,2.9228,2.9096,2.9008,2.8452,2.8067,2.7865,2.684,2.6279,2.6052,2.5518,2.5421,2.5544,2.5043,2.475,2.45,2.3702,2.3178,2.2838,2.2008,2.1616,2.1437,0.0,0.0,0.0,0.0,0.0,0.0,0.0,0.0,0.0,0.0,0.0,0.0,0.0,0.0,0.0,0.0,0.0,0.0,0.0,0.0,1.4913,1.5486,1.5653,1.5842,1.6061,1.5674,1.5665,1.6001,1.6072,1.6081,1.6094,1.6468,1.622,1.5453,1.4869,1.4438,1.4029,1.3494,1.2796,1.2067,1.1864,1.1198,1.0223,0.0,0.9638,0.9556,0.9406,0.0,0.0,0.0,1.1496,1.1765,1.2029,1.2304,1.2686,1.3415,1.3875,1.4273,1.4797,1.5039,1.5249,1.5658,1.6232,1.6688,1.6686,1.7879,1.8802,1.7968,1.8214,1.8506,1.8183,1.8937,1.9688,1.9872,0.0,2.199,2.3526,2.2934,2.3122,2.5325,2.5035,2.4844,2.5326,2.5755,2.6279,2.7061,2.7237,2.793,2.9338,2.9266,2.9416,2.984,2.9324,2.9058,2.9115,2.9485,2.9598,2.9379,2.9281,2.8813,2.788,2.7109,2.6565,2.6149,2.5577,2.5372,2.5436,2.533,2.5055,2.4716,2.4157,2.36,2.2969,2.2274,2.1874,2.1517,0.0,0.0,0.0,0.0,0.0,0.0,0.0,0.0,0.0,0.0,1.2036,1.2299,0.0,0.0,0.0,0.0,0.0,0.0,0.0,0.0,0.0,1.5486,1.5351,1.5489,1.5833,1.5603,1.553,1.5598,1.5117,1.4892,1.4874,1.44,1.4047,1.3708,1.3054,1.2551,1.2146,1.1655,1.1255,1.0941,1.0481,1.0171,0.9943,0.972,0.0,0.0,0.0,0.0,0.0,0.0,1.226,1.3002,1.3539,1.3514,1.3415,1.4042,1.4151,1.4191,1.4876,1.5199,1.5443,1.5914,1.6617,1.7067,1.6554,1.736,0.0,0.0,1.7459,1.7996,1.7278,1.8211,1.9286,1.9831,2.0643,2.1747,2.3122,2.3412,2.4002,0.0,2.5406,2.5606,2.6299,2.6417,2.678,2.7525,2.7608,2.8019,2.8863,2.9462,2.9691,2.9577,2.9128,2.894,2.9121,2.9168,2.9212,2.9149,2.8773,2.8353,2.7973,2.6992,2.6625,2.6699,2.5732,2.5478,2.5651,2.491,2.4558,2.4474,2.3609,2.3125,2.2759,2.183,2.1482,2.1392,0.0,0.0,0.0,0.0,0.0,0.0,0.0,1.1341,1.1512,1.17,1.1984,1.2383,1.2986,1.3305,1.3503,0.0,0.0,0.0,0.0,0.0,0.0,0.0,1.5196,1.5347,1.563,1.5248,1.5034,1.5034,0.0,1.4281,1.4181,1.3841,1.3558,1.3207,1.247,1.2033,1.1755,1.1138,1.0791,1.0753,1.0591,1.0225,0.9797,0.0,0.0,0.0,0.0,0.0,0.0,0.0,1.2337,1.35,1.3941,1.422,1.4356,1.4525,1.4712,1.4957,1.5199,1.5401,1.565,1.6154,1.67,1.6978,1.6539,0.0,0.0,0.0,1.7156,1.7731,1.7578,1.8331,1.926,2.0081,2.0987,2.1979,2.3192,2.3711,2.4184,2.4754,2.5224,2.5547,2.5645,2.6579,2.7348,2.7832,2.8454,2.8884,2.8932,2.9565,2.9783,2.9485,2.9531,2.9347,2.8943,2.9174,2.9024,2.8513,2.829,2.8045,2.7773,2.6774,2.6448,2.6651,2.5858,2.5555,2.5568,2.5265,2.5009,2.4751,2.4177,2.3565,2.2923,2.2615,2.2097,2.1517,0.0,0.0,0.0,0.0,0.0,0.0,0.0,1.1209,1.1375,1.1629,1.203,1.2508,1.2997,1.3401,1.359,0.0,0.0,0.0,0.0,0.0,0.0,0.0,0.0,0.0,0.0,0.0,0.0,1.4489,1.4129,0.0,0.0,0.0,0.0,0.0,1.2192,1.1737,1.1545,1.0853,1.0563,0.0,0.0,1.0333,0.0,0.0,0.0,0.0,0.0,0.0,0.0,0.0,1.2125,1.33,1.3822,1.4351,1.4774,1.4643,1.5009,1.5396,1.5421,1.5609,1.5922,1.6405,1.6852,1.7099,1.6726,1.7364,0.0,1.6808,1.7077,1.761,1.7977,1.848,1.9202,0.0,2.1075,2.204,2.3247,2.3861,2.4194,2.4271,2.5011,0.0,2.4949,2.6557,2.771,2.7995,2.9083,2.96,2.9359,2.96,2.9691,2.9588,2.9897,2.9669,2.8896,2.922,2.8978,2.8092,2.8045,2.7904,2.7678,2.6764,2.6486,2.6736,2.6187,2.5831,2.5578,2.5718,2.5543,2.5117,2.4862,2.4167,2.3255,2.3423,2.2827,2.1909,0.0,0.0,0.0,0.0,0.0,0.0,0.0,1.1209,1.1486,1.2059,1.2233,1.2518,1.3121,1.3528,1.3661,0.0,0.0,0.0,0.0,0.0,0.0,0.0,0.0,0.0,0.0,0.0,0.0,1.4165,1.3746,0.0,0.0,0.0,0.0,0.0,0.0,1.1042,1.061,1.0286,0.0,0.0,0.0,0.0,0.0,0.0,0.0,0.0,0.0,0.0,0.0,0.0,0.0,1.2155,1.3204,1.3662,1.3804,1.4205,0.0,0.0,1.5231,1.5741,1.6205,1.6799,1.7528,1.7908,1.7212,0.0,1.7893,1.6822,1.7073,1.7587,1.7795,1.8184,1.8779,1.9789,2.038,2.1312,2.3,2.3935,2.4486,2.4487,0.0,0.0,2.5204,2.647,2.7504,2.7973,2.8756,2.9439,3.008,2.9497,2.937,2.984,2.968,2.9393,2.9082,2.9128,2.8896,2.8348,2.8139,2.7998,2.7951,2.7441,2.7299,2.7489,2.7003,2.6557,2.6118,2.5871,2.5542,2.5146,2.4882,2.4375,2.3727,2.3495,2.3121,2.2618,0.0,0.0,0.0,0.0,0.0,0.0,1.0814,1.0902,1.118,1.1655,1.2051,1.2422,1.2793,1.3309,1.3557,1.3424,0.0,0.0,0.0,0.0,0.0,0.0,0.0,0.0,0.0,0.0,1.3726,1.4037,1.3433,0.0,0.0,0.0,0.0,0.0,0.0,1.1019,1.0695,1.0161,0.0,0.0,0.0,0.0,0.0,0.0,0.0,0.0,0.0,0.0,1.0417,0.0,0.0,0.0,1.2291,1.2775,0.0,0.0,1.4488,1.476,1.5153,1.5673,1.6196,1.661,1.7189,1.7458,1.6628,0.0,1.7535,1.6489,1.6934,1.763,1.8098,1.8505,1.906,1.996,2.0722,2.161,2.2774,2.3753,2.4228,2.3923,2.5281,2.5931,2.5198,2.6952,2.8487,2.9238,2.9352,2.9485,2.976,2.9359,2.9405,3.0045,2.9715,2.9439,2.9347,2.9174,2.885,2.8395,2.8149,2.7998,2.7987,2.7489,2.7357,2.7404,2.7204,2.6855,2.6355,2.6254,2.6016,2.5709,2.5224,2.4713,2.4169,2.3771,2.3291,2.2668,0.0,0.0,0.0,0.0,0.0,1.0555,1.0636,1.0744,1.0955,1.1349,1.1806,1.2214,1.2494,1.301,1.3346,1.3419,1.3608,0.0,0.0,0.0,0.0,0.0,0.0,0.0,0.0,0.0,1.348,1.3786,1.3236,1.3048,0.0,0.0,1.2317,1.21,0.0,0.0,0.0,0.0,0.0,0.0,0.0,0.0,0.0,0.0,0.0,0.0,0.0,0.0,0.0,0.0,0.0,0.0,0.0,0.0,0.0,0.0,1.4594,1.5128,1.5345,1.5975,1.6665,1.6968,1.7155,1.7137,0.0,0.0,1.7351,1.6451,1.6995,1.7852,1.8476,1.885,1.9375,2.0203,2.0923,2.1738,2.2782,2.3433,2.3777,2.3689,2.5033,2.5782,2.5155,2.73,2.9169,3.0226,2.976,2.9485,2.9715,2.9255,2.9359,3.0091,2.9943,2.9806,2.9715,2.9157,2.8754,2.8524,2.7861,2.7778,2.8092,2.7636,2.7505,2.7641,2.7726,2.7369,2.674,2.6722,2.6497,2.6047,2.5505,2.5042,2.4679,2.4233,2.3733,2.3042,0.0,0.0,0.0,0.0,0.0,0.0,1.0759,1.0807,1.0955,1.1349,1.1567,1.1859,1.2275,1.2673,1.2973,1.3193,1.3382,0.0,0.0,0.0,0.0,0.0,0.0,0.0,0.0,0.0,1.3499,1.3317,1.3163,1.3,1.2784,1.2331,1.1948,1.1706,0.0,0.0,0.0,0.0,0.0,0.0,0.0,0.0,0.0,0.0,0.0,0.0,0.0,0.0,0.0,0.0,0.0,0.0,0.0,1.2055,1.2141,0.0,1.4546,1.5537,1.5818,1.679,1.7792,1.8162,1.778,1.7325,0.0,1.7615,1.7475,1.675,1.7384,1.8282,1.8881,1.9143,1.9569,2.045,2.0769,2.1428,2.2959,2.3047,2.3218,0.0,2.4533,2.4887,2.5072,2.7269,2.9256,3.0496,2.9669,2.9405,3.017,2.9301,2.9128,2.9886,3.0363,3.0442,3.0216,2.9004,2.855,2.8792,2.7299,2.7251,2.8384,2.7899,2.7942,2.8395,2.8664,2.8218,2.7296,2.73,2.6867,2.6141,2.5674,2.5389,2.5179,2.4905,2.453,2.3963,0.0,0.0,0.0,0.0,0.0,0.0,0.0,1.0117,1.0348,1.0981,1.1224,1.1587,1.2238,1.2415,1.2526,1.2562,1.301,0.0,0.0,0.0,0.0,0.0,0.0,0.0,0.0,0.0,1.2752,1.3235,1.2674,1.2504,1.2705,1.2167,1.1717,1.1351,1.1089,1.0751,0.0,0.0,0.0,0.0,0.0,0.0,0.0,0.0,0.0,0.0,0.0,0.0,0.0,0.0,0.0,0.0,0.0,0.0,0.0,1.3322,1.4164,1.4895,1.5239,1.5984,1.6685,1.6762,1.6597,1.6434,1.6535,1.6862,1.7038,1.6661,1.7367,1.8174,1.8705,1.8962,1.939,2.0255,2.0449,2.0967,2.2318,2.2763,0.0,2.4274,2.5295,2.6422,2.7656,2.8333,2.9169,3.0226,2.9909,2.9691,2.9715,2.976,2.9852,3.0091,2.9943,3.0034,3.0487,2.9602,2.9294,2.9554,2.8589,2.837,2.8896,2.8593,2.8522,2.8664,2.8571,2.8121,2.7473,2.7137,2.6806,2.6404,2.5811,2.5399,2.5094,2.4209,2.3899,2.3665,0.0,0.0,0.0,0.0,0.0,0.0,0.0,0.9917,1.0147,1.072,1.0975,1.1352,1.192,1.1892,1.1892,1.2077,1.2342,0.0,0.0,0.0,0.0,0.0,0.0,0.0,0.0,1.2417,1.2602,1.3113,1.2506,1.232,1.2513,1.1798,1.1306,1.0979,1.0717,1.0458,0.0,0.0,0.0,0.0,0.0,0.0,0.8822,0.0,0.0,0.0,0.0,0.0,0.0,0.0,0.0,0.0,0.0,0.0,0.0,0.0,1.3578,1.4459,1.5088,1.5826,1.651,1.659,1.6375,1.6142,1.6294,0.0,1.6845,1.6649,1.7431,1.8282,1.8732,1.9168,1.9654,2.0215,2.0556,2.1135,2.218,2.2533,2.3109,2.4341,2.5697,2.709,2.8617,2.8829,2.9288,3.0294,2.9954,2.9737,2.976,2.9954,3.0182,3.0352,3.008,3.0125,3.0623,2.9534,2.9139,2.9466,2.8264,2.8095,2.884,2.8435,2.8453,2.8803,2.8535,2.816,0.0,2.722,2.6964,2.6772,2.5805,2.5331,2.5091,2.4118,2.3697,2.3356,0.0,0.0,0.0,0.0,0.0,0.0,0.0,1.0041,1.0242,1.0532,1.0785,1.1051,1.1341,1.1186,1.1223,1.1595,0.0,0.0,0.0,0.0,0.0,0.0,0.0,0.0,1.2376,1.2661,1.2825,1.2937,1.2507,1.23,1.2224,1.1294,1.0766,1.0551,1.0349,1.0127,0.9906,0.0,0.0,0.0,0.9061,0.8984,0.0,0.0,0.0,0.0,0.0,0.0,0.0,0.0,0.0,0.0,0.0,0.0,0.0,0.0,0.0,0.0,0.0,1.6096,1.6882,1.7246,1.6744,1.6257,1.6548,0.0,0.0,1.6636,1.7523,1.8487,1.8913,1.9622,2.0195,2.0283,2.0948,2.171,2.2483,2.2544,2.3038,2.4487,2.5832,2.7071,2.8296,2.8808,2.9531,3.0531,2.9988,2.976,3.0216,3.0057,3.0148,3.0578,3.0578,3.0578,3.0623,2.9033,2.842,2.8869,2.7006,2.6975,2.8476,2.7799,2.7995,2.885,2.8581,2.829,2.8013,2.7505,2.7314,2.714,2.5764,2.5223,2.514,2.4446,2.3793,2.3187,0.0,0.0,0.0,0.0,0.0,0.0,0.0,0.0,0.0,0.0,1.0213,1.042,1.0877,1.0887,1.085,0.0,0.0,0.0,0.0,0.0,0.0,0.0,0.0,0.0,1.2184,1.1945,1.1925,1.2141,1.1747,1.1548,1.1513,1.0787,1.0326,1.0154,1.0095,1.0024,0.9942,0.9392,0.0,0.0,0.8861,0.878,0.0,0.0,0.0,0.0,0.9771,1.022,0.0,0.0,0.0,0.0,0.0,0.0,0.0,0.0,1.2514,1.3155,1.4163,0.0,1.5632,1.5713,1.5358,1.5121,0.0,0.0,0.0,0.0,0.0,1.7965,1.882,1.9265,1.9729,2.043,2.0693,2.1224,2.2371,2.4086,2.5508,2.6254,2.7229,2.8019,2.8355,2.882,2.9531,3.0531,3.0442,3.0397,3.0487,3.0442,3.0397,3.0306,3.0306,3.0499,3.0883,2.9761,2.9432,2.9863,2.8834,2.8766,2.9522,2.9364,2.9329,2.9301,2.9035,2.871,2.829,2.7751,2.7461,2.7183,2.5968,2.5389,2.5086,2.4219,2.39,2.3763,0.0,0.0,0.0,0.0,0.0,0.0,0.0,0.0,0.0,0.0,0.0,0.0,0.0,0.0,0.0,0.0,0.0,0.0,0.0,0.0,0.0,0.0,0.0,1.1682,1.1718,1.1416,1.1301,1.1477,1.1037,1.0819,1.0728,1.0235,0.9831,0.9566,0.9544,0.9537,0.9537,0.9135,0.8957,0.8832,0.8735,0.0,0.0,0.0,0.0,0.0,0.9532,0.9972,0.0,1.0888,1.0845,1.0694,0.0,0.0,0.0,0.0,1.2284,1.2716,1.3712,1.4272,1.4752,1.5313,1.5034,1.4748,1.5213,0.0,0.0,0.0,0.0,1.7273,1.8376,1.9016,1.9529,0.0,2.0938,2.177,2.2656,2.4294,2.5656,2.6245,2.7225,2.802,2.8542,2.8903,2.9466,3.0329,3.0318,3.0318,3.0397,3.0532,3.0532,3.0397,3.0397,3.0442,3.0646,2.9862,2.9568,2.9748,2.897,2.8903,2.9364,2.9126,2.9055,2.9152,2.8552,2.8107,2.7689,2.6967,2.6806,2.684,2.5356,2.5027,2.5228,2.4082,2.373,2.3752,0.0,0.0,0.0,0.0,0.0,0.0,0.0,0.0,0.0,0.0,0.0,0.0,0.0,0.0,0.0,0.0,0.0,0.0,0.0,0.0,0.0,0.0,0.0,1.0878,1.1042,1.091,1.0826,1.0804,1.0439,1.0162,0.9969,0.9655,0.9341,0.9051,0.8942,0.8995,0.9081,0.8988,0.8877,0.8731,0.8719,0.0,0.0,0.0,0.0,0.0,0.0,0.0,0.0,1.0707,1.0682,1.0552,1.1189,0.0,0.0,0.0,0.0,0.0,1.3408,1.3787,1.4169,1.5315,1.5078,1.4713,1.5248,0.0,0.0,0.0,0.0,0.0,0.0,1.8861,0.0,0.0,2.1536,2.2868,2.3422,2.4293,2.5083,2.5743,2.6693,2.7645,2.86,2.8876,2.9315,3.0114,3.0057,3.0057,3.0261,3.0442,3.0532,3.0487,3.0442,3.0295,3.008,2.9724,2.9429,2.9284,2.8532,2.8422,2.8847,2.8429,2.8455,2.8735,2.7896,2.7413,2.7218,2.6243,2.6213,2.6589,2.4744,2.468,2.5371,2.4131,2.3627,2.3613,0.0,0.0,0.0,0.0,0.0,0.0,0.0,0.0,0.0,0.0,0.0,0.0,0.0,0.0,0.0,0.0,0.0,0.0,0.0,0.0,0.0,0.9841,1.0502,1.0558,0.9856,1.0224,1.0234,0.9902,0.9937,0.9823,0.9508,0.9231,0.8959,0.876,0.859,0.889,0.9482,0.8971,0.8809,0.8938,0.8779,0.0,0.0,0.0,0.0,0.0,0.0,0.0,0.0,1.0254,1.0304,1.0187,1.0432,0.0,0.0,0.0,0.0,0.0,1.2856,1.342,1.389,1.4625,1.4605,1.4461,1.4677,0.0,0.0,0.0,0.0,0.0,0.0,1.9029,1.9619,0.0,2.22,2.3856,2.5272,2.6062,2.6573,2.6766,2.7106,2.7501,2.8094,2.8374,2.8992,3.0091,3.017,3.0261,3.0532,3.0352,3.0182,3.0023,2.9772,2.9669,2.9623,2.9555,2.9613,2.9772,2.9226,2.8986,2.9063,2.919,2.9096,2.8803,2.8623,2.8555,2.8451,2.7453,2.7191,2.7285,2.5832,2.5265,2.5164,2.456,2.422,2.3949,0.0,0.0,0.0,0.0,0.0,0.0,0.0,0.0,0.0,0.0,0.0,0.0,0.0,0.0,0.0,0.0,0.0,0.0,0.0,0.0,0.9174,0.9052,0.9423,0.9587,0.9446,0.9662,0.9521,0.8997,0.9165,0.9073,0.8709,0.8658,0.8698,0.8846,0.8502,0.8644,0.9074,0.8611,0.854,0.8674,0.0,0.0,0.0,0.0,0.0,0.0,0.0,0.0,0.0,0.0,1.0497,1.0311,1.0879,0.0,0.0,0.0,0.0,0.0,1.2617,1.3001,1.3302,1.4158,1.4756,1.5176,1.5317,0.0,0.0,0.0,0.0,0.0,0.0,0.0,2.045,2.2173,2.2888,2.3625,2.4946,2.5519,2.599,2.6519,2.6791,2.7086,2.7555,2.8097,2.8622,2.9207,2.9613,2.9897,2.9988,3.0045,2.992,2.968,2.9806,2.976,2.9485,2.9634,2.9691,2.9691,2.9193,2.893,2.8932,2.8484,2.8228,2.8128,2.7778,2.7533,2.7361,2.6677,2.6352,2.6197,2.5207,2.4917,2.4956,2.4357,2.3861,2.3345,0.0,0.0,0.0,0.0,0.0,0.0,0.0,0.0,0.0,0.0,0.0,0.0,0.0,0.0,0.0,0.0,0.0,0.0,0.0,0.0,0.8325,0.8284,0.8326,0.8535,0.8864,0.902,0.8774,0.8195,0.8482,0.8444,0.8058,0.8123,0.8309,0.8677,0.8354,0.8382,0.8671,0.8422,0.8334,0.8447,0.0,0.0,0.0,0.0,0.0,0.0,0.0,0.0,0.0,0.0,0.0,0.0,0.0,0.0,0.0,1.1948,1.1831,1.1683,1.2498,1.2793,1.307,1.4024,1.4872,1.556,1.5948,0.0,0.0,0.0,0.0,0.0,0.0,1.9574,2.1453,2.3488,2.3553,2.3691,2.4847,2.5088,2.5436,2.6195,2.6342,2.6595,2.7183,2.7832,2.8276,2.8387,2.9205,2.9623,2.9588,2.9794,2.9794,2.9588,2.9806,2.9749,2.9317,2.9635,2.9691,2.9393,2.8958,2.8754,2.8689,2.7853,2.7526,2.7563,2.6962,2.6584,2.6355,2.5844,2.5538,2.5265,2.4752,2.4631,2.4715,2.3987,2.3193,2.2327,0.0,0.0,0.0,0.0,0.0,0.0,0.0,0.0,0.0,0.0,0.0,0.0,0.0,0.0,0.0,0.0,0.0,0.0,0.0,0.0,0.7541,0.74,0.756,0.7621,0.7549,0.8135,0.8165,0.7577,0.814,0.8263,0.8,0.7758,0.767,0.7694,0.7858,0.8179,0.8586,0.8569,0.8564,0.8569,0.8243,0.0,0.0,0.0,0.0,0.0,0.0,0.0,0.0,0.0,0.0,0.0,0.0,0.0,1.1734,1.2016,1.1998,1.1974,1.2415,1.3068,1.3742,1.4247,1.4458,0.0,1.5853,1.5921,0.0,1.6715,0.0,0.0,0.0,2.0545,2.2231,2.367,2.423,2.4934,2.6281,2.6077,2.6001,2.653,2.6042,2.6023,2.6907,2.7469,2.7922,2.8353,2.9478,3.0091,2.9886,2.9897,2.9886,2.9886,2.9405,2.9044,2.8768,2.9261,2.9393,2.9128,2.8857,2.8607,2.843,2.8082,2.7839,2.7563,2.7159,2.691,2.6778,2.6104,2.5729,2.5654,2.5596,2.5145,2.4362,2.3661,2.2436,2.1029,0.0,0.0,0.0,0.0,0.0,0.0,0.0,0.0,0.0,0.0,0.0,0.0,0.0,0.0,0.0,0.0,0.0,0.0,0.0,0.6372,0.6447,0.6315,0.644,0.6505,0.6388,0.7438,0.7644,0.6945,0.7259,0.7467,0.7612,0.7609,0.7654,0.7777,0.7861,0.8006,0.816,0.8029,0.7927,0.7826,0.7722,0.7563,0.0,0.0,0.0,0.0,0.0,0.0,0.0,0.0,1.0487,1.08,1.1415,1.1818,1.2091,1.2087,1.204,1.2016,1.2265,1.2755,1.3298,1.3614,1.4324,0.0,0.0,1.6809,1.6852,1.6767,1.8009,0.0,0.0,0.0,2.2384,2.332,2.4211,2.4904,2.5261,2.5635,2.5956,2.6137,2.5931,2.5964,2.6462,2.7379,2.8075,2.8386,2.9421,3.0011,3.0091,3.0091,3.0011,2.9886,2.9659,2.9206,2.8522,2.8845,2.8656,2.7985,2.8044,2.803,2.792,2.7044,2.66,2.6551,2.6385,2.6222,2.6043,2.6026,2.5678,2.5147,2.4959,2.4551,2.3958,2.3396,2.2139,2.0689,0.0,0.0,0.0,0.0,0.0,0.0,0.0,0.0,0.0,0.0,0.0,0.0,0.0,0.0,0.0,0.0,0.0,0.0,0.5368,0.5606,0.5671,0.5553,0.5676,0.5789,0.583,0.6771,0.7016,0.6486,0.673,0.7008,0.7285,0.7456,0.7595,0.7645,0.7748,0.7758,0.7692,0.7593,0.7465,0.7405,0.7349,0.7312,0.0,0.0,0.0,0.0,0.0,0.0,0.0,0.0,1.0481,1.0887,1.1446,1.1855,1.2091,1.213,1.2074,1.2095,1.2337,1.2599,1.2983,1.3587,0.0,0.0,1.6792,1.7248,1.7371,1.7428,1.8762,2.0326,2.1652,0.0,2.2482,2.2999,2.3896,2.4564,2.4602,2.5226,2.5708,2.5749,2.588,2.6063,2.6199,2.7269,2.8034,2.8236,2.9249,2.9862,2.984,2.9941,2.9827,2.9544,2.9424,2.8973,2.8154,2.8358,2.8059,2.7173,2.7283,2.7447,2.756,2.6429,2.5937,2.5986,2.5761,2.5538,2.537,2.564,2.5365,2.4766,2.4291,2.3817,2.3383,2.3021,2.1871,2.0483,0.0,0.0,0.0,0.0,0.0,0.0,0.0,0.0,0.0,0.0,0.0,0.0,0.0,0.0,0.0,0.0,0.0,0.0,0.5049,0.523,0.5311,0.5192,0.539,0.5632,0.587,0.6175,0.63,0.63,0.6752,0.6981,0.6988,0.7353,0.7363,0.7129,0.7458,0.7474,0.7296,0.7351,0.7409,0.739,0.7185,0.6958,0.686,0.0,0.0,0.0,0.0,0.0,0.0,0.0,1.0137,1.0887,1.1254,1.1552,1.176,1.2101,1.2155,1.222,1.2652,1.2745,1.3047,0.0,0.0,0.0,1.6627,1.6952,1.7449,1.8976,1.9984,2.0719,2.111,2.1897,2.2575,2.276,2.3351,2.4017,2.4679,2.5018,2.5286,2.5459,2.5909,2.6196,2.6199,2.7029,2.7725,2.7962,2.9116,2.9579,2.9136,2.9337,2.9251,2.8712,2.8507,2.8128,2.7606,2.7835,2.7619,2.6884,2.6691,2.6824,2.7249,2.6563,2.6201,2.6159,2.5508,2.5144,2.4971,2.4857,2.4811,2.4703,2.3851,2.3184,2.2647,2.2419,2.1554,2.0429,0.0,0.0,0.0,0.0,0.0,0.0,0.0,0.0,0.0,0.0,0.0,0.0,0.0,0.0,0.0,0.0,0.0,0.0,0.4389,0.4328,0.4341,0.4506,0.4631,0.4901,0.5345,0.5777,0.6071,0.6175,0.6341,0.6392,0.6325,0.6816,0.6979,0.6834,0.7236,0.7285,0.717,0.7019,0.691,0.6789,0.6811,0.675,0.6731,0.0,0.0,0.0,0.0,0.0,0.0,0.0,0.0,0.0,1.116,1.1667,1.2056,1.2004,1.2332,1.2699,1.2606,1.323,0.0,1.4202,0.0,0.0,0.0,1.6952,0.0,0.0,1.9389,1.9669,2.1668,2.1949,2.2058,2.2652,2.3335,2.374,2.3634,2.4259,2.4854,2.5253,2.5639,2.6106,2.6652,2.7429,2.7908,2.7972,2.8494,2.8767,2.8614,2.8669,2.8644,2.8485,2.7929,2.7552,2.7375,2.6792,2.633,2.5976,2.5711,2.6152,2.706,2.6476,2.6124,2.5951,2.5581,2.5308,2.5147,2.505,2.5125,2.527,2.4977,2.4084,2.2975,2.3057,2.176,1.9922,0.0,0.0,0.0,0.0,0.0,0.0,0.0,0.0,0.0,0.0,0.5562,0.5578,0.0,0.0,0.0,0.0,0.0,0.0,0.0,0.3999,0.4025,0.4283,0.4342,0.4687,0.5274,0.5607,0.5829,0.5993,0.6117,0.6162,0.6084,0.6655,0.6917,0.6828,0.7284,0.7328,0.7094,0.6915,0.6663,0.6439,0.6752,0.6708,0.6592,0.0,0.0,0.0,0.0,0.0,0.0,0.0,0.0,0.0,1.0936,1.14,1.187,1.1977,1.2277,1.2661,1.3126,1.3697,0.0,1.483,1.5563,1.628,1.6661,0.0,0.0,0.0,1.9259,1.9524,2.1639,2.1851,2.1886,2.2483,2.3073,2.3429,2.3215,2.3991,2.4631,2.4801,2.5317,2.5859,2.6418,2.6951,2.7417,2.7702,2.8052,2.8211,2.8091,2.8091,2.7958,2.7626,2.7259,2.6903,2.6576,2.6122,2.591,2.585,2.5338,2.5657,2.6704,2.5814,2.5422,2.5468,2.5371,2.5176,2.4898,2.4739,2.4661,2.4665,2.4319,2.358,2.2685,2.2486,2.1589,2.0263,0.0,0.0,0.5491,0.5376,0.0,0.0,0.0,0.0,0.0,0.0,0.516,0.5267,0.0,0.0,0.0,0.0,0.0,0.0,0.0,0.0,0.4155,0.4384,0.446,0.4815,0.5521,0.5518,0.5614,0.5768,0.6027,0.6157,0.6163,0.6738,0.698,0.6978,0.7454,0.7428,0.7047,0.6913,0.6676,0.6391,0.6893,0.6781,0.6468,0.7648,0.0,0.0,0.0,0.0,0.0,0.0,0.0,0.0,1.0689,1.1042,1.1478,1.2048,1.2116,1.2379,1.3894,1.4122,0.0,1.5872,1.6171,0.0,1.6999,1.7643,1.8276,1.9073,0.0,1.998,2.1194,2.1631,2.1977,2.2339,2.2745,2.3075,2.3261,2.4011,2.4514,2.4332,2.4928,2.548,2.575,2.5995,2.642,2.7099,2.7546,2.7683,2.7411,2.7454,2.7166,2.6456,2.6467,2.6177,2.5538,2.5728,2.5945,2.6163,2.5285,2.5312,2.6065,2.4874,2.4584,2.4964,2.5023,2.4889,2.4543,2.4185,2.3838,2.3489,2.2759,2.2323,2.2097,2.1401,2.1168,2.0962,0.0,0.0,0.4992,0.5064,0.0,0.0,0.0,0.0,0.0,0.0,0.0,0.0,0.0,0.0,0.0,0.0,0.0,0.0,0.0,0.0,0.4036,0.4384,0.4851,0.5049,0.4896,0.5503,0.5674,0.54,0.5781,0.5873,0.5681,0.6567,0.6816,0.6489,0.7145,0.7182,0.6695,0.6666,0.6602,0.6578,0.6929,0.6974,0.6845,0.7718,0.7873,0.0,0.0,0.0,0.0,0.0,0.0,0.0,1.0845,1.1436,1.2013,1.2155,1.2635,1.3258,1.3663,1.4222,0.0,0.0,1.6422,1.675,1.6915,1.732,1.783,1.8605,1.9183,1.9846,2.07,2.1496,2.2136,2.2488,2.2823,2.3075,2.3261,2.3461,2.3783,2.4325,2.4812,2.52,2.5469,2.5698,2.5831,2.5887,2.6136,2.6181,2.6026,2.6342,2.6382,2.6021,2.5675,2.558,2.5812,2.5338,2.5126,2.5189,2.4795,2.46,2.4676,2.5269,2.5767,2.6061,2.5068,2.487,2.5206,2.4446,2.4219,2.4239,2.3704,2.3159,2.2618,2.2236,2.1281,2.0008,0.0,0.0,0.0,0.0,0.0,0.0,0.0,0.0,0.0,0.0,0.0,0.0,0.0,0.4293,0.0,0.0,0.3736,0.3637,0.38,0.3882,0.4075,0.4384,0.4867,0.4981,0.474,0.5176,0.5334,0.5213,0.5379,0.5461,0.5424,0.6147,0.6379,0.6294,0.6969,0.7108,0.6827,0.6867,0.683,0.6764,0.7249,0.721,0.6988,0.7741,0.7897,0.7731,0.822,0.0,0.0,0.0,0.0,0.0,0.0,0.0,1.1862,1.2362,1.2636,1.2996,1.4055,0.0,0.0,1.5951,0.0,1.683,1.7003,1.7289,1.7665,1.8316,1.9049,1.987,2.0849,2.1659,2.2273,2.2593,2.3095,2.3409,2.3298,2.3641,2.3988,2.4249,2.4394,2.4637,2.5112,2.5108,2.5133,2.5282,2.5821,2.6065,2.5915,2.6229,2.6271,2.6041,2.5717,2.5549,2.5549,2.52,2.5147,2.5369,2.4633,2.4428,2.4661,2.5051,2.5416,2.5706,2.4861,2.469,2.4941,2.4068,2.3701,2.3624,2.3178,2.2828,2.253,2.1704,2.0953,2.0155,0.0,0.0,0.0,0.0,0.0,0.0,0.0,0.0,0.0,0.0,0.0,0.0,0.0,0.3953,0.378,0.0,0.0,0.0,0.3673,0.3928,0.4176,0.4384,0.4689,0.4781,0.4721,0.4859,0.498,0.5074,0.5061,0.5129,0.5323,0.5729,0.6061,0.6245,0.6824,0.706,0.7023,0.7122,0.7061,0.6992,0.7501,0.7418,0.7088,0.7749,0.7825,0.7653,0.8203,0.869,0.9123,0.9729,0.0,0.0,0.0,0.0,1.1667,1.2604,1.2556,1.2613,1.4447,0.0,1.4942,1.6043,1.6493,0.0,1.7132,1.7417,1.7769,1.8202,1.8916,1.9791,2.0922,2.1728,2.2328,2.262,2.3353,2.3787,2.3519,2.4043,2.4418,2.4298,2.4152,2.4251,2.4711,2.4569,2.4616,2.5059,2.5802,2.6192,2.6105,2.6255,2.6255,2.6022,2.5806,2.5557,2.5285,2.5285,2.5402,2.5666,2.4632,2.4479,2.5058,2.4666,2.4684,2.5005,2.445,2.4311,2.443,2.3452,2.2969,2.2794,2.2277,2.2155,2.2113,2.0755,2.0459,2.0444,0.0,0.0,0.0,0.0,0.0,0.0,0.0,0.0,0.0,0.0,0.4131,0.4122,0.3816,0.3804,0.3606,0.3147,0.337,0.3449,0.3275,0.0,0.0,0.438,0.4484,0.4541,0.4447,0.4853,0.5058,0.5,0.5174,0.0,0.0,0.0,0.0,0.6295,0.6853,0.6957,0.6669,0.6876,0.7022,0.7169,0.7233,0.7352,0.7422,0.7558,0.0,0.7963,0.8298,0.8768,0.9322,0.9766,1.04,0.0,0.0,0.0,1.2251,1.2776,1.2978,1.3252,1.4176,0.0,1.5939,0.0,1.6727,1.7132,0.0,0.0,1.8202,1.8303,1.8798,1.9383,1.9924,2.1112,2.2183,2.2537,2.3204,2.3787,2.4273,2.4273,2.4322,2.4612,2.4647,2.4597,2.4328,2.4453,2.4723,2.506,2.524,2.5384,2.5566,2.5429,2.5316,2.5333,2.5087,2.5117,2.5559,2.5559,2.5253,2.4676,2.45,2.462,2.4919,2.4609,2.4927,2.5591,2.381,2.358,2.443,2.3286,2.2925,2.2965,2.2155,2.1805,2.165,2.0457,1.9839,1.9432,0.0,0.0,0.0,0.0,0.0,0.0,0.0,0.0,0.0,0.0,0.0,0.3589,0.3551,0.3432,0.3258,0.3061,0.328,0.3516,0.3711,0.3788,0.4003,0.4335,0.4385,0.4443,0.4634,0.478,0.4938,0.5071,0.0,0.0,0.0,0.5734,0.5927,0.0,0.0,0.6551,0.6595,0.6695,0.6977,0.7387,0.7368,0.7624,0.8008,0.0,0.0,0.0,0.0,0.0,0.9385,0.9879,1.0513,1.1149,1.1484,0.0,0.0,0.0,1.3007,1.3312,1.4404,1.563,1.667,0.0,1.7335,1.7757,1.7932,1.8359,1.8645,1.8464,1.9207,2.001,2.0271,2.1456,2.2464,2.2648,2.3264,2.3824,2.397,2.4309,2.4598,2.4718,2.467,2.4574,2.4381,2.4202,2.4204,2.4453,2.4514,2.4678,2.5017,2.4671,2.4581,2.4979,2.4662,2.4628,2.4978,2.5115,2.508,2.4842,2.4327,2.448,2.5127,2.4296,2.4272,2.482,2.354,2.3354,2.3894,2.3109,2.2706,2.2511,2.2102,2.1796,2.141,2.023,1.9676,1.936,0.0,0.0,0.0,0.0,0.0,0.0,0.0,0.0,0.0,0.0,0.0,0.3116,0.3188,0.0,0.0,0.0,0.319,0.3541,0.403,0.3855,0.3946,0.4342,0.4336,0.4462,0.4783,0.4733,0.4849,0.5063,0.0,0.0,0.5676,0.571,0.5902,0.0,0.6291,0.6513,0.0,0.0,0.0,0.0,0.0,0.0,0.0,0.0,0.0,0.0,0.0,0.0,0.0,0.0,1.07,1.1298,1.1595,1.184,0.0,0.0,0.0,1.3247,0.0,0.0,1.6643,1.7342,1.7782,1.8247,0.0,1.9092,1.9219,1.8937,1.9778,2.0619,2.0892,2.1814,2.26,2.2868,2.3446,2.3849,2.3948,2.4406,2.4754,2.4921,2.4718,2.4574,2.449,2.4202,2.4039,2.4191,2.4116,2.4196,2.447,2.3902,2.3881,2.454,2.4195,2.4221,2.4669,2.469,2.4836,2.5033,2.4147,2.4123,2.4893,2.3785,2.3383,2.3524,2.3105,2.3021,2.3211,2.2796,2.2362,2.1989,2.1776,2.1513,2.1078,1.969,1.9249,1.9178,0.0,0.0,0.0,0.0,0.0,0.0,0.0,0.0,0.0,0.0,0.0,0.2977,0.2659,0.2972,0.2993,0.2496,0.2898,0.3406,0.3883,0.3713,0.387,0.448,0.4361,0.0,0.4709,0.4768,0.4853,0.0,0.0,0.0,0.5902,0.6,0.6469,0.7142,0.6953,0.7065,0.748,0.0,0.0,0.0,0.0,0.0,0.0,0.0,0.0,0.0,0.0,0.0,0.0,0.0,0.0,0.0,1.1706,1.1886,1.2133,0.0,0.0,0.0,0.0,1.4993,0.0,1.7089,1.7782,1.8359,1.9331,1.9837,2.0109,1.9972,2.0324,2.0857,2.1441,2.1807,2.2382,2.3368,2.3604,2.3911,2.4791,2.4683,2.4694,2.5206,2.4981,2.4718,2.4538,2.4696,2.4808,2.4672,2.4252,2.3946,2.3859,2.3167,2.3094,2.3828,2.3659,2.404,2.5147,2.454,2.4441,2.4921,2.3914,2.3474,2.3596,2.3021,2.2424,2.1857,2.2274,2.2451,2.2426,2.2239,2.1963,2.1658,2.0888,2.0663,2.0523,1.8674,1.8302,1.8543,0.0,0.0,0.0,0.0,0.0,0.0,0.0,0.0,0.0,0.0,0.0,0.0,0.0,0.284,0.2958,0.2621,0.2958,0.3341,0.3614,0.3671,0.3836,0.4235,0.4418,0.4739,0.5285,0.5056,0.5134,0.0,0.0,0.5518,0.6141,0.6347,0.6769,0.7377,0.7285,0.7391,0.7702,0.7622,0.0,0.0,0.0,0.0,0.0,0.0,0.0,0.0,0.0,0.0,0.0,0.0,0.0,0.0,0.0,0.0,0.0,0.0,0.0,0.0,0.0,0.0,0.0,1.7279,1.8203,1.8983,1.9502,2.0224,2.0715,2.0477,2.1009,2.1553,2.1815,2.1837,2.2106,2.3073,2.3335,2.3556,2.402,2.4116,2.4261,2.473,2.4334,2.4007,2.3934,2.365,2.3451,2.3403,2.3026,2.281,2.2924,2.2271,2.226,2.294,2.3062,2.3495,2.4294,2.3754,2.3668,2.4004,2.3452,2.3239,2.3219,2.2737,2.2218,2.1695,2.135,2.1475,2.1954,2.1874,2.1452,2.0827,2.0401,1.9922,1.9346,1.838,1.7964,1.7741,0.0,0.0,0.0,0.0,0.0,0.3426,0.0,0.0,0.0,0.0,0.0,0.0,0.0,0.0,0.3073,0.3071,0.3281,0.3522,0.3799,0.3895,0.4051,0.4306,0.4566,0.489,0.5401,0.5135,0.0,0.0,0.0,0.0,0.0,0.6602,0.7061,0.7718,0.7723,0.7901,0.0,0.0,0.0,0.8708,0.0,0.0,0.9727,0.0,0.0,0.0,0.0,0.0,0.0,0.0,0.0,0.0,0.0,0.0,0.0,0.0,0.0,0.0,1.4678,0.0,0.0,1.7324,1.8095,1.8923,1.9736,2.0467,2.0958,2.1081,2.1477,2.1882,2.2074,2.1882,2.1996,2.2962,2.3261,2.3482,2.3666,2.3751,2.3897,2.4164,2.3824,2.3567,2.3409,2.3113,2.2852,2.2703,2.2402,2.2176,2.2101,2.1837,2.1987,2.259,2.2937,2.3215,2.344,2.3057,2.2928,2.3019,2.2707,2.2441,2.227,2.1976,2.1462,2.0811,2.043,2.0687,2.1356,2.1085,2.0713,2.0333,2.0018,1.954,1.8891,1.821,1.7647,1.7113,0.0,0.4107,0.3963,0.3933,0.3864,0.3625,0.309,0.0,0.0,0.0,0.0,0.0,0.0,0.0,0.0,0.3747,0.3783,0.3964,0.4359,0.4398,0.4525,0.4793,0.4801,0.4858,0.5015,0.5018,0.5129,0.0,0.5321,0.5747,0.0,0.0,0.733,0.8102,0.8327,0.8627,0.9003,0.0,0.9099,0.9324,0.0,0.9903,0.9824,0.0,0.0,0.0,1.1249,1.1445,0.0,1.1651,0.0,0.0,0.0,0.0,0.0,0.0,0.0,0.0,0.0,0.0,0.0,1.7107,1.745,1.8032,2.0061,2.0558,2.0818,2.17,2.1773,2.182,2.2216,2.1976,2.2069,2.311,2.3446,2.3641,2.3847,2.3689,2.359,2.3601,2.3601,2.3453,2.3045,2.3194,2.3119,2.2746,2.252,2.2143,2.1543,2.1883,2.2322,2.2819,2.3232,2.3242,2.2803,2.253,2.2264,2.2052,2.1616,2.1105,2.0591,2.0637,2.0069,1.909,1.9516,2.0084,2.0558,1.9765,1.9765,2.0189,1.9661,1.9419,1.9211,1.8022,1.7297,1.6734,0.4381,0.4102,0.3926,0.4074,0.3932,0.3625,0.309,0.0,0.0,0.0,0.0,0.0,0.0,0.0,0.3316,0.357,0.357,0.3642,0.3751,0.4112,0.4353,0.4423,0.4767,0.5098,0.5443,0.5285,0.5553,0.6251,0.5902,0.6173,0.7026,0.7253,0.7599,0.8102,0.8599,0.8908,0.898,0.8861,0.0,0.9324,0.9817,1.0161,0.0,0.0,0.0,0.0,0.0,1.1886,1.2071,0.0,1.2417,1.2078,0.0,0.0,0.0,0.0,0.0,0.0,1.4424,0.0,0.0,0.0,0.0,0.0,1.8242,1.9325,2.0372,2.103,2.1424,2.1786,2.2296,2.2338,2.2371,2.2627,2.2703,2.2934,2.3482,2.3373,2.3426,2.3889,2.3698,2.3552,2.3592,2.3187,2.2899,2.278,2.2591,2.2351,2.2,2.2244,2.2675,2.3303,2.3093,2.2925,2.2803,2.2407,2.182,2.1105,2.1096,2.0736,2.0093,1.9732,1.9198,1.8592,1.8146,1.8164,1.8386,1.8677,1.8762,1.8666,1.8374,1.8116,1.7833,1.7284,1.6542,1.5686,0.434,0.4208,0.4145,0.4308,0.4169,0.3924,0.0,0.0,0.0,0.0,0.0,0.0,0.0,0.0,0.0,0.3984,0.3984,0.4021,0.4136,0.4344,0.4492,0.4568,0.4784,0.5054,0.5479,0.5359,0.5659,0.6424,0.6087,0.632,0.7168,0.7208,0.7561,0.8106,0.845,0.8713,0.0,0.0,0.0,0.0,1.0027,0.0,0.0,1.0926,1.1433,0.0,0.0,0.0,1.2253,1.2892,1.2699,0.0,0.0,0.0,0.0,0.0,0.0,0.0,0.0,0.0,0.0,1.5823,0.0,0.0,1.794,1.8922,1.9952,2.106,2.1495,2.1802,2.2199,2.2254,2.2167,2.202,2.2087,2.2385,2.3004,2.3257,2.3406,2.3656,2.357,2.3411,2.3253,2.2713,2.2392,2.2523,2.2208,2.2016,2.1994,2.2067,2.2322,2.2893,2.2538,2.2353,2.2353,2.1776,2.1239,2.0699,2.06,2.0192,1.96,1.915,1.8483,1.7597,1.7074,1.6624,1.6271,1.668,1.7246,1.7842,1.7741,1.7387,1.6873,1.6696,1.601,1.4963,0.0,0.4326,0.449,0.4529,0.4473,0.4364,0.0,0.0,0.0,0.0,0.0,0.0,0.0,0.0,0.0,0.0,0.4623,0.4701,0.4898,0.4779,0.0,0.0,0.0,0.0,0.0,0.5398,0.5692,0.6254,0.6097,0.641,0.7124,0.7067,0.7423,0.814,0.8217,0.8403,0.8742,0.898,0.0,0.9678,1.0313,1.0555,0.0,0.0,1.1294,1.1533,1.1986,1.2145,1.226,1.3006,1.2936,0.0,0.0,0.0,0.0,0.0,1.305,0.0,0.0,0.0,0.0,0.0,1.5894,0.0,1.8189,1.8761,1.9377,2.1005,2.1388,2.1521,2.1695,2.162,2.1447,2.1167,2.1417,2.1858,2.2494,2.315,2.3408,2.3073,2.319,2.3112,2.2573,2.2079,2.19,2.2059,2.1656,2.1527,2.1768,2.1614,2.1705,2.2132,2.183,2.1696,2.1687,2.106,2.0654,2.0609,2.0065,1.9563,1.9096,1.8734,1.7781,1.6364,1.6227,1.5533,1.4464,1.4578,1.5641,1.7277,1.7331,1.6908,1.6212,1.6174,1.5494,1.4434,0.4472,0.4442,0.4478,0.4697,0.4696,0.0,0.0,0.0,0.0,0.0,0.0,0.0,0.0,0.0,0.0,0.0,0.4116,0.4235,0.4275,0.4545,0.0,0.0,0.0,0.0,0.0,0.0,0.6232,0.6532,0.6742,0.7053,0.7421,0.7725,0.8052,0.8365,0.8865,0.9018,0.8984,0.9511,0.0,0.9852,1.0116,1.0537,1.1047,1.1041,1.1476,1.2099,1.2312,1.2408,1.2434,1.2963,1.3194,1.3214,0.0,0.0,0.0,1.2883,0.0,0.0,0.0,0.0,0.0,0.0,1.5576,0.0,1.6102,1.6947,1.7775,1.8235,1.8866,1.9359,1.9479,1.9624,1.9661,1.9557,2.0069,2.0795,2.1841,2.2278,2.2556,2.2696,2.2737,2.2777,2.2818,2.2507,2.2278,2.2123,2.1671,2.1644,2.2221,2.1878,2.1871,2.2353,2.1785,2.1553,2.1704,2.1051,2.0473,2.0065,1.9563,1.9042,1.8519,1.7659,1.6638,1.5545,1.5383,1.493,1.4271,1.4505,1.5045,1.5763,1.5928,1.5899,1.5698,1.5268,1.4594,1.3742,0.4635,0.4658,0.4725,0.492,0.0,0.0,0.0,0.0,0.0,0.0,0.0,0.0,0.0,0.0,0.0,0.0,0.0,0.0,0.0,0.0,0.0,0.0,0.0,0.0,0.0,0.0,0.6489,0.6834,0.7034,0.7312,0.7589,0.7855,0.8177,0.8576,0.888,0.9071,0.9169,0.0,0.9884,1.0067,1.0325,1.0857,1.1418,1.1247,1.1702,1.2382,1.239,1.2663,1.304,1.3344,1.3431,0.0,1.3289,1.34,1.3504,0.0,1.3643,1.4096,0.0,0.0,0.0,1.4858,1.5096,0.0,0.0,1.6704,1.7414,1.7906,1.854,1.8996,1.8858,1.8916,1.89,1.8576,1.9168,1.9702,1.9707,2.1205,2.2281,2.2205,2.239,2.2493,2.2339,2.1884,2.1485,2.1233,2.1425,2.141,2.1186,2.1275,2.1365,2.1365,2.115,2.106,2.0997,2.0555,2.0017,1.9434,1.9007,1.8392,1.756,1.685,1.5913,1.4916,1.4537,1.4145,1.377,1.3499,1.3561,1.3888,1.4691,1.4936,1.4781,1.4038,1.3459,1.2931,0.4748,0.4854,0.4975,0.5035,0.0,0.0,0.0,0.0,0.0,0.0,0.0,0.0,0.0,0.0,0.0,0.0,0.0,0.0,0.0,0.0,0.0,0.0,0.0,0.5763,0.0,0.0,0.0,0.7106,0.7317,0.7553,0.7829,0.7925,0.826,0.0,0.0,0.0,0.0,0.0,0.0,1.0406,1.0812,1.1223,1.1589,1.1538,1.192,1.2489,1.2526,1.3017,1.366,1.3821,1.3719,1.3504,1.3656,1.375,0.0,0.0,0.0,0.0,0.0,0.0,0.0,0.0,0.0,1.5135,0.0,0.0,0.0,1.7769,1.8322,1.8592,1.827,1.8193,1.8012,1.7596,1.8255,1.8462,1.7531,1.9832,2.1516,2.1179,2.1742,2.1988,2.1531,2.0902,2.0481,2.0458,2.0854,2.0755,2.0019,2.0411,2.0546,2.0292,2.0473,2.0473,2.0382,1.9997,1.9495,1.8929,1.8528,1.7788,1.6771,1.629,1.5493,1.448,1.3822,1.3428,1.3188,1.2432,1.2195,1.2454,1.3523,1.3886,1.3703,1.2798,1.2431,1.2205,0.4965,0.4995,0.5035,0.4868,0.0,0.0,0.0,0.0,0.0,0.0,0.0,0.0,0.0,0.0,0.0,0.0,0.0,0.0,0.55,0.0,0.0,0.0,0.0,0.0,0.6733,0.0,0.0,0.7173,0.7925,0.8286,0.8317,0.8495,0.8838,0.0,0.9471,0.0,0.0,0.0,1.0691,1.1037,1.1446,1.1446,1.1236,1.165,1.1933,1.2187,1.3046,1.3557,1.3821,1.4156,1.4207,1.4088,1.3453,1.3778,1.4276,1.3554,0.0,0.0,0.0,0.0,0.0,0.0,1.5168,1.5343,1.5161,0.0,1.5921,1.5773,0.0,1.6116,1.6151,0.0,0.0,1.6169,1.6643,1.6938,1.6728,1.7958,1.8848,1.8776,2.0147,2.0908,2.0429,2.004,2.0111,2.0845,1.9706,1.9314,2.0229,1.9691,1.9691,2.0292,2.011,2.0201,2.0654,1.9869,1.9184,1.8742,1.8208,1.7535,1.6691,1.6109,1.5283,1.431,1.364,1.3088,1.2631,1.2082,1.2087,1.2441,1.2316,1.251,1.276,1.2031,1.1875,1.1894,0.5457,0.5455,0.5482,0.5339,0.0,0.0,0.0,0.0,0.0,0.0,0.0,0.0,0.0,0.0,0.0,0.0,0.0,0.6016,0.0,0.0,0.0,0.0,0.0,0.0,0.0,0.0,0.0,0.0,0.7929,0.8248,0.8365,0.8841,0.913,0.0,0.98,0.0,1.0224,0.0,1.1059,1.1212,1.1934,1.2018,1.1771,1.2158,1.2417,1.2599,1.3273,1.3564,1.3689,1.4097,1.4044,1.3822,1.3792,1.4148,0.0,1.376,0.0,0.0,0.0,0.0,1.3921,1.4177,1.4576,1.4879,1.489,1.5458,1.5895,1.5669,0.0,0.0,0.0,0.0,0.0,0.0,1.619,1.6474,1.5921,1.7124,1.8033,1.8004,1.8889,1.9449,1.9344,1.9457,1.9635,1.9826,1.9449,1.9301,1.9401,1.9279,1.9325,1.9646,1.9554,1.941,1.9331,1.9298,1.8608,1.7308,1.7364,1.652,1.4958,1.4875,1.42,1.3133,1.2929,1.2654,1.2321,1.1832,1.1585,1.1494,1.1142,1.1483,1.2035,1.1184,1.0964,1.0959,0.5999,0.0,0.0,0.0,0.0,0.0,0.0,0.0,0.0,0.0,0.0,0.0,0.5781,0.6008,0.0,0.0,0.6471,0.6709,0.0,0.0,0.6909,0.0,0.0,0.0,0.0,0.0,0.0,0.0,0.8105,0.844,0.8589,0.9132,0.9402,0.9437,0.0,1.0487,1.0741,0.0,1.1534,1.1727,1.2542,1.2804,1.2808,1.29,1.3066,1.3248,1.366,1.3719,1.3645,1.4022,1.3903,1.3594,1.3741,1.3985,1.4104,0.0,0.0,0.0,1.3598,1.36,1.3729,1.3956,1.4292,1.4627,1.4912,1.5383,1.5768,1.5781,1.6172,0.0,0.0,0.0,1.5735,0.0,0.0,1.6151,1.5266,1.6337,1.7178,1.7089,1.7666,1.814,1.8342,1.8724,1.8837,1.8652,1.8844,1.8913,1.8616,1.8624,1.8715,1.8896,1.8717,1.8454,1.8205,1.835,1.7738,1.6299,1.6549,1.5694,1.3886,1.4114,1.361,1.2529,1.2524,1.2363,1.2037,1.1658,1.1212,1.0767,1.0606,1.0807,1.1117,1.0356,1.0146,1.0113,0.6552,0.6091,0.0,0.0,0.0,0.0,0.0,0.0,0.0,0.0,0.0,0.0,0.0,0.0,0.0,0.0,0.0,0.8005,0.7841,0.0,0.7812,0.0,0.0,0.7533,0.0,0.0,0.0,0.0,0.867,0.9089,0.9284,0.9473,0.97,0.9906,1.0379,1.0757,1.1041,1.1613,1.2267,1.289,1.3291,1.379,1.4215,1.3963,1.3884,1.4005,1.4403,1.4236,1.3826,1.4036,1.3971,1.3665,1.2956,1.2964,1.3186,1.2828,1.31,1.3601,1.3977,1.4292,1.4569,1.4573,1.473,1.4944,1.5153,1.5043,1.509,1.5592,1.5621,1.5617,1.5755,0.0,0.0,0.0,0.0,0.0,0.0,1.5372,1.5694,1.5488,1.6353,1.7114,1.7488,1.7491,1.7532,1.7642,1.7421,1.7531,1.8099,1.7497,1.7453,1.8124,1.745,1.734,1.7933,1.7009,1.6502,1.6292,1.605,1.5366,1.4307,1.4469,1.4047,1.3067,1.2751,1.2245,1.1707,1.1572,1.1212,1.0804,1.1074,1.0682,0.9906,0.9483,0.9507,0.968,0.6578,0.0,0.0,0.0,0.0,0.0,0.0,0.6754,0.0,0.0,0.6993,0.0,0.0,0.7689,0.7843,0.0,0.0,0.8351,0.8164,0.8059,0.0,0.0,0.0,0.7723,0.0,0.0,0.0,0.0,0.0,0.8765,0.9099,0.9584,0.9836,0.0,0.0,1.145,0.0,0.0,0.0,0.0,1.4078,1.446,1.4683,1.4565,1.4235,1.394,1.4516,1.4321,1.3864,1.4287,1.4146,1.3811,1.3828,1.3829,1.3753,1.3504,1.3556,1.3717,1.3855,1.3881,1.3892,1.4049,1.4232,1.4478,1.4922,1.5056,1.5198,1.5626,1.5705,1.5612,1.5281,0.0,0.0,0.0,0.0,0.0,0.0,1.4692,1.4561,1.4364,1.5186,1.5822,1.5945,1.6509,1.6847,1.679,1.7337,1.7584,1.745,1.7342,1.719,1.6908,1.6679,1.6338,1.5997,1.6369,1.6114,1.5187,1.5382,1.4855,1.3654,1.3578,1.3083,1.2307,1.2502,1.2201,1.1598,1.2037,1.1644,1.0804,1.0947,1.0549,0.9922,0.993,0.9829,0.9622,0.6802,0.675,0.0,0.0,0.0,0.0,0.0,0.0,0.0,0.0,0.7706,0.0,0.8267,0.0,0.8355,0.0,0.8881,0.8877,0.8747,0.8788,0.0,0.8629,0.842,0.0,0.0,0.0,0.0,0.0,0.0,0.9068,0.9215,0.9846,1.006,0.0,0.0,1.1764,1.2366,1.3112,1.3635,0.0,1.4678,1.5028,1.5167,1.5302,1.4818,1.4141,1.4824,1.4628,1.4119,1.4538,1.4394,1.3984,1.4074,1.3992,1.3848,1.3645,1.3608,1.3608,1.3754,1.3754,1.3739,1.3855,1.4193,1.4597,1.4901,1.5103,1.5378,1.5778,1.5683,1.5511,1.5426,1.5393,0.0,0.0,0.0,0.0,0.0,1.4065,1.3665,1.3489,1.4255,1.4857,1.4967,1.5529,1.6023,1.6297,1.6713,1.6956,1.6869,1.6563,1.6227,1.5834,1.5535,1.5146,1.4598,1.5331,1.5226,1.4259,1.4566,1.4104,1.295,1.2921,1.254,1.1932,1.2404,1.2327,1.1814,1.2357,1.1981,1.1091,1.1196,1.0801,1.0127,1.0079,0.9958,0.9721,0.7138,0.7015,0.6843,0.0,0.692,0.713,0.6978,0.7773,0.8395,0.0,0.8914,0.9143,0.8981,0.8906,0.8956,0.9227,0.9393,0.9499,0.9499,0.974,0.0,0.0,0.9492,0.9513,0.9935,0.0,0.0,0.0,0.0,0.0,0.9635,1.0223,1.0406,0.0,1.1037,0.0,1.2431,1.3008,1.3743,1.4545,1.5151,1.5498,1.5654,1.6188,1.5627,1.4648,1.5372,1.5132,1.4554,1.4834,1.4636,1.4216,1.3719,1.3543,1.3492,1.3309,1.3229,1.3309,1.3717,1.3928,1.4057,1.4057,1.4618,1.5127,1.5073,1.5155,1.5439,1.6024,1.5576,1.5315,1.6048,1.5584,1.4987,0.0,0.0,0.0,0.0,1.3476,1.2963,1.288,1.355,1.4145,1.4497,1.457,1.5011,1.6008,1.5616,1.5615,1.6255,1.5224,1.4684,1.4896,1.4103,1.3739,1.3803,1.3959,1.3884,1.3566,1.3587,1.3149,1.2324,1.2542,1.2385,1.1928,1.2481,1.2534,1.2271,1.2531,1.2228,1.1599,1.1793,1.1322,1.0416,0.9917,0.9837,0.9874,0.7192,0.6927,0.6712,0.679,0.6915,0.7091,0.7461,0.789,0.835,0.0,0.9235,0.9611,0.9853,0.9695,0.9637,0.9732,0.9777,0.0,0.0,0.0,0.0,0.9809,0.9767,0.9941,1.0319,0.9914,0.9823,1.0042,0.0,0.0,0.9909,1.0155,1.0331,0.0,0.0,1.2139,1.3439,1.3837,1.4606,1.5504,1.5587,1.5539,1.5453,1.595,1.582,1.538,1.5795,1.5376,1.4645,1.5015,1.4775,1.4379,1.4311,1.4153,1.3956,1.3876,1.3775,1.3681,1.3754,1.3717,1.3637,1.3637,1.3992,1.4403,1.4803,1.4698,1.4774,1.5597,1.5203,1.4752,1.4811,1.4517,1.4125,0.0,0.0,0.0,0.0,1.3,1.2609,1.2349,1.2617,1.3026,1.3506,1.4004,1.4321,1.4395,1.5006,1.5223,1.4936,1.4556,1.416,1.3691,1.3404,1.3022,1.2563,1.2782,1.2962,1.306,1.2634,1.2426,1.2372,1.2257,1.203,1.1781,1.265,1.2534,1.1864,1.2741,1.2362,1.1238,1.1483,1.1072,1.0281,1.0167,0.9944,0.9702,0.7196,0.7102,0.7011,0.6986,0.7168,0.7418,0.7812,0.8073,0.8444,0.9043,0.9472,0.9767,0.9926,0.9926,0.9994,1.0168,1.0008,0.0,0.9908,0.0,0.0,1.0035,1.0199,1.0533,1.0972,1.0702,0.0,1.0608,0.0,0.0,1.0077,1.0247,1.0475,0.0,0.0,1.2158,1.3273,1.4093,1.502,1.5975,1.5982,1.5916,0.0,1.6209,1.6211,1.5982,1.606,1.5721,1.5279,1.5395,1.5165,1.479,1.4488,1.4246,1.4093,1.3992,1.3819,1.3681,1.3681,1.3608,1.3528,1.3556,1.3983,1.4421,1.4661,1.4744,1.4905,1.5316,1.4942,1.4667,1.4902,1.4255,1.3404,0.0,0.0,0.0,0.0,1.2044,1.1837,1.1798,1.1821,1.21,1.2718,1.3345,1.3824,1.4091,1.4292,1.4287,1.3926,1.3682,1.3293,1.2778,1.2717,1.2336,1.1651,1.2031,1.209,1.1755,1.1717,1.1612,1.1536,1.1542,1.1478,1.143,1.2247,1.2302,1.1822,1.2464,1.2221,1.1408,1.1088,1.0269,0.9396,0.9647,0.96,0.9471,0.7165,0.7366,0.7445,0.0,0.7521,0.7983,0.8263,0.8461,0.8782,0.9304,0.9868,1.0088,0.9816,0.9978,1.0176,1.043,1.0193,1.0095,1.0274,1.0515,1.0548,1.0417,1.0739,1.1181,1.1606,1.1623,1.1405,0.0,0.0,0.0,0.0,1.0417,1.07,0.0,0.0,0.0,0.0,1.4184,1.5305,1.6148,1.6252,1.6384,1.6464,1.6637,1.6637,1.6513,1.6322,1.6144,1.6016,1.574,1.5529,1.5211,1.4431,1.4152,1.4122,1.3917,1.3704,1.3535,1.3535,1.3513,1.352,1.3658,1.4197,1.4661,1.4586,1.4892,1.5184,1.5075,1.475,1.4693,1.5304,1.4042,1.2679,0.0,1.1435,1.1161,1.1245,1.1117,0.0,1.1279,1.1224,0.0,1.2002,1.2583,1.327,1.4079,1.3447,1.3041,1.3081,1.2664,1.2318,1.2117,1.2093,1.1756,1.1069,1.1518,1.13,1.0403,1.086,1.0821,1.039,1.076,1.0898,1.0858,1.155,1.1817,1.1717,1.1793,1.1741,1.1507,1.0386,0.9225,0.8291,0.8572,0.8756,0.8831,0.7156,0.747,0.0,0.0,0.7784,0.8549,0.9318,0.9607,0.976,0.9847,1.092,1.1365,1.0729,1.0907,1.0844,1.0392,1.046,1.0484,1.0309,1.0469,1.0666,1.0855,1.1095,1.1369,1.1692,1.1692,1.1533,0.0,0.0,0.0,0.0,1.0508,1.07,0.0,0.0,0.0,1.4119,1.5085,1.5895,1.6484,1.602,1.6232,1.678,1.6669,1.6846,1.7141,1.7099,1.648,1.5658,1.5532,1.529,1.501,1.4633,1.454,1.452,1.4173,1.387,1.3681,1.3747,1.3543,1.3386,1.35,1.3805,1.4121,1.4305,1.4232,1.4296,1.4685,1.4365,1.3892,1.3465,1.2237,1.1175,1.0827,1.1002,1.1167,1.1125,1.1287,1.1286,1.0935,1.0921,1.1023,1.1273,1.179,1.2145,1.221,1.222,1.2138,1.1987,1.1676,1.1595,1.1717,1.1842,1.1625,1.0942,1.0974,1.093,1.0859,1.0195,1.0041,1.0314,1.0396,1.0246,0.9958,1.0824,1.0772,1.0134,1.0686,1.0586,0.9961,0.8874,0.8282,0.7944,0.7222,0.6808,0.6776,0.7931,0.0,0.0,0.0,0.8831,0.9512,1.0309,1.1005,1.1319,1.0944,1.161,1.1929,1.1424,1.1694,1.1722,1.1289,1.1214,1.1118,1.0862,1.0829,1.0852,1.0994,1.107,1.142,1.2043,1.1921,1.1802,1.1707,1.1304,0.0,0.0,0.0,0.0,1.1784,0.0,1.3122,1.4627,1.5142,1.5986,1.695,1.6583,1.6789,1.7329,1.7156,1.7203,1.7302,1.7044,1.6503,1.5906,1.5725,1.5566,1.5371,1.481,1.4661,1.4621,1.4216,1.3913,1.3712,1.3507,1.3321,1.3248,1.3347,1.3568,1.379,1.3945,1.3896,1.3811,1.3866,1.3655,1.3179,1.2254,1.1676,1.1105,1.033,1.0302,1.0296,1.0051,1.029,1.0431,1.0198,1.0269,1.0429,1.0648,1.0674,1.0861,1.1362,1.1447,1.1352,1.1076,1.0889,1.0878,1.104,1.0965,1.0748,1.039,1.0252,1.0182,1.0182,0.9897,0.9884,1.0146,1.0269,1.0203,1.0037,1.0341,1.0106,0.9542,0.9642,0.9355,0.8821,0.8156,0.7541,0.6976,0.6388,0.5832,0.5448,0.8809,0.895,0.0,0.9419,0.9923,1.0516,1.1169,1.2254,1.2758,1.2012,1.2359,1.2524,1.2153,1.2417,1.2502,1.2171,1.1921,1.1674,1.1472,1.1337,1.1261,1.1224,1.1313,1.1698,1.2377,1.2305,1.2197,1.2109,1.1782,1.1565,1.1433,0.0,0.0,1.2497,1.3004,1.3853,1.4881,1.5245,1.6131,1.7235,1.7175,1.7447,1.7842,1.7591,1.7522,1.7448,1.6949,1.6559,1.6279,1.6052,1.5892,1.5692,1.4989,1.4821,1.4741,1.4298,1.405,1.381,1.3367,1.318,1.3166,1.3292,1.3404,1.3505,1.3558,1.3519,1.3349,1.3009,1.2796,1.2329,1.1235,1.1197,1.1013,0.9936,0.9647,0.9438,0.9153,0.9374,0.9523,0.9467,0.9653,0.9856,1.0061,0.9692,0.9765,1.0595,1.0634,1.0516,1.0247,1.0131,1.0197,1.0376,1.0121,0.9938,0.9821,0.9696,0.9559,0.9521,0.9611,0.9771,0.9922,0.9929,0.9916,0.9842,0.9686,0.931,0.8819,0.8418,0.8035,0.7654,0.7395,0.6759,0.5903,0.5697,0.509,0.4485,0.9365,0.0,1.0162,0.9832,1.0592,1.1369,1.169,1.2933,1.354,1.2811,1.3525,1.3856,1.3152,1.309,1.2915,1.2431,1.2122,1.198,1.1952,1.2118,1.214,1.1926,1.236,1.2564,1.2404,1.2865,1.2746,1.2103,1.1817,1.1769,1.192,1.1333,1.1671,1.2797,1.3695,1.4431,1.5079,1.6292,1.6933,1.7122,1.7309,1.7636,1.8028,1.7429,1.7507,1.7805,1.7464,1.7016,1.6537,1.6397,1.5951,1.5421,1.5135,1.5211,1.5211,1.4566,1.433,1.4178,1.3754,1.347,1.3298,1.3374,1.3275,1.3148,1.313,1.2839,1.2491,1.2448,1.18,1.1,1.0231,0.9986,0.9782,0.9414,0.9402,0.9446,0.9522,0.9487,0.9317,0.9076,0.9439,0.9627,0.9409,0.9304,0.9228,0.9208,0.9345,0.9456,0.9426,0.9404,0.9577,1.0031,0.9884,0.9775,0.9644,0.9597,0.9691,0.9868,0.925,0.9198,0.9601,0.9085,0.8635,0.829,0.829,0.7859,0.7103,0.6898,0.6648,0.6331,0.6093,0.5631,0.5073,0.4746,0.4323,0.3868,1.0333,1.073,1.1081,1.1301,1.1769,1.233,1.318,1.3778,1.4256,1.4574,1.4566,1.4358,1.3915,1.3856,1.3695,1.3341,1.3081,1.2824,1.2671,1.2791,1.2797,1.2691,1.3079,1.335,1.3552,1.3612,1.3564,1.3429,1.2679,1.2427,1.2634,1.1926,1.2081,1.3065,1.4072,1.4856,1.555,1.6428,1.7223,1.7805,1.7842,1.8121,1.8473,1.7822,1.7754,1.7949,1.7403,1.7037,1.675,1.6568,1.608,1.5575,1.5492,1.5416,1.5298,1.4734,1.4483,1.4248,1.3656,1.3357,1.3168,1.3021,1.2833,1.2619,1.2491,1.2186,1.1886,1.1628,1.1025,1.0356,0.9718,0.9419,0.9179,0.8877,0.8505,0.8251,0.8291,0.8161,0.8037,0.7929,0.848,0.8782,0.855,0.858,0.8435,0.8007,0.8662,0.8969,0.8715,0.8793,0.8931,0.913,0.8622,0.8612,0.919,0.8692,0.89,0.9699,0.9179,0.9113,0.9466,0.8934,0.8286,0.7557,0.7509,0.7126,0.6437,0.6015,0.595,0.6064,0.5404,0.4814,0.4278,0.3839,0.3077,0.228,1.105,1.1475,1.197,1.2433,1.2785,1.331,1.4052,1.449,1.4968,1.5499,1.5261,1.4975,1.4777,1.456,1.4341,1.4151,1.3893,1.366,1.347,1.3564,1.3614,1.3578,1.3907,1.4247,1.4518,1.4406,1.4359,1.4425,1.3527,1.3287,1.367,1.3281,1.338,1.396,1.4978,1.5687,1.6246,1.6999,1.7668,1.8233,1.8282,1.8462,1.8682,1.8098,1.7984,1.801,1.743,1.7109,1.686,1.676,1.6362,1.5861,1.5752,1.5607,1.538,1.4853,1.4566,1.4272,1.3561,1.3264,1.3009,1.2705,1.2448,1.2198,1.1977,1.172,1.1327,1.0722,1.024,0.9727,0.913,0.8727,0.8382,0.8197,0.75,0.7083,0.7184,0.6973,0.6878,0.7004,0.7597,0.7888,0.7741,0.7826,0.763,0.6999,0.7703,0.8184,0.8131,0.8119,0.8182,0.8433,0.7636,0.7605,0.8363,0.7788,0.8002,0.8909,0.8518,0.8449,0.8653,0.8044,0.7386,0.6612,0.6478,0.6082,0.5547,0.5042,0.5028,0.5181,0.4534,0.3983,0.3447,0.3042,0.2159,0.114,1.1352,1.2132,1.2792,1.2797,1.36,1.4196,1.3925,1.4975,1.5642,1.5178,1.5506,1.5784,1.5784,1.5144,1.4691,1.4684,1.4435,1.4276,1.427,1.4525,1.4694,1.4701,1.5126,1.5302,1.5074,1.5289,1.5154,1.4684,1.4221,1.4315,1.4995,1.5583,1.5741,1.5605,1.6607,1.7056,1.7146,1.8283,1.8505,1.8156,1.8632,1.8712,1.8583,1.8226,1.8079,1.8041,1.7743,1.7304,1.6897,1.6972,1.672,1.6287,1.5859,1.5628,1.5498,1.4874,1.4566,1.4272,1.3561,1.3264,1.3009,1.2534,1.2203,1.1957,1.1742,1.1343,1.0722,0.982,0.9314,0.8878,0.842,0.7712,0.7222,0.7285,0.6536,0.6113,0.6641,0.6235,0.6099,0.6563,0.6978,0.7178,0.7005,0.706,0.685,0.6182,0.6359,0.6877,0.7669,0.7323,0.7405,0.7979,0.7248,0.6925,0.7122,0.7115,0.7192,0.7311,0.7133,0.7047,0.6991,0.6072,0.5518,0.5285,0.4896,0.4504,0.4114,0.389,0.3607,0.3253,0.3285,0.3023,0.2601,0.2398,0.1721,0.0786,1.178,1.2578,1.3281,1.3281,1.401,1.453,1.4399,1.5038,1.561,1.5737,1.5799,1.6021,1.6548,1.561,1.5031,1.516,1.4809,1.4648,1.4786,1.4923,1.5028,1.5166,1.5484,1.5738,1.5846,1.5538,1.5678,1.6261,1.5028,1.4599,1.5007,1.5345,1.5539,1.5715,1.6386,1.6794,1.7041,1.7942,1.8333,1.8397,1.8694,1.8756,1.869,1.8215,1.808,1.8041,1.7697,1.7317,1.7004,1.7093,1.6994,1.6702,1.6096,1.5778,1.554,1.5169,1.4654,1.4033,1.3398,1.3009,1.2662,1.2057,1.1634,1.1246,1.0987,1.0381,0.9605,0.8691,0.8402,0.8028,0.716,0.6848,0.6657,0.6527,0.5712,0.5221,0.5624,0.5017,0.4813,0.5567,0.5719,0.5812,0.5944,0.5996,0.5693,0.4986,0.5049,0.5439,0.6079,0.6421,0.6442,0.6219,0.5877,0.5765,0.5885,0.5845,0.6014,0.6398,0.6188,0.5878,0.5412,0.4629,0.41,0.3802,0.3601,0.3251,0.2728,0.2712,0.247,0.2118,0.1987,0.1526,0.083,0.0163,-0.0837,-0.1924,1.2283,1.2933,1.3539,1.3775,1.4448,1.4959,1.4929,1.5516,1.6088,1.6276,1.6181,1.6346,1.7066,1.617,1.5601,1.5818,1.5558,1.5458,1.5591,1.5644,1.5744,1.5984,1.6061,1.6211,1.6508,1.608,1.6166,1.6831,1.5917,1.5542,1.5593,1.5995,1.6192,1.6211,1.6815,1.7178,1.7369,1.7902,1.8234,1.8481,1.8512,1.8643,1.8758,1.8323,1.8141,1.8056,1.7758,1.7357,1.6998,1.7121,1.6993,1.6807,1.6545,1.6029,1.545,1.5055,1.4426,1.3728,1.3127,1.2654,1.2186,1.1671,1.1154,1.0641,1.0289,0.9685,0.8956,0.8229,0.7847,0.7365,0.6489,0.6159,0.5938,0.5631,0.4886,0.4437,0.4704,0.4121,0.3895,0.4577,0.4515,0.4414,0.4561,0.4506,0.4194,0.3564,0.3762,0.399,0.4121,0.4988,0.5331,0.5039,0.4887,0.4746,0.4614,0.4658,0.4719,0.4758,0.4384,0.4006,0.3644,0.2876,0.2444,0.2263,0.1878,0.1387,0.0841,0.0703,0.0336,-0.0084,-0.0286,-0.0697,-0.1251,-0.1976,-0.2937,-0.4047,1.2817,1.3214,1.3732,1.425,1.4962,1.5425,1.5412,1.6305,1.6899,1.6608,1.6643,1.6845,1.7239,1.6683,1.6359,1.6636,1.6629,1.6581,1.6581,1.6581,1.669,1.6932,1.6683,1.6683,1.6979,1.6709,1.6601,1.6601,1.6918,1.6892,1.6664,1.7355,1.7456,1.7062,1.7729,1.804,1.8087,1.8087,1.8234,1.8481,1.8234,1.8411,1.8781,1.8566,1.8334,1.804,1.7815,1.7402,1.6979,1.6932,1.6737,1.6629,1.7052,1.6339,1.5272,1.4702,1.4053,1.3397,1.283,1.2199,1.1613,1.1348,1.0738,1.0077,0.9602,0.9157,0.8671,0.8185,0.7456,0.6707,0.616,0.5589,0.5065,0.4702,0.4125,0.3792,0.3918,0.3462,0.3251,0.3655,0.3332,0.3011,0.2935,0.2759,0.2455,0.1976,0.2482,0.2552,0.1955,0.3148,0.399,0.4204,0.4039,0.3739,0.3318,0.3521,0.3301,0.2608,0.1912,0.1693,0.1861,0.0911,0.0568,0.0648,-0.0202,-0.0879,-0.1415,-0.1931,-0.2477,-0.2997,-0.3224,-0.3424,-0.3637,-0.415,-0.4847,-0.5707,1.3339,1.3785,1.4298,1.4819,1.5343,1.5657,1.5438,1.6496,1.6975,1.6083,1.6888,1.7421,1.7095,1.7059,1.7052,1.7138,1.6817,1.6494,1.6312,1.6312,1.6218,1.6069,1.6218,1.6407,1.6683,1.645,1.6377,1.6522,1.7184,1.7425,1.7227,1.7356,1.7377,1.7323,1.7443,1.7613,1.7815,1.7994,1.8234,1.8527,1.8604,1.8689,1.8781,1.8743,1.8458,1.804,1.7815,1.7254,1.6636,1.6211,1.617,1.6218,1.5743,1.5399,1.5188,1.5186,1.4397,1.3372,1.2869,1.2193,1.1568,1.0992,1.003,0.9126,0.864,0.8149,0.7672,0.708,0.6362,0.5613,0.4873,0.4465,0.4119,0.3848,0.3408,0.3196,0.3352,0.2771,0.2375,0.2705,0.2165,0.1845,0.2045,0.163,0.1336,0.1245,0.1176,0.1132,0.0997,0.1339,0.1783,0.24,0.2355,0.2111,0.1593,0.1845,0.1866,0.1691,0.1023,0.0706,0.0694,-0.0211,-0.0866,-0.1336,-0.1782,-0.2462,-0.3219,-0.3428,-0.4033,-0.4825,-0.5138,-0.5679,-0.6418,-0.7481,-0.8065,-0.8524,1.4039,1.4112,1.4304,1.4975,1.5397,1.563,1.5571,1.6536,1.7013,1.6399,1.6968,1.7406,1.7377,1.724,1.7316,1.7702,1.7217,1.6824,1.6602,1.6643,1.6588,1.6353,1.6501,1.669,1.6911,1.6707,1.6761,1.7222,1.7439,1.7529,1.7508,1.7366,1.7287,1.7223,1.7421,1.7481,1.7574,1.8079,1.8319,1.8326,1.855,1.8735,1.8781,1.8697,1.8419,1.804,1.7815,1.7301,1.6737,1.6454,1.6265,1.617,1.5886,1.5404,1.4889,1.4886,1.4086,1.3026,1.2396,1.1831,1.1138,1.0149,0.9336,0.8596,0.8021,0.7536,0.6987,0.6337,0.5798,0.5182,0.4273,0.3966,0.3688,0.3218,0.2758,0.2456,0.2506,0.1846,0.1475,0.1746,0.0938,0.0512,0.077,0.0209,-0.0125,-0.0087,-0.0043,-0.0172,-0.0572,-0.0396,0.0221,0.1255,0.1075,0.0757,0.0353,-0.0134,-0.0358,-0.0269,-0.1029,-0.1379,-0.1318,-0.2321,-0.3042,-0.3503,-0.3924,-0.4615,-0.55,-0.5598,-0.6384,-0.758,-0.7965,-0.8705,-0.9652,-1.0277,-1.0773,-1.1278,1.4646,1.4406,1.4364,1.5131,1.5452,1.5676,1.5872,1.6583,1.7077,1.6939,1.7062,1.7293,1.769,1.7392,1.7423,1.8247,1.7842,1.7385,1.717,1.7254,1.7225,1.7004,1.7048,1.7113,1.7279,1.716,1.7394,1.804,1.7567,1.7503,1.7702,1.7456,1.7276,1.7098,1.7463,1.7527,1.7426,1.8125,1.8311,1.8133,1.845,1.8681,1.8781,1.8658,1.8419,1.8133,1.7815,1.7355,1.6932,1.6784,1.6454,1.6123,1.6163,1.5445,1.4496,1.4154,1.3404,1.2565,1.192,1.1319,1.0527,0.9182,0.864,0.8237,0.7577,0.701,0.6393,0.5766,0.5389,0.4844,0.3868,0.3631,0.3363,0.2619,0.205,0.1655,0.1591,0.0853,0.0425,0.065,-0.0261,-0.0862,-0.0678,-0.1243,-0.1604,-0.157,-0.1239,-0.1384,-0.2282,-0.1923,-0.1164,-0.009,-0.0313,-0.0627,-0.0896,-0.2104,-0.2596,-0.2417,-0.34,-0.371,-0.3528,-0.4674,-0.5403,-0.5692,-0.6209,-0.7026,-0.802,-0.8131,-0.9104,-1.0595,-1.0996,-1.1811,-1.2766,-1.2772,-1.3198,-1.3956,1.4987,1.5172,1.5404,1.594,1.6258,1.644,1.6494,1.7139,1.7409,1.6765,1.7242,1.7621,1.7486,1.758,1.7848,1.8269,1.84,1.8292,1.7774,1.7516,1.727,1.7077,1.7196,1.7286,1.7279,1.7481,1.7628,1.7768,1.7675,1.7675,1.7783,1.766,1.7541,1.7359,1.7363,1.7481,1.7675,1.7994,1.8133,1.8179,1.8819,1.8958,1.8827,1.9012,1.8819,1.8357,1.7861,1.7254,1.6541,1.5872,1.5635,1.5445,1.4598,1.416,1.3908,1.3244,1.2645,1.2168,1.1983,1.101,0.9843,0.8899,0.8153,0.7577,0.7228,0.6346,0.5594,0.546,0.459,0.3646,0.2862,0.2716,0.2442,0.165,0.1133,0.0838,0.1012,-0.0043,-0.0778,-0.0694,-0.139,-0.1865,-0.186,-0.2303,-0.2532,-0.2356,-0.2418,-0.2724,-0.3352,-0.3086,-0.3129,-0.3528,-0.2995,-0.2818,-0.3087,-0.3491,-0.358,-0.34,-0.4556,-0.5001,-0.4772,-0.6091,-0.7098,-0.7858,-0.8276,-0.9158,-1.03,-1.0656,-1.1488,-1.2608,-1.3008,-1.3696,-1.4587,-1.5119,-1.5685,-1.6376,1.5083,1.522,1.5404,1.5879,1.6069,1.6259,1.6614,1.7051,1.7289,1.7072,1.7488,1.7833,1.7869,1.7981,1.8326,1.8977,1.8858,1.8836,1.9057,1.8287,1.7695,1.7432,1.7319,1.738,1.7527,1.7628,1.7768,1.79,1.7768,1.771,1.7749,1.7554,1.7421,1.7363,1.7453,1.7574,1.7721,1.8133,1.8319,1.8334,1.8781,1.892,1.8827,1.892,1.8681,1.8218,1.7861,1.7301,1.669,1.6055,1.5771,1.5493,1.4592,1.4112,1.3763,1.3001,1.2166,1.139,1.1007,1.0135,0.9109,0.8351,0.7713,0.7136,0.6473,0.5858,0.5238,0.4569,0.4042,0.3361,0.2326,0.2204,0.1913,0.0957,0.0388,0.0043,0.0043,-0.0956,-0.1658,-0.1587,-0.2252,-0.2783,-0.3046,-0.3414,-0.3685,-0.3842,-0.3945,-0.4249,-0.491,-0.4912,-0.509,-0.5403,-0.4599,-0.4289,-0.4565,-0.5006,-0.5184,-0.5137,-0.6328,-0.6899,-0.6933,-0.8292,-0.9249,-0.9767,-1.0216,-1.0942,-1.1845,-1.2018,-1.3035,-1.4497,-1.4781,-1.5653,-1.6807,-1.7245,-1.7967,-1.887,1.5172,1.5274,1.5465,1.5832,1.6021,1.6238,1.6704,1.6933,1.7152,1.7342,1.7562,1.7852,1.8255,1.8299,1.8633,1.9412,1.9132,1.913,1.9626,1.8758,1.8118,1.7953,1.7609,1.7527,1.7768,1.7721,1.7861,1.8187,1.7908,1.7815,1.7815,1.7567,1.738,1.7239,1.7481,1.7581,1.7581,1.8179,1.8365,1.8342,1.8743,1.8874,1.8827,1.8874,1.8596,1.8179,1.7908,1.7394,1.6831,1.6298,1.5872,1.5404,1.464,1.4106,1.357,1.2759,1.1631,1.056,1.0099,0.9388,0.8601,0.7897,0.7316,0.6697,0.5811,0.5369,0.4837,0.381,0.3541,0.3122,0.1922,0.1719,0.1356,0.0357,-0.0308,-0.0788,-0.0939,-0.1857,-0.2509,-0.2503,-0.3135,-0.3717,-0.4206,-0.4476,-0.4842,-0.536,-0.5424,-0.5774,-0.6513,-0.6666,-0.6779,-0.6871,-0.5933,-0.5625,-0.6035,-0.665,-0.7044,-0.7173,-0.8352,-0.9043,-0.9257,-1.0649,-1.1391,-1.174,-1.22,-1.2822,-1.3482,-1.3648,-1.4725,-1.6325,-1.6532,-1.7502,-1.8771,-1.9071,-1.9937,-2.1098,1.5493,1.5832,1.613,1.6177,1.6602,1.6939,1.6961,1.7167,1.7293,1.7315,1.7315,1.7604,1.8233,1.8299,1.8438,1.8847,1.905,1.894,1.8364,1.8237,1.8312,1.8603,1.7995,1.7815,1.804,1.7815,1.7962,1.8481,1.8187,1.8087,1.8087,1.804,1.7667,1.7026,1.7246,1.7246,1.712,1.7807,1.7994,1.7815,1.8773,1.9004,1.8827,1.9096,1.8866,1.845,1.8179,1.7426,1.6541,1.6015,1.5356,1.464,1.3829,1.3389,1.2953,1.1975,1.0849,0.9893,0.9963,0.9346,0.8517,0.7701,0.7003,0.6254,0.5591,0.4879,0.421,0.3721,0.3044,0.237,0.1569,0.1102,0.0525,-0.0313,-0.1145,-0.1707,-0.1789,-0.2777,-0.358,-0.3758,-0.4255,-0.4792,-0.5238,-0.5455,-0.5858,-0.6521,-0.6633,-0.706,-0.7925,-0.7786,-0.7878,-0.8321,-0.7265,-0.7088,-0.7977,-0.8452,-0.893,-0.9362,-1.0524,-1.1166,-1.1423,-1.2632,-1.3402,-1.3831,-1.428,-1.4991,-1.5876,-1.6456,-1.7227,-1.8132,-1.8412,-1.9146,-2.0118,-2.0507,-2.1418,-2.2734,1.5689,1.5974,1.6319,1.665,1.6838,1.7091,1.7468,1.737,1.7352,1.7604,1.7625,1.7801,1.8255,1.8299,1.848,1.9005,1.8799,1.8676,1.8731,1.8611,1.829,1.7849,1.7755,1.7815,1.8087,1.7861,1.7861,1.8234,1.8133,1.7939,1.7613,1.7613,1.7416,1.7101,1.712,1.723,1.7377,1.7725,1.8001,1.8241,1.8612,1.8705,1.8612,1.8751,1.8465,1.7947,1.738,1.6817,1.6244,1.5397,1.4729,1.4106,1.363,1.3095,1.2437,1.1155,1.0128,0.9244,0.8747,0.8377,0.7949,0.7238,0.6435,0.5591,0.4879,0.4164,0.3405,0.2645,0.2107,0.1479,0.0314,-0.0045,-0.0488,-0.1389,-0.2093,-0.2487,-0.2508,-0.354,-0.4344,-0.4563,-0.5146,-0.5813,-0.6387,-0.6694,-0.7111,-0.7766,-0.7979,-0.8396,-0.8984,-0.9084,-0.9453,-1.0193,-0.9831,-0.9479,-0.9279,-0.9884,-1.0443,-1.0864,-1.2029,-1.2717,-1.2972,-1.4245,-1.4845,-1.4929,-1.5918,-1.6583,-1.696,-1.7706,-1.843,-1.9164,-1.9747,-2.0489,-2.1298,-2.2188,-2.3235,-2.4432,1.6015,1.6265,1.6555,1.6932,1.7073,1.7232,1.7585,1.7472,1.7359,1.7633,1.7662,1.7786,1.8116,1.8145,1.8289,1.8701,1.8375,1.8299,1.8649,1.8599,1.8267,1.7603,1.7586,1.7761,1.8087,1.7861,1.7908,1.8319,1.828,1.8048,1.7667,1.7667,1.7548,1.7347,1.7252,1.7362,1.7621,1.7763,1.8102,1.8527,1.8566,1.8574,1.8481,1.8481,1.8102,1.7481,1.6911,1.6386,1.5818,1.4975,1.425,1.3619,1.3346,1.255,1.1524,1.0456,0.9489,0.8586,0.7893,0.7475,0.7102,0.6694,0.5769,0.479,0.421,0.3494,0.2734,0.1839,0.1345,0.0718,-0.0403,-0.0986,-0.1482,-0.2216,-0.2835,-0.3277,-0.3432,-0.4316,-0.5104,-0.5586,-0.6248,-0.6946,-0.7701,-0.8009,-0.8448,-0.9125,-0.9499,-0.9969,-1.061,-1.0749,-1.11,-1.1826,-1.2123,-1.198,-1.1418,-1.1681,-1.2109,-1.2699,-1.3649,-1.4252,-1.4587,-1.5718,-1.6214,-1.6288,-1.7432,-1.7957,-1.8158,-1.8917,-1.955,-2.0196,-2.1179,-2.2001,-2.2773,-2.3957,-2.4967,-2.5967,1.6541,1.6831,1.6979,1.6979,1.7153,1.7279,1.7279,1.7279,1.7279,1.7286,1.7279,1.741,1.7786,1.7816,1.7808,1.7816,1.7808,1.7816,1.7816,1.8116,1.8258,1.8189,1.761,1.7567,1.8087,1.7861,1.8048,1.8781,1.8566,1.8481,1.8481,1.8481,1.8195,1.7721,1.7675,1.7675,1.7721,1.7994,1.8234,1.8527,1.8697,1.8651,1.8481,1.8481,1.8001,1.7279,1.7091,1.6332,1.5343,1.4825,1.3968,1.305,1.2856,1.1578,1.0174,0.9937,0.8948,0.7852,0.7578,0.6709,0.592,0.607,0.4964,0.3849,0.363,0.3002,0.2284,0.1524,0.0852,0.0224,-0.0314,-0.1568,-0.2525,-0.2624,-0.3358,-0.4102,-0.4643,-0.5122,-0.5858,-0.6962,-0.7545,-0.8185,-0.9227,-0.9485,-0.987,-1.0575,-1.1114,-1.1844,-1.2854,-1.2776,-1.2825,-1.3129,-1.3953,-1.451,-1.4699,-1.4035,-1.4161,-1.5039,-1.5477,-1.594,-1.6435,-1.7115,-1.7634,-1.8037,-1.8718,-1.9244,-1.9687,-2.0323,-2.0876,-2.1369,-2.2689,-2.3727,-2.4559,-2.5692,-2.6516,-2.7308,1.6831,1.6932,1.7019,1.72,1.7239,1.7239,1.7113,1.7192,1.7319,1.7361,1.7486,1.7789,1.8353,1.8004,1.7819,1.8049,1.7706,1.7669,1.813,1.8189,1.8327,1.8517,1.8149,1.7913,1.7815,1.7721,1.7908,1.8319,1.8226,1.8234,1.8234,1.8009,1.7833,1.7606,1.7338,1.727,1.7393,1.7671,1.7768,1.7714,1.8326,1.8234,1.7714,1.8288,1.8001,1.7232,1.6669,1.6001,1.5248,1.4208,1.3292,1.249,1.1654,1.0785,0.9953,0.9167,0.8151,0.715,0.6284,0.5358,0.473,0.5216,0.434,0.3315,0.2913,0.2151,0.1255,0.0314,-0.0269,-0.0941,-0.1972,-0.2777,-0.3368,-0.3747,-0.445,-0.5109,-0.5628,-0.6361,-0.7132,-0.779,-0.8568,-0.9268,-0.9764,-1.0264,-1.0864,-1.1619,-1.2601,-1.3355,-1.3851,-1.4132,-1.4359,-1.4562,-1.5387,-1.6049,-1.6609,-1.5745,-1.5662,-1.6412,-1.7025,-1.748,-1.7772,-1.8559,-1.8926,-1.8966,-2.007,-2.081,-2.1283,-2.2252,-2.3062,-2.3818,-2.5016,-2.5771,-2.6336,-2.7347,-2.825,-2.9145,1.7113,1.7207,1.7301,1.7286,1.7279,1.7283,1.7326,1.7436,1.7545,1.7727,1.7941,1.8159,1.8338,1.8155,1.8085,1.8192,1.8108,1.8159,1.8425,1.8444,1.8434,1.8367,1.8368,1.82,1.7869,1.7861,1.8001,1.828,1.8133,1.8179,1.8365,1.8001,1.7887,1.7934,1.7585,1.747,1.7568,1.7771,1.7761,1.766,1.8141,1.79,1.738,1.7955,1.7628,1.677,1.6244,1.5581,1.4819,1.3727,1.2759,1.1891,1.0852,1.0118,0.9486,0.8586,0.7562,0.6497,0.552,0.4544,0.3813,0.387,0.3246,0.2581,0.229,0.1489,0.0544,-0.0449,-0.1121,-0.1838,-0.2823,-0.3628,-0.43,-0.4788,-0.5455,-0.6163,-0.6817,-0.7491,-0.8174,-0.8938,-0.966,-1.0381,-1.1056,-1.1625,-1.2461,-1.3637,-1.4389,-1.5015,-1.5622,-1.5948,-1.6285,-1.6694,-1.7413,-1.8003,-1.8423,-1.8307,-1.8108,-1.7925,-1.8789,-1.9303,-1.9522,-2.06,-2.1075,-2.1154,-2.2099,-2.2762,-2.3289,-2.4089,-2.4796,-2.5581,-2.6826,-2.7591,-2.8151,-2.8995,-2.9799,-3.0591,1.7279,1.7503,1.7626,1.7377,1.7352,1.7468,1.7768,1.7811,1.7977,1.8299,1.8538,1.8502,1.8022,1.8341,1.8502,1.8326,1.884,1.9057,1.8708,1.8748,1.8487,1.7893,1.8321,1.8454,1.8141,1.8133,1.828,1.8481,1.8234,1.8319,1.8735,1.8272,1.8141,1.8388,1.8094,1.7994,1.804,1.7994,1.7971,1.7948,1.8032,1.7692,1.7242,1.7529,1.7023,1.6082,1.5839,1.5073,1.407,1.3258,1.2285,1.1322,1.0389,0.9519,0.8774,0.8135,0.7017,0.5891,0.5158,0.4132,0.3169,0.239,0.196,0.1657,0.1623,0.0956,0.0,-0.1035,-0.1794,-0.2512,-0.3227,-0.4297,-0.523,-0.5719,-0.6435,-0.7275,-0.8181,-0.8512,-0.9101,-1.0231,-1.072,-1.1492,-1.2689,-1.335,-1.445,-1.6217,-1.6301,-1.6764,-1.784,-1.7982,-1.8395,-1.9106,-1.9754,-2.0089,-2.0139,-2.1245,-2.1022,-1.946,-2.0638,-2.1311,-2.1511,-2.2835,-2.3644,-2.4032,-2.4467,-2.4943,-2.544,-2.5843,-2.6279,-2.6808,-2.8275,-2.9161,-2.9738,-3.0542,-3.1175,-3.1736,1.7279,1.7538,1.7761,1.7713,1.7918,1.8018,1.7901,1.8056,1.8313,1.8642,1.8493,1.8637,1.943,1.8959,1.8745,1.92,1.9166,1.9022,1.8742,1.8667,1.8598,1.8454,1.8495,1.8505,1.8435,1.8427,1.8427,1.8481,1.8234,1.8133,1.8226,1.7707,1.752,1.752,1.7099,1.7145,1.7473,1.7301,1.7115,1.6897,1.7524,1.7186,1.6448,1.7135,1.667,1.5617,1.5537,1.4593,1.3278,1.2294,1.1288,1.0432,0.9998,0.9098,0.8081,0.7458,0.6476,0.5376,0.4662,0.3636,0.2713,0.248,0.155,0.0644,0.0451,-0.0045,-0.0811,-0.1973,-0.2598,-0.3272,-0.4212,-0.5186,-0.6024,-0.647,-0.7454,-0.8341,-0.8903,-0.9535,-1.0133,-1.0768,-1.1399,-1.2043,-1.2734,-1.4303,-1.5893,-1.7264,-1.7565,-1.8187,-1.9376,-1.9332,-1.9557,-2.0077,-2.1006,-2.1385,-2.1179,-2.2668,-2.2418,-2.0566,-2.2099,-2.2811,-2.2832,-2.3946,-2.4635,-2.4937,-2.5492,-2.6186,-2.6948,-2.7423,-2.806,-2.8824,-2.9641,-3.0,-3.0207,-3.1509,-3.2294,-3.3006,1.7578,1.7802,1.806,1.8215,1.8287,1.8357,1.8511,1.8533,1.87,1.9176,1.9177,1.9234,1.9567,1.9524,1.9581,1.9909,1.9678,1.9418,1.9094,1.8684,1.8331,1.8172,1.824,1.8334,1.8334,1.8435,1.8481,1.8481,1.8094,1.8048,1.8288,1.7613,1.738,1.7481,1.7246,1.72,1.7279,1.7301,1.7159,1.6914,1.7088,1.6818,1.6344,1.6522,1.6151,1.5451,1.5036,1.3797,1.2342,1.1697,1.0768,0.9829,0.9508,0.8646,0.7617,0.7001,0.5991,0.4983,0.4289,0.3297,0.2319,0.1934,0.0904,0.0,0.0,-0.0542,-0.1361,-0.2603,-0.3136,-0.3808,-0.5144,-0.5852,-0.6602,-0.7614,-0.8378,-0.9184,-1.0107,-1.0452,-1.1,-1.2104,-1.2304,-1.2957,-1.4396,-1.6056,-1.7498,-1.865,-1.9217,-1.9894,-2.0827,-2.1254,-2.1776,-2.2467,-2.3128,-2.3514,-2.3566,-2.4607,-2.4476,-2.3262,-2.4223,-2.4759,-2.4949,-2.5955,-2.6725,-2.7221,-2.7647,-2.8228,-2.896,-2.9201,-2.9619,-3.0168,-3.0793,-3.1169,-3.148,-3.271,-3.3648,-3.4549,1.7812,1.8063,1.8372,1.8674,1.8572,1.8655,1.9123,1.9022,1.9067,1.9642,1.9775,1.9764,1.9385,1.9977,2.0406,2.035,2.0145,1.9816,1.9416,1.8649,1.806,1.7776,1.7947,1.804,1.8087,1.8334,1.8435,1.8481,1.8009,1.7955,1.8342,1.7621,1.7426,1.7628,1.7535,1.7434,1.7333,1.7488,1.7404,1.7066,1.6749,1.6506,1.6317,1.5799,1.5421,1.5089,1.4369,1.3006,1.1575,1.1271,1.0369,0.9384,0.8975,0.8133,0.7181,0.6643,0.564,0.4619,0.4092,0.3136,0.2064,0.1391,0.0448,-0.0314,-0.0269,-0.0954,-0.1969,-0.3148,-0.3674,-0.4431,-0.5983,-0.6514,-0.7224,-0.8759,-0.9304,-0.9985,-1.1347,-1.1353,-1.1814,-1.3423,-1.3459,-1.4253,-1.656,-1.7934,-1.9109,-2.0113,-2.0799,-2.1561,-2.2385,-2.3129,-2.3955,-2.4893,-2.5294,-2.5631,-2.5933,-2.6563,-2.6674,-2.6285,-2.6628,-2.6876,-2.7031,-2.8036,-2.887,-2.96,-2.9819,-3.0279,-3.0869,-3.0745,-3.09,-3.1192,-3.1633,-3.2064,-3.2521,-3.3623,-3.4848,-3.6023,1.7808,1.8319,1.8722,1.8766,1.9008,1.9214,1.9258,1.9265,1.9324,1.9672,1.9279,1.9241,1.9884,2.0282,2.0378,2.0073,1.9966,1.9692,1.9105,1.848,1.8086,1.804,1.7861,1.7861,1.8087,1.8133,1.828,1.8481,1.8187,1.7947,1.7815,1.7481,1.7333,1.7333,1.6911,1.6958,1.7286,1.716,1.6768,1.6296,1.6523,1.614,1.5398,1.4921,1.4369,1.3819,1.3432,1.2571,1.1502,1.0781,0.9727,0.8723,0.8651,0.7619,0.6461,0.6351,0.539,0.4359,0.4257,0.3361,0.2334,0.1839,0.0807,-0.0269,-0.1031,-0.1976,-0.2967,-0.3942,-0.4832,-0.5719,-0.6782,-0.7492,-0.8285,-0.934,-1.0232,-1.106,-1.1887,-1.2248,-1.2723,-1.3501,-1.4878,-1.6292,-1.7718,-1.916,-2.0376,-2.1382,-2.173,-2.2517,-2.4059,-2.4049,-2.4461,-2.5392,-2.6188,-2.6582,-2.6564,-2.7691,-2.8264,-2.8336,-2.8944,-2.8776,-2.7963,-2.9029,-2.9845,-3.0456,-3.0671,-3.1196,-3.1856,-3.1348,-3.1548,-3.2184,-3.1971,-3.1721,-3.1668,-3.3253,-3.508,-3.6784,1.8291,1.8591,1.8898,1.9228,1.9184,1.9175,1.948,1.9279,1.9227,1.9628,1.945,1.9464,1.9813,1.9823,1.9758,1.9772,1.9411,1.9079,1.8789,1.823,1.7861,1.7861,1.7768,1.7768,1.7854,1.7861,1.7908,1.8055,1.7908,1.7815,1.7675,1.7426,1.7279,1.7279,1.7091,1.7099,1.7286,1.7113,1.6847,1.6586,1.625,1.594,1.5491,1.4537,1.3979,1.3514,1.2614,1.163,1.0623,1.0184,0.9224,0.8251,0.8,0.7139,0.618,0.611,0.5232,0.4253,0.4119,0.3227,0.2199,0.157,0.0493,-0.0628,-0.1615,-0.2911,-0.4115,-0.4919,-0.563,-0.6517,-0.7837,-0.8363,-0.8925,-1.0042,-1.0887,-1.1688,-1.2597,-1.309,-1.3838,-1.5118,-1.6658,-1.8148,-1.9397,-2.0413,-2.1543,-2.279,-2.3294,-2.4114,-2.5379,-2.5704,-2.6187,-2.6973,-2.7504,-2.789,-2.8214,-2.886,-2.9333,-2.9644,-3.024,-3.0176,-2.953,-3.0088,-3.0639,-3.1122,-3.1675,-3.2032,-3.2214,-3.2159,-3.2302,-3.256,-3.2597,-3.3132,-3.4001,-3.4941,-3.6151,-3.7373]},{"header":{"parameterUnit":"m.s-1","parameterCategory":1,"la1":30.6,"la2":28.766,"lo1":-90.7593,"lo2":-88.6598,"dy":0.0162,"dx":0.0183,"nx":116,"ny":114,"refTime":"2024-02-28T18:00:00:Z","depth":0,"parameterNumber":3,"parameterNumberName":"V-component_of_WINDS"},"data":[0.0,0.0,0.0,0.0,0.0,0.0,0.0,0.0,0.0,0.0,0.0,0.0,0.0,0.0,0.0,0.0,0.0,0.0,0.0,0.0,0.0,0.0,0.0,0.0,0.0,0.0,0.0,0.0,0.0,0.0,0.0,0.0,0.0,0.0,0.0,0.0,0.0,0.0,0.0,0.0,0.0,0.0,0.0,0.0,0.0,0.0,0.0,0.0,0.0,0.0,0.0,0.0,0.0,0.0,0.0,0.0,0.0,0.0,0.0,0.0,0.0,0.0,0.0,0.0,0.0,0.0,0.0,0.0,0.0,0.0,0.0,0.0,0.0,0.0,0.0,0.0,0.0,0.0,0.0,0.0,0.0,0.0,0.0,0.0,0.0,0.0,0.0,0.0,0.0,0.0,0.0,0.0,0.0,0.0,0.0,0.0,0.0,0.0,0.0,0.0,0.0,0.0,0.0,0.0,0.0,0.0,0.0,0.0,0.0,0.0,0.0,0.0,0.0,0.0,0.0,0.0,0.0,0.0,0.0,0.0,0.0,0.0,0.0,0.0,0.0,0.0,0.0,0.0,0.0,0.0,0.0,0.0,0.0,0.0,0.0,0.0,0.0,0.0,0.0,0.0,0.0,0.0,0.0,0.0,0.0,0.0,0.0,0.0,0.0,0.0,0.0,0.0,0.0,0.0,0.0,0.0,0.0,0.0,0.0,0.0,0.0,0.0,0.0,0.0,0.0,0.0,0.0,0.0,0.0,0.0,0.0,0.0,0.0,0.0,0.0,0.0,0.0,0.0,0.0,0.0,0.0,0.0,0.0,0.0,0.0,0.0,0.0,0.0,0.0,0.0,0.0,0.0,0.0,0.0,0.0,0.0,0.0,0.0,0.0,0.0,0.0,0.0,0.0,0.0,0.0,0.0,0.0,0.0,0.0,0.0,0.0,0.0,0.0,0.0,0.0,0.0,0.0,0.0,0.0,0.0,0.0,0.0,0.0,0.0,0.0,0.0,0.0,0.0,0.0,0.0,0.0,0.0,0.0,0.0,0.0,0.0,0.0,0.0,0.0,0.0,0.0,0.0,0.0,0.0,0.0,0.0,0.0,0.0,0.0,0.0,0.0,0.0,0.0,0.0,0.0,0.0,0.0,0.0,0.0,0.0,0.0,0.0,0.0,0.0,0.0,0.0,0.0,0.0,0.0,0.0,0.0,0.0,0.0,0.0,0.0,0.0,0.0,0.0,0.0,0.0,0.0,0.0,0.0,0.0,0.0,0.0,0.0,0.0,0.0,0.0,0.0,0.0,0.0,0.0,0.0,0.0,0.0,0.0,0.0,0.0,0.0,0.0,0.0,0.0,0.0,0.0,0.0,0.0,0.0,0.0,0.0,0.0,0.0,0.0,0.0,0.0,0.0,0.0,0.0,0.0,0.0,0.0,0.0,0.0,0.0,0.0,0.0,0.0,0.0,0.0,0.0,0.0,0.0,0.0,0.0,0.0,0.0,0.0,0.0,0.0,0.0,0.0,0.0,0.0,0.0,0.0,0.0,0.0,0.0,0.0,0.0,0.0,0.0,0.0,0.0,0.0,0.0,0.0,0.0,0.0,0.0,0.0,0.0,0.0,0.0,0.0,0.0,0.0,0.0,0.0,0.0,0.0,0.0,0.0,0.0,0.0,0.0,0.0,0.0,0.0,0.0,0.0,0.0,0.0,0.0,0.0,0.0,0.0,0.0,0.0,0.0,0.0,0.0,0.0,0.0,0.0,0.0,0.0,0.0,0.0,0.0,0.0,0.0,0.0,0.0,0.0,0.0,0.0,0.0,0.0,0.0,0.0,0.0,0.0,0.0,0.0,0.0,0.0,0.0,0.0,0.0,0.0,0.0,0.0,0.0,0.0,0.0,0.0,0.0,0.0,0.0,0.0,0.0,0.0,0.0,0.0,0.0,0.0,0.0,0.0,0.0,0.0,0.0,0.0,0.0,0.0,0.0,0.0,0.0,0.0,0.0,0.0,0.0,0.0,0.0,0.0,0.0,0.0,0.0,0.0,0.0,0.0,0.0,0.0,0.0,0.0,0.0,0.0,0.0,0.0,0.0,0.0,0.0,0.0,0.0,0.0,0.0,0.0,0.0,0.0,0.0,0.0,0.0,0.0,0.0,0.0,0.0,0.0,0.0,0.0,0.0,0.0,0.0,0.0,0.0,0.0,0.0,0.0,0.0,0.0,0.0,0.0,0.0,0.0,0.0,0.0,0.0,0.0,0.0,0.0,0.0,0.0,0.0,0.0,0.0,0.0,0.0,0.0,0.0,0.0,0.0,0.0,0.0,0.0,0.0,0.0,0.0,0.0,0.0,0.0,0.0,0.0,0.0,0.0,0.0,0.0,0.0,0.0,0.0,0.0,0.0,0.0,0.0,0.0,0.0,0.0,0.0,0.0,0.0,0.0,0.0,0.0,0.0,0.0,0.0,0.0,0.0,0.0,0.0,0.0,0.0,0.0,0.0,0.0,0.0,0.0,0.0,0.0,0.0,0.0,0.0,0.0,0.0,0.0,0.0,0.0,0.0,0.0,0.0,0.0,0.0,0.0,0.0,0.0,0.0,0.0,0.0,0.0,0.0,0.0,0.0,0.0,0.0,0.0,0.0,0.0,0.0,0.0,0.0,0.0,0.0,0.0,0.0,0.0,0.0,0.0,0.0,0.0,0.0,0.0,0.0,0.0,0.0,0.0,0.0,0.0,0.0,0.0,0.0,0.0,0.0,0.0,0.0,0.0,0.0,0.0,0.0,0.0,0.0,0.0,0.0,0.0,0.0,0.0,0.0,0.0,0.0,0.0,0.0,0.0,0.0,0.0,0.0,0.0,0.0,0.0,0.0,0.0,0.0,0.0,0.0,0.0,0.0,0.0,0.0,0.0,0.0,0.0,0.0,0.0,0.0,0.0,0.0,0.0,0.0,0.0,0.0,0.0,0.0,0.0,0.0,0.0,0.0,0.0,0.0,0.0,0.0,0.0,0.0,0.0,0.0,0.0,0.0,0.0,0.0,0.0,0.0,0.0,0.0,0.0,0.0,0.0,0.0,0.0,0.0,0.0,0.0,0.0,0.0,0.0,0.0,0.0,0.0,0.0,0.0,0.0,0.0,0.0,0.0,0.0,0.0,0.0,0.0,0.0,0.0,0.0,0.0,0.0,0.0,0.0,0.0,0.0,0.0,0.0,0.0,0.0,0.0,0.0,0.0,0.0,0.0,0.0,0.0,0.0,0.0,0.0,0.0,0.0,0.0,0.0,0.0,0.0,0.0,0.0,0.0,0.0,0.0,0.0,0.0,0.0,0.0,0.0,0.0,0.0,0.0,0.0,0.0,0.0,0.0,0.0,0.0,0.0,0.0,0.0,0.0,0.0,0.0,0.0,0.0,0.0,0.0,0.0,0.0,0.0,0.0,0.0,0.0,0.0,0.0,0.0,0.0,0.0,0.0,0.0,0.0,0.0,0.0,0.0,0.0,0.0,0.0,0.0,0.0,0.0,0.0,0.0,0.0,0.0,0.0,0.0,0.0,0.0,0.0,0.0,0.0,0.0,0.0,0.0,0.0,0.0,0.0,0.0,0.0,0.0,0.0,0.0,0.0,0.0,0.0,0.0,0.0,0.0,0.0,0.0,0.0,0.0,0.0,0.0,0.0,0.0,0.0,0.0,0.0,0.0,0.0,0.0,0.0,0.0,0.0,0.0,0.0,0.0,0.0,0.0,0.0,0.0,0.0,0.0,0.0,0.0,0.0,0.0,0.0,0.0,0.0,0.0,0.0,0.0,0.0,0.0,0.0,0.0,0.0,0.0,0.0,0.0,0.0,0.0,0.0,0.0,0.0,0.0,0.0,0.0,0.0,0.0,0.0,0.0,0.0,0.0,0.0,0.0,0.0,0.0,0.0,0.0,0.0,0.0,0.0,0.0,0.0,0.0,0.0,0.0,0.0,0.0,0.0,0.0,0.0,0.0,0.0,0.0,0.0,0.0,0.0,0.0,0.0,0.0,0.0,0.0,0.0,0.0,0.0,0.0,0.0,0.0,0.0,0.0,0.0,0.0,0.0,0.0,0.0,0.0,0.0,0.0,0.0,0.0,0.0,0.0,0.0,0.0,0.0,0.0,0.0,0.0,0.0,0.0,0.0,0.0,0.0,0.0,0.0,0.0,0.0,0.0,0.0,0.0,0.0,0.0,0.0,0.0,0.0,0.0,0.0,0.0,0.0,0.0,0.0,0.0,0.0,0.0,0.0,0.0,0.0,0.0,0.0,0.0,0.0,0.0,0.0,0.0,0.0,0.0,0.0,0.0,0.0,0.0,0.0,0.0,0.0,0.0,0.0,0.0,0.0,0.0,0.0,0.0,0.0,0.0,0.0,0.0,0.0,0.0,0.0,0.0,0.0,0.0,0.0,0.0,0.0,0.0,0.0,0.0,0.0,0.0,0.0,0.0,0.0,0.0,0.0,0.0,0.0,0.0,0.0,0.0,0.0,0.0,0.0,0.0,0.0,0.0,0.0,0.0,0.0,0.0,0.0,0.0,0.0,0.0,0.0,0.0,0.0,0.0,0.0,0.0,0.0,0.0,0.0,0.0,0.0,0.0,0.0,0.0,0.0,0.0,0.0,0.0,0.0,0.0,0.0,0.0,0.0,0.0,0.0,0.0,0.0,0.0,0.0,0.0,0.0,0.0,0.0,0.0,0.0,0.0,0.0,0.0,0.0,0.0,0.0,0.0,0.0,0.0,0.0,0.0,0.0,0.0,0.0,0.0,0.0,0.0,0.0,0.0,0.0,0.0,0.0,0.0,0.0,0.0,0.0,0.0,0.0,0.0,0.0,0.0,0.0,0.0,0.0,0.0,0.0,0.0,0.0,0.0,0.0,0.0,0.0,0.0,0.0,0.0,0.0,0.0,0.0,0.0,0.0,0.0,0.0,0.0,0.0,0.0,0.0,0.0,0.0,0.0,0.0,0.0,0.0,0.0,0.0,0.0,0.0,0.0,0.0,0.0,0.0,0.0,0.0,0.0,0.0,0.0,0.0,0.0,0.0,0.0,0.0,0.0,0.0,0.0,0.0,0.0,0.0,0.0,0.0,0.0,0.0,0.0,0.0,0.0,0.0,0.0,0.0,0.0,0.0,0.0,0.0,0.0,0.0,0.0,0.0,0.0,0.0,0.0,0.0,0.0,0.0,0.0,0.0,0.0,0.0,0.0,0.0,0.0,0.0,0.0,0.0,0.0,0.0,0.0,0.0,0.0,0.0,0.0,0.0,0.0,0.0,0.0,0.0,0.0,0.0,0.0,0.0,0.0,0.0,0.0,0.0,0.0,0.0,0.0,0.0,0.0,0.0,0.0,0.0,0.0,0.0,0.0,0.0,0.0,0.0,0.0,0.0,0.0,0.0,0.0,0.0,0.0,0.0,0.0,0.0,0.0,0.0,0.0,0.0,0.0,0.0,0.0,0.0,0.0,0.0,0.0,0.0,0.0,0.0,0.0,0.0,0.0,0.0,0.0,0.0,0.0,0.0,0.0,0.0,0.0,0.0,0.0,0.0,0.0,0.0,0.0,0.0,0.0,0.0,0.0,0.0,0.0,0.0,0.0,0.0,0.0,0.0,0.0,0.0,0.0,0.0,0.0,0.0,0.0,0.0,0.0,0.0,0.0,0.0,0.0,0.0,0.0,0.0,0.0,0.0,0.0,0.0,0.0,0.0,0.0,0.0,0.0,0.0,0.0,0.0,0.0,0.0,0.0,0.0,0.0,0.0,0.0,0.0,0.0,0.0,0.0,0.0,0.0,0.0,0.0,0.0,0.0,0.0,0.0,0.0,0.0,0.0,0.0,0.0,0.0,0.0,0.0,0.0,0.0,0.0,0.0,0.0,0.0,0.0,0.0,0.0,0.0,0.0,0.0,0.0,0.0,0.0,0.0,0.0,0.0,0.0,0.0,0.0,0.0,0.0,0.0,0.0,0.0,0.0,0.0,0.0,0.0,0.0,0.0,0.0,0.0,0.0,0.0,0.0,0.0,0.0,0.0,0.0,0.0,0.0,0.0,0.0,0.0,0.0,0.0,0.0,0.0,0.0,0.0,0.0,0.0,3.2219,2.9644,0.0,0.0,0.0,0.0,0.0,0.0,0.0,0.0,0.0,0.0,0.0,0.0,0.0,0.0,0.0,0.0,0.0,0.0,0.0,0.0,0.0,0.0,0.0,0.0,0.0,0.0,0.0,0.0,0.0,0.0,0.0,0.0,0.0,0.0,3.1097,3.0665,3.0662,3.1074,3.153,3.2411,3.365,3.2365,3.0889,2.9272,0.0,0.0,0.0,0.0,0.0,0.0,0.0,0.0,0.0,0.0,0.0,0.0,0.0,0.0,0.0,0.0,0.0,0.0,0.0,0.0,0.0,0.0,0.0,0.0,0.0,0.0,0.0,0.0,0.0,0.0,0.0,0.0,0.0,0.0,0.0,0.0,0.0,0.0,0.0,0.0,0.0,0.0,0.0,0.0,0.0,0.0,0.0,0.0,0.0,0.0,0.0,0.0,0.0,0.0,0.0,0.0,0.0,0.0,0.0,0.0,0.0,0.0,0.0,0.0,0.0,0.0,0.0,0.0,0.0,0.0,3.3745,3.2241,0.0,0.0,0.0,0.0,0.0,0.0,0.0,0.0,0.0,0.0,0.0,0.0,0.0,0.0,0.0,0.0,0.0,0.0,0.0,0.0,0.0,0.0,0.0,2.987,3.1134,3.2874,3.2886,3.279,0.0,0.0,0.0,0.0,0.0,3.1539,3.1379,3.1027,3.1238,3.2045,3.3287,3.4471,3.5604,3.5808,3.4337,3.1443,3.0645,0.0,0.0,0.0,0.0,0.0,0.0,0.0,0.0,0.0,0.0,0.0,0.0,0.0,0.0,0.0,0.0,0.0,0.0,0.0,0.0,0.0,0.0,0.0,0.0,0.0,0.0,0.0,0.0,0.0,0.0,0.0,0.0,0.0,0.0,0.0,0.0,0.0,0.0,0.0,0.0,0.0,0.0,0.0,0.0,0.0,0.0,0.0,0.0,0.0,0.0,0.0,0.0,0.0,0.0,0.0,0.0,0.0,0.0,0.0,0.0,0.0,0.0,0.0,3.678,3.6745,3.7363,3.6346,3.6088,3.6372,3.5352,3.5297,3.5696,3.2952,0.0,0.0,0.0,0.0,0.0,0.0,0.0,0.0,0.0,0.0,0.0,0.0,0.0,0.0,0.0,0.0,0.0,0.0,0.0,0.0,0.0,3.0458,3.21,3.3786,3.3247,3.28,3.2797,0.0,3.2094,3.0688,3.1244,3.1258,3.049,3.1847,3.2987,3.3859,3.6254,3.6794,3.5614,3.6385,3.6132,3.4999,3.4181,3.3013,3.1627,0.0,0.0,0.0,0.0,0.0,0.0,0.0,0.0,0.0,0.0,0.0,0.0,0.0,0.0,0.0,0.0,0.0,0.0,0.0,0.0,0.0,0.0,0.0,0.0,0.0,0.0,0.0,0.0,0.0,0.0,0.0,0.0,0.0,0.0,0.0,0.0,0.0,0.0,0.0,0.0,0.0,3.5422,3.5014,0.0,0.0,0.0,0.0,0.0,0.0,0.0,0.0,0.0,0.0,0.0,0.0,0.0,3.6757,3.753,3.8114,3.8723,3.9363,4.0092,4.0473,4.0565,3.9772,3.9388,3.93,3.8451,0.0,3.5257,3.5661,0.0,0.0,0.0,0.0,0.0,0.0,0.0,0.0,0.0,0.0,0.0,0.0,0.0,0.0,0.0,0.0,0.0,0.0,0.0,0.0,0.0,3.1546,3.3511,3.5196,3.5471,3.5318,3.4803,3.4767,3.3832,3.1699,3.1962,3.1766,3.0941,3.2177,3.3971,3.6274,3.7889,3.8587,3.8414,3.8846,3.8582,3.7769,3.7491,3.5882,3.3369,3.2842,0.0,0.0,0.0,0.0,0.0,0.0,0.0,0.0,0.0,0.0,0.0,0.0,0.0,0.0,0.0,0.0,0.0,0.0,0.0,0.0,0.0,0.0,0.0,0.0,0.0,0.0,0.0,0.0,0.0,0.0,0.0,0.0,0.0,0.0,0.0,0.0,0.0,0.0,0.0,3.4289,3.5304,3.4932,3.4828,3.4682,0.0,0.0,0.0,0.0,0.0,0.0,0.0,0.0,0.0,3.818,3.8397,3.896,3.9956,4.0065,4.0283,4.0654,4.0995,4.1059,4.0884,4.0037,3.9582,3.9425,3.9084,3.8455,3.7627,3.6904,3.5898,3.4723,0.0,0.0,0.0,0.0,3.424,3.3371,0.0,0.0,0.0,0.0,0.0,0.0,0.0,0.0,0.0,0.0,0.0,0.0,3.0491,3.2748,3.4868,3.6777,3.7385,3.728,3.6386,3.5947,3.4689,3.2379,3.227,3.2,3.1363,3.3135,3.5519,3.8514,3.9339,4.0057,4.0607,4.0646,4.0359,3.9747,3.9822,3.81,3.5083,3.4232,3.2901,3.1271,0.0,0.0,0.0,0.0,0.0,0.0,0.0,0.0,0.0,0.0,0.0,0.0,0.0,0.0,0.0,0.0,0.0,0.0,0.0,0.0,0.0,0.0,0.0,0.0,0.0,0.0,0.0,0.0,0.0,0.0,0.0,0.0,0.0,0.0,0.0,0.0,0.0,3.4907,3.5493,3.4988,3.5115,3.5236,0.0,0.0,0.0,0.0,0.0,0.0,3.9093,3.9512,3.997,4.0418,4.0473,4.0749,4.124,4.1122,4.1111,4.1221,4.1123,4.0982,4.0758,3.995,3.9519,3.9418,3.9371,3.9506,3.9641,3.8176,3.7354,3.6937,3.6063,3.4932,3.4004,3.6021,3.5806,3.4816,0.0,0.0,0.0,0.0,0.0,0.0,0.0,0.0,0.0,0.0,0.0,2.952,3.2087,3.39,3.5951,3.847,3.8023,3.7262,3.645,3.4852,3.316,3.1446,3.144,3.1378,3.1211,3.5321,3.8348,4.0182,4.1112,4.1234,4.0607,4.0588,4.0653,4.0713,4.059,3.918,3.6828,3.6003,3.4711,3.3028,3.1323,0.0,0.0,0.0,0.0,0.0,0.0,0.0,0.0,0.0,0.0,0.0,0.0,0.0,0.0,0.0,0.0,0.0,0.0,0.0,0.0,0.0,0.0,0.0,0.0,0.0,0.0,0.0,0.0,0.0,0.0,0.0,0.0,0.0,0.0,0.0,0.0,0.0,0.0,3.5742,3.7549,0.0,0.0,0.0,0.0,3.876,3.8812,3.9074,3.9529,4.0306,4.0165,3.8951,4.0476,4.0838,3.9709,4.0384,4.0721,4.0745,4.0924,4.1001,4.0984,4.0617,4.0377,4.0233,4.01,4.0006,3.9922,4.011,3.9528,3.8458,3.8145,3.6786,3.5211,3.6835,3.6955,3.6523,0.0,0.0,0.0,0.0,0.0,0.0,0.0,0.0,2.6367,2.6167,2.8518,3.0756,3.2221,3.4339,3.6448,3.8437,3.8416,3.7934,3.7031,3.5989,3.4631,3.2914,3.2368,3.2877,3.4501,3.7135,3.9069,4.0307,4.063,4.0709,4.055,4.0543,4.0583,4.0674,4.0675,4.0203,3.9353,3.7942,3.6721,3.5644,3.4455,3.3504,0.0,0.0,0.0,0.0,0.0,0.0,0.0,0.0,0.0,0.0,0.0,0.0,0.0,0.0,0.0,0.0,0.0,0.0,0.0,0.0,0.0,0.0,0.0,0.0,0.0,0.0,0.0,0.0,0.0,0.0,0.0,0.0,0.0,0.0,0.0,0.0,0.0,3.6969,3.8187,0.0,3.8169,3.8942,3.9751,4.0408,4.0693,4.0943,4.1206,4.1116,4.0911,4.0604,4.0902,4.0984,4.0758,4.0821,4.0894,4.1018,4.1035,4.1076,4.1041,4.0398,4.0162,4.0289,4.0162,4.0144,4.0233,4.0289,4.0071,3.958,3.8589,3.7831,3.7361,3.7912,3.7767,3.7359,0.0,0.0,0.0,0.0,0.0,0.0,0.0,0.0,2.6645,2.7207,2.9462,3.1553,3.2889,3.5047,3.6861,3.8007,3.8188,3.7768,3.6592,3.6093,3.505,3.3289,3.3242,3.4481,3.7119,3.829,3.9309,4.0234,4.0262,4.0316,4.0396,4.0444,4.0504,4.0574,4.0609,4.0694,4.0729,3.9542,3.8621,3.7898,3.7031,3.6009,3.5039,0.0,0.0,0.0,0.0,0.0,0.0,0.0,0.0,0.0,0.0,0.0,0.0,0.0,0.0,0.0,0.0,0.0,0.0,0.0,0.0,0.0,0.0,0.0,0.0,0.0,0.0,0.0,0.0,0.0,0.0,0.0,0.0,0.0,0.0,3.7542,3.8166,3.7538,3.8811,3.9691,3.9558,4.0407,4.1251,4.1917,4.1952,4.1927,4.1934,4.152,4.1318,4.1443,4.1065,4.0924,4.1035,4.0799,4.0734,4.0836,4.0871,4.0905,4.0871,4.0452,4.0365,4.0495,4.0523,4.0595,4.0631,4.0311,4.0297,4.0322,3.8677,3.7927,3.7713,3.7669,3.7408,3.7073,0.0,0.0,0.0,0.0,0.0,0.0,0.0,2.5369,2.6065,2.9195,3.0395,3.1887,3.4244,3.6088,3.7194,3.7289,3.7324,3.6697,3.5135,3.4946,3.413,3.244,3.3927,3.6025,3.8641,3.8788,3.9257,4.0106,4.0167,4.0186,4.0205,4.0325,4.0436,4.0484,4.0492,4.0609,4.0782,4.0724,4.0333,3.9665,3.8824,3.749,3.602,0.0,0.0,0.0,0.0,0.0,0.0,0.0,0.0,0.0,0.0,0.0,0.0,0.0,0.0,0.0,0.0,0.0,0.0,0.0,0.0,0.0,0.0,0.0,0.0,0.0,0.0,0.0,0.0,0.0,0.0,0.0,0.0,0.0,3.7719,3.7462,3.7401,3.7532,3.9613,4.1118,4.1241,4.2014,4.2721,4.3262,4.2351,4.1736,4.1604,4.1471,4.129,4.1093,4.0901,4.0638,4.0339,4.0331,4.0281,4.013,4.0379,4.0502,4.0534,4.0836,4.0971,4.0935,4.1244,4.1318,4.1116,4.0255,4.0262,4.0584,3.852,3.7137,3.6251,3.6126,3.5995,3.5818,0.0,0.0,0.0,0.0,0.0,0.0,2.5884,2.7264,2.8641,2.9495,3.1427,3.3162,3.4375,3.5503,3.6437,3.7024,3.6618,3.6107,3.5675,3.5088,3.454,3.4057,3.6193,3.7773,3.8615,3.9223,3.9694,4.0036,3.9988,4.0029,4.0118,4.0215,4.0295,4.0367,4.0515,4.0628,4.0726,4.0751,4.0674,4.0485,4.0296,3.9567,3.8587,0.0,0.0,0.0,0.0,0.0,0.0,0.0,0.0,0.0,0.0,0.0,0.0,0.0,0.0,0.0,0.0,0.0,0.0,0.0,0.0,0.0,0.0,0.0,0.0,0.0,0.0,0.0,0.0,0.0,0.0,0.0,3.6982,3.7644,3.8248,3.9676,4.0695,4.0734,4.1697,4.2383,4.2426,4.266,4.2851,4.2997,4.207,4.1453,4.1318,4.1152,4.0982,4.0793,4.0856,4.0857,4.0874,4.1027,4.1027,4.0823,4.09,4.0831,4.0648,4.0728,4.084,4.0894,4.0782,4.0924,4.1116,4.0147,4.0025,4.0314,3.8906,3.8057,3.7666,3.7835,3.7678,3.7301,0.0,0.0,0.0,0.0,0.0,0.0,2.6236,2.7297,2.8652,3.0263,3.184,3.32,3.4262,3.4876,3.5397,3.5876,3.5237,3.4671,3.4325,3.4151,3.4681,3.6058,3.7537,3.8529,3.8973,3.9524,3.9837,3.9922,3.9922,3.9943,4.0026,4.008,4.0177,4.0257,4.0414,4.0542,4.0661,4.0707,4.0739,4.0809,4.0809,4.0329,3.9636,3.9961,3.9577,3.8835,3.8803,3.8452,3.7978,3.7912,0.0,0.0,0.0,0.0,0.0,0.0,0.0,0.0,0.0,0.0,0.0,0.0,0.0,0.0,0.0,0.0,0.0,0.0,0.0,0.0,0.0,0.0,0.0,0.0,3.784,3.8833,3.981,4.1018,4.1964,4.2326,4.2983,4.3538,4.3878,4.3251,4.2959,4.3276,4.202,4.1157,4.0995,4.1229,4.1202,4.0831,4.1245,4.1432,4.1352,4.1466,4.1466,4.1352,4.1405,4.1345,4.1189,4.1265,4.1417,4.1648,4.1532,4.1515,4.1498,4.0907,4.0591,4.0348,0.0,0.0,0.0,0.0,3.7553,3.6944,0.0,0.0,0.0,0.0,0.0,0.0,2.6664,2.6488,2.7531,3.1214,3.1782,3.2415,3.3893,3.4081,3.4139,3.4244,3.3571,3.2903,3.2354,3.3201,3.5011,3.7952,3.8234,3.8684,3.9471,3.9677,3.977,3.977,3.9826,3.9867,3.9867,3.9954,4.0049,4.0177,4.0261,4.0408,4.0586,4.0595,4.0666,4.0776,4.0719,4.0314,3.9801,4.0524,4.035,3.9723,3.9788,3.9739,3.963,3.9676,0.0,0.0,0.0,0.0,0.0,0.0,0.0,0.0,0.0,0.0,0.0,0.0,0.0,0.0,0.0,0.0,0.0,0.0,0.0,0.0,0.0,0.0,0.0,0.0,3.915,4.1251,4.2,4.2044,4.2206,4.2833,4.3538,4.4219,4.4947,4.3558,4.2922,4.3617,4.1957,4.083,4.0648,4.1442,0.0,0.0,0.0,4.2175,4.1777,4.1832,4.186,4.1833,4.1983,4.2015,4.1959,4.2139,4.239,4.268,4.2681,4.2421,4.195,4.1839,4.1353,4.0566,3.9505,3.9103,3.8938,3.7617,3.6625,3.5861,0.0,0.0,0.0,0.0,0.0,0.0,2.6696,2.7805,2.9349,3.1425,3.1214,3.1463,3.3057,3.2637,3.253,3.3291,3.259,3.2545,3.364,3.5719,3.7222,3.7915,3.8561,3.9088,3.9406,3.9514,3.957,3.9563,3.9631,3.9686,3.9734,3.9867,3.9935,3.9977,4.0196,4.036,4.0444,4.05,4.0564,4.0641,4.0681,4.066,4.0585,4.074,4.0678,4.0589,4.133,4.1106,4.0572,4.1207,3.9863,3.7989,3.821,3.7276,0.0,0.0,0.0,0.0,0.0,0.0,0.0,0.0,0.0,0.0,0.0,0.0,0.0,0.0,0.0,0.0,0.0,0.0,0.0,4.1861,4.2849,4.354,4.3935,4.4143,4.3921,4.3004,4.2994,4.3079,4.3127,4.2525,4.2147,4.2189,4.1104,4.0362,4.0221,4.0951,4.1247,4.1002,4.2071,4.2515,4.2348,4.2664,4.2765,4.2674,4.2797,0.0,4.24,4.2679,4.2714,4.2499,4.1826,4.1588,4.1627,4.0922,4.0629,4.0559,3.9836,3.9628,3.9534,3.7996,3.7331,3.7133,0.0,0.0,0.0,0.0,0.0,0.0,2.6585,2.7785,2.9185,3.0696,3.0671,3.092,3.2076,3.1508,3.1372,3.2167,3.1871,3.2483,3.4421,3.5803,3.71,3.8302,3.8799,3.9092,3.9212,3.9341,3.9413,3.9401,3.9496,3.9564,3.9601,3.9735,3.9804,3.9807,4.0049,4.0206,4.0299,4.0351,4.0433,4.0557,4.0591,4.0668,4.0757,4.0758,4.1016,4.1454,4.1861,4.2002,4.2053,4.2386,4.1605,4.0399,3.9836,3.8975,3.7928,0.0,0.0,0.0,0.0,0.0,0.0,0.0,0.0,0.0,0.0,0.0,0.0,0.0,0.0,3.6327,3.8671,0.0,4.1123,4.3206,4.3868,4.4276,4.4779,4.4912,4.4528,4.3424,4.3576,4.3685,4.3565,4.2545,4.2031,4.2377,4.1509,4.0807,4.0465,4.1694,4.2196,4.1749,4.276,4.3228,4.3035,4.334,4.3475,4.3401,4.3528,4.3525,4.3392,4.3491,4.3406,4.3148,4.3191,4.2595,4.151,4.0518,4.0213,4.0319,4.0089,3.9585,3.886,3.8122,3.7525,3.705,0.0,0.0,0.0,0.0,0.0,0.0,0.0,2.7613,2.8644,2.9905,3.0092,3.0365,3.106,3.0514,3.0304,3.0852,3.1532,3.2726,3.4577,3.5312,3.6568,3.8621,3.8833,3.8921,3.895,3.9129,3.9205,3.9219,3.9331,3.9414,3.9439,3.9563,3.9635,3.9658,3.9859,4.0017,4.0138,4.0167,4.0297,4.0473,4.0473,4.0561,4.0673,4.0673,4.1152,4.1814,4.1705,4.1943,4.2311,4.2541,4.2354,4.1835,4.065,4.0177,3.9571,3.7135,3.6782,0.0,0.0,0.0,0.0,0.0,0.0,0.0,0.0,0.0,3.5311,3.7314,3.7295,3.7719,4.0341,4.0774,4.1418,4.3568,4.4037,4.4354,4.5112,4.5027,4.4607,4.3809,4.4174,4.4344,4.3963,4.2599,4.1892,4.2338,4.1733,4.117,4.0729,4.2446,4.3182,4.2576,4.3481,4.3852,4.3598,4.3793,4.3868,4.3822,4.4039,4.4212,4.431,4.427,4.4114,4.3975,4.4614,4.3622,4.1452,4.0544,4.0104,4.0037,4.0163,3.9357,3.8095,3.8172,3.7588,3.6721,0.0,0.0,0.0,0.0,0.0,0.0,0.0,0.0,2.9165,2.9905,2.946,2.9362,3.0167,2.9485,2.8998,2.9077,3.1783,3.3524,3.3658,3.5757,3.7426,3.841,3.8525,3.8634,3.8822,3.8833,3.8877,3.895,3.9017,3.9101,3.9156,3.9337,3.9427,3.9439,3.9712,3.9859,3.9935,4.0067,4.0234,4.0402,4.0402,4.0495,4.0595,4.0546,4.0665,4.0855,4.0842,3.9908,3.8917,4.0371,3.9733,3.8522,3.9814,4.0038,3.9485,3.7692,3.7181,3.6791,3.4978,3.4901,3.5438,3.5874,3.6613,3.7524,0.0,0.0,3.9104,3.9734,4.0995,4.2217,4.2902,4.3586,4.4345,4.5218,4.466,4.4354,4.5112,4.482,4.4378,4.3854,4.3696,4.3172,4.2038,4.1622,4.1061,4.0144,4.0281,4.0408,4.037,4.1966,4.2822,4.2687,4.3707,4.4051,4.3598,4.3793,4.3793,4.3628,4.408,4.4281,4.4293,4.4609,4.4597,4.4406,4.3966,4.2828,4.1239,4.1231,4.0637,3.9755,3.9884,3.9277,3.8346,3.8241,3.7797,3.715,0.0,0.0,0.0,0.0,0.0,0.0,0.0,0.0,0.0,2.921,2.8937,2.8852,2.9191,2.8899,2.8899,2.9391,3.1117,3.2748,3.4035,3.5599,3.6978,3.8163,3.8336,3.8435,3.8499,3.859,3.8634,3.8664,3.8818,3.8906,3.8935,3.9129,3.9237,3.9251,3.9464,3.9623,3.9728,3.9859,4.0038,4.0234,4.0262,4.0344,4.0389,3.9922,3.9758,3.9764,3.9805,3.9054,0.0,3.9295,3.8795,3.7888,3.8984,3.8509,3.7392,3.6629,3.6359,3.6183,3.5814,3.5893,3.6213,3.683,3.7951,3.914,4.0043,4.0196,4.0418,4.1447,4.1745,4.2163,4.3254,4.3608,4.4023,4.4933,4.4461,4.4062,4.429,4.3986,4.3751,4.3737,4.3639,4.3091,4.1871,4.1293,4.0774,4.0251,4.0723,4.1012,4.0945,4.2599,4.3501,4.3398,4.3901,4.4039,4.3763,4.3939,4.3939,4.3763,4.4138,4.435,4.4435,4.4609,4.472,4.4729,4.3574,4.3012,4.2834,4.1903,4.1155,4.0542,4.0069,3.9319,3.853,3.8535,3.8238,3.7746,0.0,0.0,0.0,0.0,0.0,0.0,0.0,0.0,0.0,0.0,2.8625,2.86,2.86,2.86,2.8848,2.9466,3.0241,3.1596,3.3686,3.4847,3.6132,3.7621,3.7796,3.7972,3.8206,3.8083,3.8255,3.8727,3.8905,3.9016,3.9062,3.9442,3.9559,3.9407,3.9573,3.9744,3.9908,3.9771,3.9837,4.0046,4.0108,4.0206,4.0212,3.9672,3.9188,3.8764,3.8796,3.8139,3.7329,3.8027,3.7641,3.7015,3.7723,3.7141,3.6103,3.5567,3.5168,3.5088,3.599,3.6374,0.0,3.7529,3.8789,4.0006,4.0591,4.0599,4.0745,4.1751,4.1642,4.1709,4.2825,4.3005,4.3275,4.408,4.3595,4.3179,4.3325,4.3016,4.2903,4.3263,4.3213,4.2715,4.1738,4.1399,4.1105,4.0735,4.1236,4.1547,4.1506,4.2962,4.3776,4.3822,4.4094,4.414,4.3881,4.434,4.441,4.4079,4.4524,4.474,4.4682,4.4553,4.4609,4.4746,4.3649,4.3456,4.3835,4.2698,4.1818,4.1127,4.0509,3.9749,3.9017,3.9135,3.8708,3.8065,0.0,0.0,0.0,0.0,0.0,0.0,0.0,0.0,0.0,0.0,0.0,0.0,0.0,2.86,2.8574,2.8541,2.9281,3.0336,3.1793,3.3429,3.5044,3.6574,3.6714,3.7141,3.7983,3.7259,3.7654,3.9278,3.9418,3.9536,3.9699,4.0549,4.067,4.0159,4.0232,4.0421,4.0619,3.9833,3.9658,3.9911,3.9975,4.0099,4.0205,4.0187,3.9239,3.7942,3.7873,3.6733,3.5409,3.6119,3.5723,3.5009,3.5757,3.6438,3.6642,3.4944,3.3801,3.3405,3.4932,3.5813,3.6683,3.8196,3.9143,3.9851,4.0382,4.0438,4.0347,4.0137,4.1138,4.2023,4.188,4.2366,4.2831,4.2943,4.1962,4.147,4.2323,4.1995,4.1818,4.2289,4.2112,4.1683,4.0992,4.1976,4.2183,4.1078,4.1325,4.1578,4.1776,4.2523,4.3129,4.3578,4.4307,4.4401,4.3802,4.5097,4.5307,4.449,4.546,4.5687,4.5152,4.4589,4.4293,4.4338,4.4412,4.4045,4.3447,4.371,4.2788,4.1204,4.1187,4.0713,4.0037,4.0054,3.914,3.7905,0.0,0.0,0.0,0.0,0.0,0.0,0.0,0.0,0.0,0.0,0.0,0.0,0.0,0.0,0.0,0.0,2.9485,3.0272,3.1784,3.2798,3.3824,3.483,3.5916,3.663,3.6881,3.7828,3.8564,3.9031,3.9662,4.0041,4.0165,4.0507,4.0677,4.0669,4.0827,4.07,4.037,4.0309,4.0002,3.9594,3.9792,3.9892,3.9823,3.8851,3.7776,3.6624,0.0,3.4789,3.4437,3.4589,3.3998,3.3337,3.402,3.3987,3.3639,3.3417,3.3488,3.3981,3.5492,3.6024,3.6673,3.8736,3.9319,3.9567,4.0275,4.0217,4.0092,4.0349,3.9847,3.9627,4.0403,4.0403,4.0486,4.1086,4.1064,4.1069,4.1358,4.1008,4.0951,4.15,4.1312,4.1144,4.1087,4.128,4.1171,4.071,4.1116,4.1518,4.1912,4.2766,4.3251,4.3279,4.3797,4.4135,4.42,4.4384,4.4563,4.4765,4.4846,4.5022,4.5316,4.4749,4.4497,4.4542,4.4824,4.4661,4.4141,4.3552,4.2757,4.183,4.0832,4.0333,4.0121,4.0296,4.0105,3.9604,0.0,0.0,0.0,0.0,0.0,0.0,0.0,0.0,0.0,0.0,0.0,0.0,0.0,0.0,0.0,0.0,0.0,2.9607,3.0823,3.1836,3.2734,3.3503,3.478,3.5581,3.5829,3.6756,3.7632,3.84,3.9262,3.9929,4.0346,4.0924,4.1216,4.1296,4.1431,4.1333,4.1045,4.0989,4.0344,3.9414,3.9642,3.9407,3.879,3.7857,3.6947,0.0,3.4566,3.3788,3.3369,3.2918,3.2543,3.2298,3.2405,3.1989,3.1641,3.2508,3.3129,3.3902,3.5655,3.6318,3.6991,3.9043,3.9367,3.9337,3.9824,3.9831,3.9747,3.9835,3.8831,3.8203,3.9068,3.902,3.8951,3.9247,3.9853,4.0261,4.0131,3.9954,3.9994,4.0438,4.0397,4.0413,4.0606,4.0487,4.0512,4.0795,4.1139,4.1539,4.212,4.2653,4.2959,4.3037,4.3467,4.3819,4.4031,4.4483,4.5166,4.5989,4.5514,4.5458,4.5689,4.5125,4.4795,4.4598,4.4886,4.4831,4.4558,4.3846,4.3087,4.2202,4.1315,4.0637,4.0213,4.0461,4.0673,4.0597,0.0,0.0,0.0,0.0,0.0,0.0,0.0,0.0,0.0,0.0,0.0,0.0,0.0,0.0,0.0,0.0,0.0,0.0,2.898,3.0501,3.1722,3.2517,3.3314,3.4093,3.4889,3.4321,3.5119,3.743,3.8289,3.9188,4.0091,4.1502,4.2022,4.1793,4.1811,4.2016,4.2292,4.1548,4.0463,3.9276,3.9401,3.8587,3.7271,3.7259,3.6781,3.5987,3.4946,3.3618,3.2193,3.1271,3.1456,3.1962,3.1175,3.0775,3.0916,3.2447,3.2851,3.3296,3.5469,3.6598,3.7533,3.9052,3.9262,3.9121,3.9031,3.9251,3.9277,3.8549,3.7983,3.7666,0.0,0.0,3.8215,3.7638,3.8488,3.9103,3.8806,3.8897,3.9017,0.0,0.0,0.0,0.0,0.0,4.0167,4.1237,4.135,4.1656,4.2381,4.2254,4.2349,4.2868,4.3234,4.3426,4.3408,4.5338,4.6783,4.7786,4.7216,4.6691,4.6196,4.5606,4.5086,4.4587,4.4598,4.4615,4.4598,4.4513,4.3633,4.2313,4.2351,4.152,4.033,4.0624,4.0793,4.0832,0.0,0.0,0.0,0.0,0.0,0.0,0.0,0.0,0.0,0.0,0.0,0.0,0.0,0.0,0.0,0.0,0.0,0.0,2.8056,2.9054,2.9906,3.0518,3.1966,3.3038,3.3648,3.4851,3.5736,3.6297,3.7339,3.7949,3.8201,3.8741,3.8978,3.9025,3.923,3.9097,3.8735,3.8775,3.8214,3.7339,3.7616,3.7467,3.7016,3.6521,3.5838,3.4941,3.3399,3.2203,3.1412,3.175,3.1844,3.208,3.3634,3.3192,3.2507,3.4783,3.4936,3.47,3.6444,3.6924,3.7194,3.8158,3.8221,3.808,3.8062,3.7855,3.7594,3.7363,3.6023,3.5266,3.6506,3.6251,3.6388,3.806,3.8807,0.0,3.9815,3.921,0.0,3.9176,0.0,3.8237,3.8452,3.8634,3.9221,4.0344,4.1182,4.1934,4.2539,4.2508,4.2508,4.2539,4.2717,4.3071,4.3617,4.4378,4.4913,4.514,4.471,4.4713,4.5106,4.4742,4.4524,4.4395,4.4637,4.4682,4.4513,4.3379,4.2642,4.2211,4.124,4.0628,4.0355,4.0834,4.1023,4.1035,0.0,0.0,0.0,0.0,0.0,0.0,0.0,0.0,0.0,0.0,0.0,0.0,0.0,0.0,0.0,0.0,0.0,0.0,0.0,2.9013,2.9757,3.0347,3.1671,3.2512,3.2754,3.3881,3.4604,3.492,3.5898,3.6594,3.704,3.7433,3.7757,3.7984,3.7824,3.7801,3.7882,3.7767,3.7498,0.0,0.0,3.7067,3.6426,3.6131,3.5484,3.4567,3.3248,3.2622,3.251,0.0,0.0,3.2981,3.4308,3.3981,3.3468,3.5196,3.5517,3.5614,3.6776,3.7312,3.7593,3.791,3.815,3.8169,3.7757,3.7829,3.7812,3.7091,3.5971,3.5152,3.5222,3.5338,3.5591,0.0,0.0,0.0,3.8623,3.8028,3.7902,0.0,3.8204,0.0,3.8362,3.8792,3.943,4.0282,4.0915,4.1579,4.2349,4.2476,4.2413,4.2174,4.2381,4.2942,4.3814,4.3846,4.4168,4.4669,4.4447,4.4483,4.4702,4.4779,4.4613,4.4338,4.4648,4.4478,4.3911,4.305,4.2227,4.149,4.0848,4.0451,4.0263,4.0745,4.0976,4.107,0.0,0.0,0.0,0.0,0.0,0.0,0.0,0.0,0.0,0.0,0.0,0.0,0.0,0.0,0.0,0.0,0.0,0.0,0.0,0.0,3.0407,3.106,3.1828,3.2214,3.2214,3.2404,3.2842,3.3547,3.427,3.5084,3.5936,3.6452,3.6863,3.7191,3.6459,3.6653,3.7522,3.7074,3.7031,3.7275,3.7484,3.677,3.5653,0.0,3.535,3.4603,3.3773,0.0,0.0,0.0,3.4358,3.4412,3.4568,3.4388,3.427,3.506,3.5678,3.6235,3.6973,3.7697,3.8223,3.8036,3.8474,3.8725,3.781,3.8341,3.855,3.7044,3.6531,3.5836,3.4108,3.4878,3.5245,3.3652,0.0,3.6688,3.684,3.6613,3.7003,3.8443,3.8003,3.7894,3.8629,3.9376,4.0083,4.0596,4.0667,4.1118,4.2094,4.2286,4.2206,4.1931,4.227,4.2878,4.3781,4.3509,4.3881,4.4917,4.4981,4.4795,4.4509,4.5005,4.4875,4.4281,4.4637,4.4169,4.3182,4.3109,4.2114,4.0631,4.0807,4.0569,4.0188,4.06,4.0817,4.1006,0.0,0.0,0.0,0.0,0.0,0.0,0.0,0.0,0.0,0.0,2.9789,3.0062,0.0,0.0,0.0,0.0,0.0,0.0,0.0,0.0,0.0,3.106,3.1301,3.1669,3.2283,3.2439,3.256,3.2701,3.3076,3.335,3.3507,3.3118,3.2993,3.3094,3.2411,3.2274,3.2595,3.3375,3.3759,3.3924,3.4824,3.5038,3.4819,3.4902,0.0,0.0,0.0,0.0,0.0,0.0,3.548,3.6089,3.7452,3.6879,3.6,3.7433,3.7476,3.721,3.7887,3.8096,3.8103,3.7951,3.833,3.856,3.7846,3.7548,0.0,0.0,3.4922,3.4296,3.3458,3.3716,3.435,3.5321,3.6209,3.7104,3.8104,3.8018,3.8041,0.0,3.7755,3.7431,3.7998,3.8982,3.9797,4.0331,4.1123,4.1835,4.2491,4.2174,4.2012,4.2045,4.2381,4.2604,4.267,4.2638,4.2703,4.2911,4.3164,4.3348,4.3385,4.4047,4.4202,4.3998,4.457,4.413,4.3009,4.2608,4.1796,4.0732,4.0382,4.0256,4.033,4.084,4.1047,4.1093,0.0,0.0,0.0,0.0,0.0,0.0,0.0,2.87,2.8947,2.9797,3.0231,3.0745,3.1448,3.1441,3.1335,0.0,0.0,0.0,0.0,0.0,0.0,0.0,3.1681,3.2085,3.2404,3.2607,3.2706,3.2706,0.0,3.3042,3.3106,3.2805,3.2733,3.2792,3.1656,3.1448,3.197,3.1673,3.237,3.3718,3.4239,3.4798,3.5327,0.0,0.0,0.0,0.0,0.0,0.0,0.0,3.5702,3.7092,3.8303,3.8034,3.7398,3.8211,3.8077,3.7729,3.8096,3.8119,3.8018,3.7828,3.8294,3.8471,3.7256,0.0,0.0,0.0,3.4222,3.3971,3.3059,3.3674,3.4656,3.5674,3.6259,3.7035,3.8313,3.7763,3.7508,3.8209,3.7572,3.7258,3.7665,3.9037,3.9978,4.0119,4.1209,4.2027,4.2492,4.2125,4.1947,4.2109,4.2077,4.2206,4.2508,4.2349,4.2429,4.2774,4.2945,4.3082,4.3281,4.3906,4.4126,4.4027,4.4452,4.4041,4.3082,4.2785,4.2141,4.1295,4.0637,4.0611,4.0932,4.059,4.0697,4.1006,0.0,0.0,0.0,0.0,0.0,0.0,0.0,2.8731,2.9064,3.0097,3.0737,3.1452,3.2371,3.2354,3.2211,0.0,0.0,0.0,0.0,0.0,0.0,0.0,0.0,0.0,0.0,0.0,0.0,3.293,3.3086,0.0,0.0,0.0,0.0,0.0,3.1659,3.1393,3.2046,3.0862,3.1684,0.0,0.0,3.4746,0.0,0.0,0.0,0.0,0.0,0.0,0.0,0.0,3.5465,3.6916,3.7848,3.8131,3.8116,3.8145,3.7982,3.7869,3.8048,3.8035,3.7969,3.7954,3.8526,3.8631,3.6915,3.6921,0.0,3.4177,3.4065,3.41,3.311,3.3948,3.4911,0.0,3.5868,3.6681,3.7936,3.7275,3.699,3.7824,3.7432,0.0,3.7427,3.9005,4.0037,3.9982,4.1247,4.2077,4.2222,4.2077,4.2012,4.2061,4.1818,4.198,4.2539,4.2318,4.246,4.3052,4.3082,4.3174,4.3342,4.3889,4.408,4.3952,4.4236,4.3743,4.278,4.2696,4.2094,4.1188,4.0771,4.0824,4.1104,4.0468,4.0449,4.0776,0.0,0.0,0.0,0.0,0.0,0.0,0.0,2.8731,2.9252,3.081,3.1056,3.1679,3.3204,3.3273,3.288,0.0,0.0,0.0,0.0,0.0,0.0,0.0,0.0,0.0,0.0,0.0,0.0,3.307,3.3289,0.0,0.0,0.0,0.0,0.0,0.0,3.0338,3.0595,3.052,0.0,0.0,0.0,0.0,0.0,0.0,0.0,0.0,0.0,0.0,0.0,0.0,0.0,3.4565,3.5911,3.6908,3.7543,3.7372,0.0,0.0,3.7935,3.8002,3.8061,3.8635,3.9253,3.9295,3.7659,0.0,3.7514,3.5168,3.4525,3.4332,3.4092,3.4019,3.4141,3.4537,3.5211,3.6001,3.6987,3.739,3.7615,3.7707,0.0,0.0,3.7279,3.8425,3.9372,3.995,4.1451,4.2142,4.1687,4.2125,4.2238,4.1931,4.1996,4.2174,4.2413,4.2381,4.2539,4.293,4.3021,4.3113,4.3143,4.3492,4.3582,4.3462,4.3743,4.2916,4.1394,4.1503,4.058,3.9188,4.0209,4.0267,3.9882,4.09,4.0866,4.0387,0.0,0.0,0.0,0.0,0.0,0.0,2.8923,2.887,2.9412,3.1069,3.119,3.1738,3.3437,3.3466,3.324,3.2915,0.0,0.0,0.0,0.0,0.0,0.0,0.0,0.0,0.0,0.0,3.3551,3.3993,3.3669,0.0,0.0,0.0,0.0,0.0,0.0,3.101,3.1062,3.015,0.0,0.0,0.0,0.0,0.0,0.0,0.0,0.0,0.0,0.0,3.4476,0.0,0.0,0.0,3.4828,3.534,0.0,0.0,3.7137,3.7114,3.7272,3.7607,3.781,3.7416,3.827,3.8642,3.6487,0.0,3.697,3.457,3.4245,3.4507,3.4859,3.4711,3.4922,3.601,3.6164,3.6596,3.7903,3.7921,3.7666,3.7281,3.7392,3.7206,3.6408,3.8136,3.9753,4.0896,4.1726,4.2109,4.1916,4.2222,4.219,4.1736,4.1948,4.2142,4.2206,4.2349,4.2571,4.2899,4.3037,4.3113,4.3096,4.3462,4.3568,4.3539,4.3641,4.3398,4.2903,4.2323,4.1735,4.1143,4.0663,4.0427,4.0323,4.0355,4.0341,4.0269,0.0,0.0,0.0,0.0,0.0,2.8707,2.8927,2.8929,2.9496,3.1182,3.1263,3.1818,3.3529,3.3563,3.3452,3.3422,3.3367,0.0,0.0,0.0,0.0,0.0,0.0,0.0,0.0,0.0,3.4113,3.4664,3.448,3.4552,0.0,0.0,3.4072,3.3818,0.0,0.0,0.0,0.0,0.0,0.0,0.0,0.0,0.0,0.0,0.0,0.0,0.0,0.0,0.0,0.0,0.0,0.0,0.0,0.0,0.0,0.0,3.6465,3.6522,3.6707,3.7182,3.7541,3.7019,3.7642,3.7822,0.0,0.0,3.6582,3.4393,3.4367,3.4942,3.5587,3.5545,3.5685,3.6635,3.6701,3.6996,3.8103,3.7683,3.7143,3.6828,3.7112,3.6906,3.5842,3.8009,4.0056,4.1412,4.1916,4.2109,4.1948,4.227,4.2222,4.1703,4.1785,4.1883,4.1948,4.2029,4.2329,4.279,4.2596,4.2673,4.3052,4.3068,4.3174,4.3388,4.3312,4.3376,4.3423,4.2352,4.1894,4.1785,4.0718,4.0271,4.0174,4.0034,3.9992,4.0011,0.0,0.0,0.0,0.0,0.0,0.0,2.8777,2.8905,2.9496,3.1182,3.1352,3.1931,3.361,3.3671,3.3577,3.3491,3.3437,0.0,0.0,0.0,0.0,0.0,0.0,0.0,0.0,0.0,3.4714,3.4805,3.5801,3.584,3.5004,3.5187,3.4824,3.3998,0.0,0.0,0.0,0.0,0.0,0.0,0.0,0.0,0.0,0.0,0.0,0.0,0.0,0.0,0.0,0.0,0.0,0.0,0.0,3.2567,3.291,0.0,3.5008,3.552,3.6378,3.6843,3.7302,3.8078,3.7805,3.7048,0.0,3.652,3.6739,3.5116,3.5155,3.5687,3.6367,3.6385,3.6135,3.5689,3.6339,3.6928,3.7012,3.6265,3.5923,0.0,3.6201,3.5958,3.5806,3.8054,3.9992,4.1213,4.198,4.219,4.1621,4.2238,4.2381,4.1898,4.1505,4.1423,4.1588,4.1421,4.1735,4.2586,4.1539,4.1664,4.2883,4.215,4.2215,4.2899,4.2696,4.2431,4.2032,4.0954,4.0209,3.9777,4.001,3.9566,3.8958,4.0149,4.0127,3.9489,0.0,0.0,0.0,0.0,0.0,0.0,0.0,2.9175,2.9735,3.1335,3.1477,3.2052,3.3623,3.3766,3.3726,3.3712,3.3563,0.0,0.0,0.0,0.0,0.0,0.0,0.0,0.0,0.0,3.4683,3.5754,3.5667,3.6058,3.6897,3.5843,3.5273,3.5064,3.4512,3.3841,0.0,0.0,0.0,0.0,0.0,0.0,0.0,0.0,0.0,0.0,0.0,0.0,0.0,0.0,0.0,0.0,0.0,0.0,0.0,3.3713,3.4194,3.467,3.484,3.5278,3.5579,3.524,3.5491,3.5545,3.4569,3.5452,3.6125,3.5029,3.5707,3.6551,3.6612,3.6523,3.6276,3.58,3.596,3.6225,3.642,3.6605,0.0,3.6328,3.6293,3.6787,3.8065,3.8997,4.0056,4.1412,4.1834,4.2012,4.1948,4.1916,4.1851,4.1703,4.1785,4.172,4.139,4.1693,4.1933,4.2109,4.2087,4.2259,4.2539,4.2391,4.2486,4.2696,4.2759,4.2892,4.2917,4.2088,4.1278,4.0561,4.0224,3.9583,3.892,3.9797,3.9482,3.8619,0.0,0.0,0.0,0.0,0.0,0.0,0.0,2.9532,3.0217,3.1466,3.1874,3.2508,3.3779,3.3934,3.3934,3.3868,3.3793,0.0,0.0,0.0,0.0,0.0,0.0,0.0,0.0,3.4348,3.5464,3.6775,3.6449,3.6822,3.7807,3.6582,3.5857,3.5632,3.5467,3.4749,0.0,0.0,0.0,0.0,0.0,0.0,3.4898,0.0,0.0,0.0,0.0,0.0,0.0,0.0,0.0,0.0,0.0,0.0,0.0,0.0,3.3189,3.3858,3.3989,3.4427,3.4711,3.4109,3.4234,3.4323,3.3688,0.0,3.5417,3.4905,3.5937,3.6869,3.6664,3.6724,3.6578,3.5912,3.5966,3.6241,3.6642,3.677,3.6803,3.6776,3.687,3.763,3.9298,3.9771,4.0404,4.1411,4.1801,4.198,4.1916,4.1801,4.1637,4.1489,4.1687,4.1654,4.129,4.131,4.1422,4.1597,4.1221,4.136,4.1963,4.1861,4.2085,4.2602,4.2806,4.3054,0.0,4.2522,4.192,4.1324,4.0506,3.9858,3.9386,3.9647,3.9148,3.8395,0.0,0.0,0.0,0.0,0.0,0.0,0.0,2.9902,3.0721,3.1591,3.2351,3.3148,3.4019,3.4173,3.4161,3.4036,0.0,0.0,0.0,0.0,0.0,0.0,0.0,0.0,3.5192,3.6003,3.6856,3.7706,3.7789,3.7856,3.7902,3.7231,3.6492,3.5761,3.6694,3.6208,3.4688,0.0,0.0,0.0,3.4877,3.4897,0.0,0.0,0.0,0.0,0.0,0.0,0.0,0.0,0.0,0.0,0.0,0.0,0.0,0.0,0.0,0.0,0.0,3.4129,3.4423,3.4308,3.386,3.3424,3.3281,0.0,0.0,3.4781,3.5827,3.6678,3.6527,3.6904,3.6906,3.5941,3.6191,3.6764,3.7417,3.6878,3.6779,3.7707,3.7939,3.8483,3.9578,4.0388,4.0927,4.126,4.1753,4.1916,4.1588,4.1752,4.1686,4.1323,4.1323,4.1323,4.129,4.0515,4.0495,4.1134,3.9479,3.9618,4.1336,4.0829,4.131,4.2571,4.2775,4.2945,4.3033,4.2455,4.216,4.1993,4.0833,4.0365,4.0233,3.9698,3.9113,3.8589,0.0,0.0,0.0,0.0,0.0,0.0,0.0,0.0,0.0,0.0,3.2024,3.2676,3.4108,3.4269,3.4281,0.0,0.0,0.0,0.0,0.0,0.0,0.0,0.0,0.0,3.5259,3.6226,3.7115,3.7928,3.7398,3.748,3.8103,3.671,3.601,3.5855,3.6095,3.5993,3.555,3.5052,0.0,0.0,3.4888,3.4889,0.0,0.0,0.0,0.0,3.4645,3.478,0.0,0.0,0.0,0.0,0.0,0.0,0.0,0.0,3.1869,3.1758,3.2965,0.0,3.3052,3.3035,3.303,3.2989,0.0,0.0,0.0,0.0,0.0,3.6132,3.6443,3.6519,3.6337,3.5745,3.5752,3.6211,3.7325,3.8266,3.8814,3.8832,3.9159,3.9463,3.9752,4.0404,4.0927,4.126,4.1423,4.1456,4.139,4.1423,4.1456,4.1522,4.1522,4.1406,4.1169,4.1435,4.155,4.1482,4.1468,4.1563,4.1773,4.1646,4.1789,4.2238,4.2445,4.2665,4.2945,4.304,4.2692,4.2058,4.1558,4.0929,4.0243,3.9814,3.9002,3.8214,0.0,0.0,0.0,0.0,0.0,0.0,0.0,0.0,0.0,0.0,0.0,0.0,0.0,0.0,0.0,0.0,0.0,0.0,0.0,0.0,0.0,0.0,0.0,3.5819,3.6608,3.7194,3.7698,3.8134,3.741,3.727,3.7723,3.6908,3.6371,3.6017,3.5618,3.5438,3.5438,3.5483,3.5267,3.4936,3.5363,0.0,0.0,0.0,0.0,0.0,3.3941,3.3936,0.0,3.3263,3.2413,3.1846,0.0,0.0,0.0,0.0,3.2105,3.1873,3.2901,3.2726,3.2277,3.2468,3.2706,3.2836,3.2623,0.0,0.0,0.0,0.0,3.5514,3.5968,3.6143,3.6156,0.0,3.6174,3.6683,3.7244,3.8134,3.8763,3.891,3.9613,4.0203,4.0385,4.1087,4.1501,4.1458,4.1538,4.1538,4.1456,4.1357,4.1357,4.1456,4.1456,4.1423,4.1321,4.1386,4.1357,4.1228,4.1278,4.1373,4.155,4.1693,4.1981,4.2317,4.223,4.2364,4.2638,4.2637,4.2485,4.2232,4.1683,4.1243,4.0868,4.0079,3.9105,3.829,0.0,0.0,0.0,0.0,0.0,0.0,0.0,0.0,0.0,0.0,0.0,0.0,0.0,0.0,0.0,0.0,0.0,0.0,0.0,0.0,0.0,0.0,0.0,3.6723,3.8039,3.8362,3.8385,3.8148,3.7642,3.7272,3.7041,3.7165,3.6781,3.5968,3.5371,3.5096,3.5114,3.5883,3.577,3.5183,3.597,0.0,0.0,0.0,0.0,0.0,0.0,0.0,0.0,3.2829,3.1809,3.0863,3.2152,0.0,0.0,0.0,0.0,0.0,3.2773,3.2382,3.1918,3.2381,3.2707,3.2852,3.2607,0.0,0.0,0.0,0.0,0.0,0.0,3.5849,0.0,0.0,3.7114,3.7778,3.7575,3.8041,3.8532,3.8893,3.9855,4.0698,4.1131,4.1819,4.2062,4.1638,4.1752,4.1752,4.1555,4.1423,4.1357,4.139,4.1423,4.1507,4.1687,4.11,4.088,4.096,4.0559,4.0685,4.1293,4.1558,4.1989,4.2601,4.2246,4.2212,4.2315,4.21,4.2256,4.2551,4.1799,4.1587,4.1605,4.046,3.9419,3.8628,0.0,0.0,0.0,0.0,0.0,0.0,0.0,0.0,0.0,0.0,0.0,0.0,0.0,0.0,0.0,0.0,0.0,0.0,0.0,0.0,0.0,3.8226,3.803,3.7751,3.7435,3.8833,3.8871,3.7443,3.808,3.7646,3.6275,3.6346,3.5931,3.5135,3.578,3.5989,3.5857,3.6149,3.6169,3.6017,3.6217,0.0,0.0,0.0,0.0,0.0,0.0,0.0,0.0,3.2277,3.1831,3.1704,3.1871,0.0,0.0,0.0,0.0,0.0,3.1037,3.152,3.2041,3.2656,3.29,3.2963,3.2868,0.0,0.0,0.0,0.0,0.0,0.0,3.5694,3.5484,0.0,3.8355,3.9508,3.9479,4.0713,4.1313,4.0534,4.0472,4.0772,4.1455,4.1477,4.1501,4.1607,4.1621,4.1555,4.1357,4.1489,4.1637,4.18,4.1931,4.198,4.2013,4.1917,4.1805,4.1739,4.1933,4.2076,4.2189,4.2077,4.2237,4.2602,4.2536,4.2534,4.258,4.3092,4.3304,4.3244,4.2992,4.2467,4.1776,4.0977,4.011,3.9178,0.0,0.0,0.0,0.0,0.0,0.0,0.0,0.0,0.0,0.0,0.0,0.0,0.0,0.0,0.0,0.0,0.0,0.0,0.0,0.0,3.8773,3.8822,3.8693,3.8452,3.8064,3.9298,3.8911,3.6767,3.763,3.7432,3.6274,3.6768,3.6758,3.6321,3.6824,3.6711,3.6225,3.73,3.7176,3.6302,0.0,0.0,0.0,0.0,0.0,0.0,0.0,0.0,0.0,0.0,3.2548,3.1972,3.2752,0.0,0.0,0.0,0.0,0.0,3.0839,3.0722,3.0869,3.1987,3.3239,3.4185,3.4101,0.0,0.0,0.0,0.0,0.0,0.0,0.0,3.6609,3.8212,3.8472,3.8552,3.869,3.9296,3.9642,3.9408,3.9719,4.0251,4.0948,4.117,4.1354,4.1422,4.1709,4.1818,4.1753,4.1736,4.185,4.1996,4.1883,4.1916,4.2109,4.2029,4.2012,4.2012,4.1789,4.1996,4.2492,4.2229,4.2447,4.3005,4.2673,4.26,4.264,4.2589,4.2584,4.2542,4.216,4.1674,4.1126,4.0438,3.9711,3.895,0.0,0.0,0.0,0.0,0.0,0.0,0.0,0.0,0.0,0.0,0.0,0.0,0.0,0.0,0.0,0.0,0.0,0.0,0.0,0.0,3.9164,3.8973,3.8964,3.8699,3.8204,3.907,3.8385,3.6033,3.7109,3.7318,3.6724,3.7609,3.7869,3.7585,3.7879,3.7613,3.7005,3.8384,3.8183,3.6957,0.0,0.0,0.0,0.0,0.0,0.0,0.0,0.0,0.0,0.0,0.0,0.0,0.0,0.0,0.0,3.2606,3.1963,3.1247,3.074,3.0322,3.0331,3.1406,3.3016,3.4441,3.4694,0.0,0.0,0.0,0.0,0.0,0.0,3.662,3.7725,3.9091,3.8435,3.7822,3.8079,3.8084,3.8158,3.8472,3.8962,3.9615,4.0491,4.0877,4.1142,4.1303,4.1709,4.2013,4.2061,4.1963,4.1963,4.2061,4.1883,4.1804,4.1869,4.1933,4.2012,4.2174,4.1453,4.1643,4.2633,4.2181,4.2488,4.3369,4.2732,4.2647,4.2903,4.2277,4.2189,4.2467,4.2021,4.1503,4.0929,4.0318,3.9472,3.8575,0.0,0.0,0.0,0.0,0.0,0.0,0.0,0.0,0.0,0.0,0.0,0.0,0.0,0.0,0.0,0.0,0.0,0.0,0.0,0.0,3.9959,3.921,3.912,3.8312,3.6692,3.7467,3.702,3.5269,3.6906,3.7659,3.7636,3.8563,3.8561,3.7819,3.8623,3.8895,3.8728,3.8851,3.8832,3.8651,3.7963,0.0,0.0,0.0,0.0,0.0,0.0,0.0,0.0,0.0,0.0,0.0,0.0,0.0,3.372,3.279,3.1879,3.099,2.9972,3.0693,3.17,3.1627,3.1724,0.0,3.3423,3.3758,0.0,3.4461,0.0,0.0,0.0,3.716,3.793,3.8157,3.8682,3.9139,3.9332,3.9585,3.9658,3.9424,3.8975,3.9223,4.0652,4.0534,4.0627,4.1255,4.1517,4.1703,4.1898,4.1914,4.1898,4.1898,4.219,4.1964,4.1181,4.1789,4.2174,4.2381,4.15,4.172,4.2852,4.2028,4.226,4.3369,4.2631,4.2857,4.3698,4.3125,4.3463,4.4322,4.4333,4.3443,4.2091,4.1503,4.0063,3.8431,0.0,0.0,0.0,0.0,0.0,0.0,0.0,0.0,0.0,0.0,0.0,0.0,0.0,0.0,0.0,0.0,0.0,0.0,0.0,3.7826,3.8269,3.8509,3.7973,3.7368,3.6694,3.7392,3.6952,3.532,3.6492,3.7327,3.7836,3.8692,3.8922,3.8659,3.9519,3.9569,3.9019,3.9026,3.8748,3.8251,3.7953,3.6969,0.0,0.0,0.0,0.0,0.0,0.0,0.0,0.0,3.3903,3.3866,3.3994,3.3959,3.3676,3.2763,3.1884,3.1099,3.0645,3.0888,3.1232,3.1032,3.1613,0.0,0.0,3.5044,3.4937,3.4761,3.5826,0.0,0.0,0.0,3.8383,3.7593,3.8372,3.8903,3.8438,3.873,3.8938,3.8841,3.8626,3.8675,3.914,3.9744,4.0188,4.0352,4.1246,4.1784,4.1703,4.1703,4.1784,4.1898,4.1388,4.1135,4.121,4.0721,4.0735,4.1198,4.0804,4.1168,4.2183,4.1053,4.1156,4.2183,4.1919,4.2067,4.2499,4.2784,4.2948,4.3012,4.3122,4.2523,4.1602,4.1563,4.025,3.8504,0.0,0.0,0.0,0.0,0.0,0.0,0.0,0.0,0.0,0.0,0.0,0.0,0.0,0.0,0.0,0.0,0.0,0.0,3.6462,3.696,3.7385,3.7718,3.7147,3.6813,3.6807,3.6983,3.652,3.5427,3.6534,3.7356,3.792,3.904,3.9531,3.9561,3.9859,3.9678,3.9114,3.8835,3.8402,3.7877,3.7589,3.676,0.0,0.0,0.0,0.0,0.0,0.0,0.0,0.0,3.4416,3.4269,3.4086,3.3947,3.3676,3.2768,3.208,3.1508,3.112,3.1184,3.1343,3.1342,0.0,0.0,3.5204,3.5266,3.5031,3.5243,3.6429,3.7435,3.7408,0.0,3.8167,3.6895,3.76,3.8007,3.7258,3.7665,3.8023,3.7995,3.8189,3.8278,3.8209,3.9035,3.9668,3.986,4.0817,4.1386,4.1354,4.1305,4.1243,4.1134,4.0498,4.0246,4.049,3.9941,3.9794,4.0097,4.007,4.0501,4.1344,4.0312,4.0421,4.1385,4.1226,4.1572,4.2222,4.215,4.2111,4.2149,4.2717,4.2312,4.1435,4.1638,4.0597,3.9034,0.0,0.0,0.0,0.0,0.0,0.0,0.0,0.0,0.0,0.0,0.0,0.0,0.0,0.0,0.0,0.0,0.0,0.0,3.564,3.7212,3.7793,3.6942,3.6893,3.6857,3.68,3.5938,3.55,3.55,3.7106,3.7897,3.7936,3.9676,4.0468,4.0431,3.9517,3.9136,3.913,3.8265,3.7896,3.78,3.6964,3.665,3.6569,0.0,0.0,0.0,0.0,0.0,0.0,0.0,3.4498,3.4269,3.413,3.403,3.3793,3.28,3.2509,3.2255,3.112,3.1546,3.2393,0.0,0.0,0.0,3.4568,3.3909,3.3788,3.5877,3.671,3.6996,3.6841,3.7175,3.7111,3.5985,3.6303,3.6545,3.6077,3.6744,3.7224,3.7129,3.7697,3.8116,3.8209,3.8512,3.9049,3.9934,4.0167,4.0433,4.0753,4.0658,4.0261,3.9518,3.969,3.9434,3.8702,3.9569,3.972,3.9207,3.9386,3.9862,4.0494,3.9943,4.025,4.116,4.0624,4.1537,4.325,4.1368,4.1191,4.2254,4.37,4.3261,4.182,4.1943,4.1185,3.9986,0.0,0.0,0.0,0.0,0.0,0.0,0.0,0.0,0.0,0.0,0.0,0.0,0.0,0.0,0.0,0.0,0.0,0.0,3.5747,3.6227,3.6678,3.7031,3.6406,3.6311,3.6861,3.5965,3.5797,3.6414,3.6901,3.7446,3.8052,3.9157,3.9327,3.8757,3.9042,3.8834,3.822,3.7414,3.7056,3.7079,3.7432,3.6868,3.5878,0.0,0.0,0.0,0.0,0.0,0.0,0.0,0.0,0.0,3.3235,3.306,3.29,3.2648,3.2442,3.2237,3.2001,3.234,0.0,3.2181,0.0,0.0,0.0,3.345,0.0,0.0,3.5433,3.5121,3.6061,3.653,3.635,3.4964,3.5847,3.6469,3.5792,3.622,3.6761,3.7176,3.7219,3.737,3.7799,3.8277,3.8678,3.8945,3.958,3.996,4.0023,4.0007,3.9881,3.9659,3.9336,3.9076,3.8914,3.8891,3.8852,3.8784,3.8937,3.9605,4.0691,4.0,4.0324,4.143,4.1338,4.13,4.1238,4.0679,4.1,4.1849,4.2297,4.2138,4.1663,4.1596,4.1032,4.0176,0.0,0.0,0.0,0.0,0.0,0.0,0.0,0.0,0.0,0.0,3.4872,3.4968,0.0,0.0,0.0,0.0,0.0,0.0,0.0,3.5793,3.6026,3.6527,3.6009,3.5906,3.6377,3.6169,3.6293,3.68,3.68,3.7069,3.7617,3.8729,3.8981,3.8481,3.8596,3.8369,3.7817,3.6638,3.6169,3.6288,3.7106,3.6637,3.5566,0.0,0.0,0.0,0.0,0.0,0.0,0.0,0.0,0.0,3.3042,3.276,3.2614,3.2575,3.2192,3.1937,3.2488,3.2865,0.0,3.2542,3.3279,3.3847,3.2699,0.0,0.0,0.0,3.4567,3.4508,3.5485,3.5745,3.554,3.4538,3.5109,3.5482,3.4991,3.5318,3.5755,3.6254,3.6325,3.6589,3.7294,3.761,3.7997,3.8658,3.9056,3.9278,3.9292,3.9292,3.9195,3.9,3.8661,3.86,3.885,3.8545,3.8594,3.9056,3.8925,3.9603,4.0925,4.0036,4.0194,4.1156,4.1605,4.1083,4.0038,4.0869,4.1144,4.105,4.1596,4.1571,4.1243,4.1307,4.1034,4.053,0.0,0.0,3.0367,3.0487,0.0,0.0,0.0,0.0,0.0,0.0,3.5052,3.551,0.0,0.0,0.0,0.0,0.0,0.0,0.0,0.0,3.5775,3.5708,3.5679,3.5672,3.561,3.6381,3.6741,3.6678,3.6755,3.6793,3.6832,3.8457,3.9089,3.8831,3.8126,3.7773,3.7567,3.5983,3.5372,3.5563,3.6305,3.6147,3.5549,3.6173,0.0,0.0,0.0,0.0,0.0,0.0,0.0,0.0,3.3266,3.2883,3.2754,3.2549,3.1981,3.1628,3.2634,3.3068,0.0,3.3371,3.4094,0.0,3.3272,3.3444,3.3748,3.3371,0.0,3.4607,3.4841,3.4871,3.4747,3.4399,3.4202,3.405,3.3924,3.4212,3.4526,3.475,3.519,3.5804,3.669,3.6612,3.7125,3.8702,3.8529,3.8455,3.8697,3.8667,3.8439,3.796,3.7976,3.8177,3.8583,3.8504,3.8829,3.9622,3.9215,3.9732,4.1012,4.0099,4.0117,4.0938,4.1542,4.0915,3.9661,4.1471,4.1288,3.9977,4.127,4.1329,4.0697,4.1001,4.11,4.092,0.0,0.0,3.0651,3.1312,0.0,0.0,0.0,0.0,0.0,0.0,0.0,0.0,0.0,0.0,0.0,0.0,0.0,0.0,0.0,0.0,3.5769,3.5708,3.5648,3.564,3.5681,3.5751,3.5823,3.5865,3.6498,3.682,3.6909,3.8467,3.8166,3.6339,3.741,3.7164,3.5904,3.5532,3.5405,3.5489,3.6278,3.609,3.5419,3.6118,3.5885,0.0,0.0,0.0,0.0,0.0,0.0,0.0,3.301,3.2748,3.2562,3.2509,3.2702,3.2814,3.2286,3.2514,0.0,0.0,3.2492,3.2434,3.215,3.2067,3.2166,3.2469,3.306,3.3441,3.3127,3.3987,3.4414,3.334,3.3678,3.405,3.3924,3.3976,3.4204,3.4659,3.4625,3.4924,3.5788,3.5696,3.613,3.7403,3.7326,3.7652,3.8586,3.8418,3.8296,3.8307,3.8516,3.8556,3.8448,3.8738,3.8969,3.9161,3.9203,3.9464,3.9877,4.0636,4.1843,4.3265,4.172,4.1086,4.1133,4.0384,3.9814,3.9458,3.9941,4.0214,4.0387,4.0531,4.0556,4.046,0.0,0.0,0.0,0.0,0.0,0.0,0.0,0.0,0.0,0.0,0.0,0.0,0.0,3.4342,0.0,0.0,3.5173,3.5341,3.5775,3.5806,3.5765,3.5708,3.606,3.63,3.6313,3.6253,3.623,3.6228,3.6263,3.6271,3.6296,3.7488,3.7369,3.6155,3.6926,3.678,3.5959,3.5534,3.5342,3.5415,3.6235,3.6044,3.5331,3.5654,3.5259,3.4516,3.4403,0.0,0.0,0.0,0.0,0.0,0.0,0.0,3.27,3.2953,3.2388,3.1866,3.2714,0.0,0.0,3.2704,0.0,3.1819,3.1727,3.1595,3.1543,3.1644,3.2097,3.2584,3.2964,3.3512,3.3811,3.3575,3.3682,3.3822,3.3899,3.3684,3.363,3.3996,3.3964,3.4222,3.4963,3.5445,3.6144,3.7132,3.7307,3.766,3.8331,3.8164,3.8135,3.8246,3.8488,3.86,3.86,3.8805,3.9095,3.944,3.9904,4.0555,4.1349,4.1182,4.1577,4.2361,4.1274,4.099,4.1203,4.0156,3.9738,3.9807,4.0045,4.0246,4.0436,4.0819,4.0902,4.0758,0.0,0.0,0.0,0.0,0.0,0.0,0.0,0.0,0.0,0.0,0.0,0.0,0.0,3.3714,3.3498,0.0,0.0,0.0,3.5317,3.5506,3.5615,3.5708,3.6536,3.6938,3.6788,3.6908,3.6892,3.6682,3.6013,3.5648,3.562,3.6427,3.671,3.658,3.6596,3.6531,3.6339,3.5603,3.5297,3.535,3.5865,3.5662,3.5032,3.4772,3.4234,3.3652,3.3683,3.3601,3.3608,3.4352,0.0,0.0,0.0,0.0,3.306,3.3488,3.1979,3.0735,3.3225,0.0,3.1952,3.2985,3.2544,0.0,3.1635,3.1502,3.1327,3.1055,3.1403,3.2059,3.3079,3.3141,3.3259,3.3933,3.3742,3.3581,3.3745,3.3398,3.315,3.3214,3.3319,3.3609,3.4169,3.5252,3.6239,3.6977,3.7367,3.7668,3.7894,3.7671,3.7671,3.7951,3.8169,3.843,3.875,3.875,3.9116,3.9806,4.0592,4.1661,4.2861,4.146,4.0879,4.1005,4.0792,4.0762,4.0759,4.0315,4.0188,4.0288,4.0397,4.0487,4.0621,4.1178,4.1261,4.1116,0.0,0.0,0.0,0.0,0.0,0.0,0.0,0.0,0.0,0.0,3.4578,3.4501,3.4497,3.3712,3.3262,3.3446,3.3464,3.3514,3.363,0.0,0.0,3.567,3.6523,3.6653,3.5897,3.6554,3.6566,3.5864,3.5681,0.0,0.0,0.0,0.0,3.5699,3.6312,3.6213,3.5552,3.5373,3.5304,3.5235,3.4584,3.4219,3.4004,3.3233,0.0,3.2697,3.3439,3.3601,3.3614,3.4341,3.442,0.0,0.0,0.0,3.366,3.3611,3.2736,3.1993,3.2896,0.0,3.2144,0.0,3.1962,3.1635,0.0,0.0,3.1055,3.0995,3.1519,3.1942,3.1885,3.2587,3.3121,3.3023,3.337,3.3581,3.3256,3.3256,3.3171,3.2884,3.2931,3.309,3.3409,3.4282,3.5144,3.5957,3.6046,3.6421,3.7198,3.6485,3.6493,3.7381,3.7546,3.7948,3.8616,3.8616,3.8887,3.9394,4.0374,4.0873,4.0965,4.0856,4.1485,4.259,4.1034,4.0535,4.0759,4.0434,4.0213,4.0078,3.9661,4.0055,4.0825,4.0585,4.0564,4.074,0.0,0.0,0.0,0.0,0.0,0.0,0.0,0.0,0.0,0.0,0.0,3.3107,3.3091,3.2318,3.2003,3.2532,3.257,3.2761,3.3211,3.3576,3.4141,3.4986,3.5393,3.5859,3.6425,3.6308,3.6287,3.6367,0.0,0.0,0.0,3.5952,3.5901,0.0,0.0,3.6229,3.5367,3.4851,3.4875,3.513,3.3756,3.4039,3.5034,0.0,0.0,0.0,0.0,0.0,3.3556,3.4309,3.4386,3.4185,3.4074,0.0,0.0,0.0,3.2914,3.2137,3.207,3.2404,3.2717,0.0,3.2347,3.2117,3.202,3.1799,3.1496,3.1036,3.1729,3.2337,3.2128,3.3039,3.3779,3.3656,3.3613,3.3555,3.345,3.3229,3.3016,3.2877,3.2962,3.3058,3.3176,3.4245,3.5053,3.5332,3.5835,3.6244,3.6485,3.6319,3.6615,3.7384,3.7616,3.8105,3.8925,3.886,3.9462,4.0738,4.0387,4.0843,4.2026,4.0838,4.0899,4.1822,4.0671,4.0553,4.1075,4.0535,4.0337,4.0402,4.0182,4.0459,4.1018,4.1135,4.1251,4.14,0.0,0.0,0.0,0.0,0.0,0.0,0.0,0.0,0.0,0.0,0.0,3.1997,3.201,0.0,0.0,0.0,3.1676,3.2012,3.282,3.288,3.3341,3.4434,3.4691,3.5384,3.6642,3.6255,3.622,3.6605,0.0,0.0,3.5585,3.5797,3.5746,0.0,3.6136,3.6017,0.0,0.0,0.0,0.0,0.0,0.0,0.0,0.0,0.0,0.0,0.0,0.0,0.0,0.0,3.4328,3.4136,3.4036,3.3786,0.0,0.0,0.0,3.1784,0.0,0.0,3.2752,3.2874,3.275,3.2582,0.0,3.2412,3.2064,3.1208,3.1883,3.2601,3.2403,3.3272,3.4064,3.4143,3.3797,3.3513,3.3419,3.3134,3.2924,3.2773,3.2951,3.3058,3.3096,3.4245,3.4977,3.4872,3.5586,3.5957,3.5771,3.5942,3.6424,3.7253,3.7525,3.8111,3.9098,3.9131,3.9939,4.1559,4.0587,4.1055,4.2686,4.1093,4.0603,4.0951,4.0425,4.0586,4.1129,4.0601,4.0551,4.071,4.0315,4.0567,4.1146,4.1049,4.1279,4.1721,0.0,0.0,0.0,0.0,0.0,0.0,0.0,0.0,0.0,0.0,0.0,3.201,3.1999,3.1226,3.0733,3.0856,3.0801,3.1103,3.1913,3.1972,3.2701,3.4318,3.52,0.0,3.5766,3.6526,3.6554,0.0,0.0,0.0,3.5509,3.6344,3.6224,3.53,3.5358,3.5316,3.519,0.0,0.0,0.0,0.0,0.0,0.0,0.0,0.0,0.0,0.0,0.0,0.0,0.0,0.0,0.0,3.3998,3.3335,3.2559,0.0,0.0,0.0,0.0,3.1345,0.0,3.2654,3.275,3.2699,3.3064,3.3014,3.2574,3.1577,3.1979,3.2426,3.2089,3.2714,3.334,3.3684,3.371,3.3445,3.2749,3.2904,3.292,3.248,3.2703,3.2951,3.3085,3.3914,3.446,3.4509,3.4877,3.5088,3.5124,3.4672,3.5141,3.6692,3.687,3.7554,3.8816,3.9272,3.9884,4.0667,4.1109,4.1384,4.1494,4.1638,4.1408,4.0892,4.06,4.0502,4.0561,4.0641,4.0769,4.0733,3.9284,3.9799,4.1163,3.9262,3.9587,4.1045,0.0,0.0,0.0,0.0,0.0,0.0,0.0,0.0,0.0,0.0,0.0,0.0,0.0,3.0905,3.0717,3.0728,3.0717,3.0815,3.1119,3.1604,3.241,3.3582,3.4425,3.5111,3.5626,3.5974,3.5963,0.0,0.0,3.559,3.5508,3.5769,3.5652,3.5272,3.5809,3.5728,3.5102,3.456,0.0,0.0,0.0,0.0,0.0,0.0,0.0,0.0,0.0,0.0,0.0,0.0,0.0,0.0,0.0,0.0,0.0,0.0,0.0,0.0,0.0,0.0,0.0,3.2841,3.3009,3.313,3.3191,3.3328,3.3232,3.2298,3.2584,3.2952,3.2803,3.307,3.3477,3.3887,3.3873,3.372,3.3366,3.3346,3.324,3.2893,3.3187,3.3424,3.3477,3.4012,3.4362,3.4371,3.4624,3.4791,3.4716,3.4791,3.5537,3.7161,3.7178,3.7875,3.9355,3.9729,4.028,4.1057,4.0722,4.0866,4.1461,4.1125,4.092,4.0802,4.0366,4.0388,4.0752,4.0817,4.0665,4.033,3.9825,3.9848,4.0109,3.9529,3.9763,4.044,0.0,0.0,0.0,0.0,0.0,3.0668,0.0,0.0,0.0,0.0,0.0,0.0,0.0,0.0,3.155,3.153,3.1549,3.1523,3.151,3.201,3.2699,3.3553,3.411,3.4795,3.5608,3.5687,0.0,0.0,0.0,0.0,0.0,3.5405,3.5297,3.5179,3.5757,3.5639,0.0,0.0,0.0,3.4927,0.0,0.0,3.6782,0.0,0.0,0.0,0.0,0.0,0.0,0.0,0.0,0.0,0.0,0.0,0.0,0.0,0.0,0.0,3.1299,0.0,0.0,3.284,3.3068,3.3277,3.3506,3.3729,3.3703,3.2932,3.3072,3.3297,3.3193,3.3297,3.3549,3.3962,3.3924,3.3771,3.3642,3.3607,3.3503,3.3335,3.3555,3.3736,3.3822,3.4025,3.4201,3.43,3.4497,3.4643,3.4691,3.5203,3.6233,3.7876,3.8079,3.8732,3.9893,4.0138,4.0526,4.1103,4.065,4.0798,4.1446,4.1006,4.0792,4.0734,4.0314,4.049,4.1024,4.0504,4.0433,4.056,4.004,3.9841,3.9829,3.9501,3.952,3.9712,0.0,3.1196,3.088,3.1749,3.1187,3.0626,3.0685,0.0,0.0,0.0,0.0,0.0,0.0,0.0,0.0,3.3207,3.3203,3.3182,3.3113,3.3127,3.3524,3.4374,3.4432,3.4839,3.5684,3.5704,3.5648,0.0,3.5601,3.5534,0.0,0.0,3.5242,3.5092,3.502,3.4927,3.4812,0.0,3.4868,3.4949,0.0,3.6796,3.619,0.0,0.0,0.0,3.6938,3.6858,0.0,3.6813,0.0,0.0,0.0,0.0,0.0,0.0,0.0,0.0,0.0,0.0,0.0,3.2601,3.2905,3.3125,3.3972,3.413,3.3972,3.3416,3.3368,3.3361,3.317,3.3282,3.3501,3.3862,3.3797,3.3684,3.3587,3.3674,3.3768,3.3784,3.3784,3.3886,3.4165,3.4064,3.4115,3.4365,3.4513,3.4757,3.5155,3.5885,3.7058,3.874,3.9539,4.0054,4.0305,4.0436,4.0583,4.0721,4.0976,4.1198,4.1413,4.1391,4.1148,4.0707,4.0461,4.0727,4.1233,3.9752,4.0079,4.1394,3.976,3.9705,4.039,3.9093,3.8735,3.8833,3.1671,3.1157,3.0864,3.1751,3.1179,3.0626,3.0685,0.0,0.0,0.0,0.0,0.0,0.0,0.0,3.3292,3.3266,3.3266,3.3258,3.3246,3.3794,3.4216,3.4463,3.5029,3.5436,3.5622,3.5626,3.5565,3.5449,3.5509,3.5463,3.5324,3.5258,3.5185,3.5092,3.4974,3.4917,3.4878,3.4888,0.0,3.4949,3.6637,3.7111,0.0,0.0,0.0,0.0,0.0,3.6718,3.674,0.0,3.6191,3.4344,0.0,0.0,0.0,0.0,0.0,0.0,3.1288,0.0,0.0,0.0,0.0,0.0,3.3166,3.3812,3.4242,3.3819,3.3548,3.3547,3.4007,3.351,3.3324,3.4186,3.43,3.4404,3.4813,3.498,3.5226,3.5669,3.5889,3.6009,3.5983,3.6222,3.6381,3.6456,3.6596,3.6743,3.6978,3.7764,3.8303,3.8496,3.9598,4.0213,4.0305,4.0527,4.0823,4.1198,4.118,4.1363,4.1657,4.1137,4.0937,4.0915,3.9702,3.9629,4.0344,3.9714,3.9782,4.0258,3.9855,3.9522,3.9244,3.8934,3.8618,3.8341,3.215,3.1694,3.1486,3.2725,3.2212,3.1672,0.0,0.0,0.0,0.0,0.0,0.0,0.0,0.0,0.0,3.4301,3.4301,3.4296,3.4302,3.4749,3.5006,3.4996,3.544,3.5679,3.5596,3.5595,3.5726,3.5974,3.5656,3.5615,3.5833,3.5426,3.5193,3.5111,3.503,3.4946,0.0,0.0,0.0,0.0,3.6155,0.0,0.0,3.6302,3.6677,0.0,0.0,0.0,3.6226,3.7308,3.6238,0.0,0.0,0.0,0.0,0.0,0.0,0.0,0.0,0.0,0.0,3.2353,0.0,0.0,3.3041,3.3615,3.4127,3.4282,3.415,3.414,3.4512,3.4104,3.3811,3.407,3.4421,3.4718,3.492,3.5221,3.5615,3.6081,3.6207,3.631,3.6412,3.6705,3.6901,3.6845,3.7422,3.7942,3.8384,3.8904,3.9253,3.9353,4.0141,4.0534,4.0534,4.0847,4.1129,4.1403,4.1431,4.1631,4.1913,4.154,4.1393,4.1332,3.9622,3.9283,3.9895,3.8941,3.9079,3.9839,3.9499,3.9166,3.8922,3.8977,3.8651,3.8231,0.0,3.2585,3.2464,3.4115,3.3689,3.3151,0.0,0.0,0.0,0.0,0.0,0.0,0.0,0.0,0.0,0.0,3.5718,3.5707,3.5701,3.5697,0.0,0.0,0.0,0.0,0.0,3.5589,3.5939,3.6638,3.5951,3.5897,3.6439,3.5734,3.5302,3.5084,3.5066,3.5001,3.4898,3.4878,0.0,3.4752,3.5383,3.521,0.0,0.0,3.5021,3.4469,3.5058,3.5272,3.548,3.6854,3.6403,0.0,0.0,0.0,0.0,0.0,3.1506,0.0,0.0,0.0,0.0,0.0,3.2319,0.0,3.324,3.3414,3.3647,3.4362,3.4562,3.4525,3.4301,3.4348,3.4157,3.3387,3.3945,3.4475,3.4391,3.4894,3.5449,3.5785,3.5709,3.5759,3.6125,3.6475,3.6628,3.6532,3.7699,3.8736,3.9474,3.9603,3.9976,4.0655,4.084,4.0912,4.0894,4.1221,4.1426,4.1448,4.1714,4.1952,4.2145,4.22,4.2017,4.1542,3.9787,3.9182,3.9339,3.7731,3.8233,3.9854,3.9041,3.8885,3.9138,3.9048,3.8714,3.8225,3.3965,3.3456,3.3176,3.423,3.3678,0.0,0.0,0.0,0.0,0.0,0.0,0.0,0.0,0.0,0.0,0.0,3.578,3.5785,3.5781,3.5728,0.0,0.0,0.0,0.0,0.0,0.0,3.5571,3.5676,3.6154,3.6075,3.5482,3.5957,3.5765,3.5011,3.4907,3.4868,3.4897,3.4737,0.0,3.4642,3.4708,3.5011,3.5304,3.4753,3.5188,3.603,3.538,3.516,3.5234,3.5375,3.5644,3.5699,0.0,0.0,0.0,3.2395,0.0,0.0,0.0,0.0,0.0,0.0,3.2473,0.0,3.2652,3.2904,3.2909,3.223,3.2431,3.2458,3.1632,3.1404,3.1312,3.1146,3.1654,3.2721,3.4532,3.548,3.6273,3.7036,3.7103,3.7078,3.7053,3.7926,3.849,3.8512,3.9705,4.0386,4.0295,4.0504,4.0597,4.0534,4.0864,4.0965,4.0819,4.1203,4.1515,4.1714,4.1952,4.2148,4.2338,4.1984,4.118,3.9974,3.8926,3.7782,3.6698,3.6942,3.8072,3.9637,3.9423,3.9351,3.9347,3.8761,3.8143,3.7628,3.3509,3.3407,3.3358,3.4199,0.0,0.0,0.0,0.0,0.0,0.0,0.0,0.0,0.0,0.0,0.0,0.0,0.0,0.0,0.0,0.0,0.0,0.0,0.0,0.0,0.0,0.0,3.5664,3.5998,3.5979,3.6143,3.6485,3.5989,3.5957,3.6245,3.5287,3.5076,3.5455,0.0,3.4612,3.4539,3.4443,3.4565,3.4754,3.4358,3.4598,3.5086,3.4627,3.4674,3.4993,3.5338,3.5451,0.0,3.4962,3.4794,3.4502,0.0,3.2634,3.2419,0.0,0.0,0.0,3.1862,3.2009,0.0,0.0,3.2962,3.2924,3.2637,3.2686,3.2491,3.162,3.1403,3.107,3.0238,3.0975,3.1838,3.2317,3.4101,3.557,3.6146,3.6537,3.6977,3.7549,3.8289,3.9162,4.0251,4.0723,4.1018,4.1134,4.1088,4.1041,4.1041,4.1175,4.1221,4.1209,4.1453,4.1499,4.1322,4.1949,4.1924,4.1369,4.1705,4.1319,4.0297,3.8624,3.7708,3.7326,3.6468,3.6883,3.8157,3.8775,3.9037,3.9013,3.831,3.7875,3.7687,3.2743,3.3221,3.3539,3.4202,0.0,0.0,0.0,0.0,0.0,0.0,0.0,0.0,0.0,0.0,0.0,0.0,0.0,0.0,0.0,0.0,0.0,0.0,0.0,3.5631,0.0,0.0,0.0,3.6343,3.5763,3.6113,3.7233,3.5933,3.5958,0.0,0.0,0.0,0.0,0.0,0.0,3.4439,3.4293,3.4161,3.4018,3.387,3.3779,3.3739,3.3726,3.4021,3.4567,3.5427,3.5278,3.4838,3.5344,3.5245,0.0,0.0,0.0,0.0,0.0,0.0,0.0,0.0,0.0,3.1731,0.0,0.0,0.0,3.3244,3.3054,3.2612,3.1805,3.1512,3.0962,2.9576,3.0456,3.0878,2.9614,3.2126,3.4183,3.4392,3.5307,3.6324,3.7388,3.81,3.9344,4.137,4.115,4.1178,4.1736,4.1503,4.1436,4.1604,4.1515,4.1515,4.156,4.1573,4.1336,4.0825,4.1736,4.1526,4.0365,4.1487,4.1437,4.0331,3.8367,3.7658,3.7763,3.5979,3.5668,3.6426,3.7665,3.8282,3.8431,3.7567,3.7423,3.7703,3.2731,3.3674,3.4202,3.4364,0.0,0.0,0.0,0.0,0.0,0.0,0.0,0.0,0.0,0.0,0.0,0.0,0.0,0.0,3.6798,0.0,0.0,0.0,0.0,0.0,3.6553,0.0,0.0,3.5453,3.5933,3.5892,3.5323,3.5903,3.578,0.0,3.5658,0.0,0.0,0.0,3.5107,3.4221,3.4086,3.4086,3.4074,3.3128,3.3235,3.3829,3.3549,3.3451,3.3575,3.4388,3.462,3.4437,3.3935,3.4646,3.5225,3.2925,0.0,0.0,0.0,0.0,0.0,0.0,3.1889,3.1458,3.2605,0.0,3.2284,3.155,0.0,3.0959,2.9901,0.0,0.0,2.8147,2.8753,2.8898,2.791,3.0564,3.2645,3.2686,3.4374,3.5672,3.6016,3.7789,3.9578,4.1133,4.1085,4.1184,4.1591,4.187,4.187,4.1604,4.1692,4.1648,4.1426,4.0963,4.0792,4.089,4.1258,4.1061,4.042,4.1557,4.0472,3.7645,3.7603,3.6328,3.4353,3.5088,3.5354,3.5376,3.6411,3.7252,3.7725,3.6218,3.6146,3.6879,3.2831,3.3267,3.3658,3.4195,0.0,0.0,0.0,0.0,0.0,0.0,0.0,0.0,0.0,0.0,0.0,0.0,0.0,3.7192,0.0,0.0,0.0,0.0,0.0,0.0,0.0,0.0,0.0,0.0,3.4691,3.4858,3.5011,3.5296,3.5465,0.0,3.5792,0.0,3.61,0.0,3.5893,3.5027,3.5282,3.5151,3.4678,3.3632,3.3433,3.3698,3.3481,3.3364,3.346,3.4243,3.4222,3.3891,3.403,3.4475,0.0,3.322,0.0,0.0,0.0,0.0,3.0724,3.1936,3.1799,3.1637,3.2579,3.2962,3.2862,3.2038,0.0,0.0,0.0,0.0,0.0,0.0,2.9435,2.9568,2.887,3.0972,3.2366,3.1822,3.3386,3.4998,3.619,3.7982,3.9598,4.0875,4.0775,4.1039,4.1963,4.2061,4.204,4.1892,4.1934,4.1743,4.122,4.1386,4.0951,3.9925,4.1536,4.1017,3.8715,4.0187,3.9415,3.683,3.6384,3.5611,3.4673,3.5234,3.5131,3.4729,3.5745,3.6559,3.7039,3.6018,3.5861,3.6271,3.3173,0.0,0.0,0.0,0.0,0.0,0.0,0.0,0.0,0.0,0.0,0.0,3.6241,3.6639,0.0,0.0,3.7909,3.8046,0.0,0.0,3.7275,0.0,0.0,0.0,0.0,0.0,0.0,0.0,3.4089,3.4329,3.4936,3.4839,3.509,3.5687,0.0,3.6126,3.6703,0.0,3.6441,3.5825,3.6168,3.5786,3.4954,3.4503,3.4148,3.3847,3.3704,3.3533,3.3457,3.3957,3.3774,3.3436,3.3798,3.3972,3.3944,0.0,0.0,0.0,3.2526,3.1655,3.1109,3.1905,3.182,3.1819,3.2912,3.3083,3.2966,3.2808,3.2704,0.0,0.0,0.0,3.0716,0.0,0.0,3.0698,2.9881,3.1636,3.2563,3.1392,3.2878,3.4661,3.6292,3.7761,3.9054,4.0114,4.0067,4.0445,4.1569,4.1586,4.1546,4.1464,4.1309,4.1085,4.0768,4.0853,4.0313,3.9229,4.1089,4.0357,3.7387,3.9176,3.8567,3.6131,3.5989,3.5527,3.4958,3.5354,3.5027,3.4409,3.5378,3.5909,3.608,3.5676,3.5675,3.6009,3.3904,3.4109,0.0,0.0,0.0,0.0,0.0,0.0,0.0,0.0,0.0,0.0,0.0,0.0,0.0,0.0,0.0,4.1182,4.0339,0.0,3.9727,0.0,0.0,3.6416,0.0,0.0,0.0,0.0,3.4936,3.483,3.4798,3.4747,3.4685,3.4688,3.5465,3.5741,3.5695,3.6416,3.653,3.6274,3.6149,3.546,3.4638,3.556,3.536,3.4555,3.4348,3.3846,3.3277,3.3168,3.3216,3.3196,3.2577,3.291,3.3368,3.2565,3.2835,3.3349,3.3129,3.2291,3.1694,3.2636,3.2136,3.1865,3.3639,3.2724,3.1904,3.3438,3.2386,3.141,3.2213,0.0,0.0,0.0,0.0,0.0,0.0,3.2138,3.3088,3.1321,3.316,3.4896,3.5757,3.6775,3.7705,3.8601,3.8787,3.9144,3.983,4.012,4.0139,3.9884,3.9309,3.9293,3.9927,3.8542,3.8295,3.9211,3.9353,3.8638,3.727,3.9088,3.8077,3.5066,3.6902,3.6332,3.4122,3.5094,3.5027,3.4398,3.5255,3.5212,3.4688,3.4785,3.5325,3.6128,3.4038,0.0,0.0,0.0,0.0,0.0,0.0,3.5158,0.0,0.0,3.7279,0.0,0.0,3.8657,3.8984,0.0,0.0,4.0595,4.0354,4.0057,0.0,0.0,0.0,3.7334,0.0,0.0,0.0,0.0,0.0,3.4046,3.3958,3.4413,3.4301,0.0,0.0,3.5771,0.0,0.0,0.0,0.0,3.6793,3.6476,3.6114,3.5824,3.4904,3.3864,3.483,3.4362,3.3367,3.3761,3.363,3.3241,3.2874,3.2979,3.3202,3.3008,3.3135,3.3322,3.3244,3.3,3.2826,3.3099,3.2829,3.2807,3.3913,3.3618,3.3254,3.3702,3.3299,3.2824,3.2678,0.0,0.0,0.0,0.0,0.0,0.0,3.3096,3.2898,3.1702,3.3131,3.4321,3.4587,3.5811,3.6967,3.7934,3.8375,3.9035,4.0013,4.0123,3.9891,3.9354,3.9175,3.8726,3.7916,3.8331,3.8311,3.7827,3.9556,3.9339,3.7514,3.8744,3.813,3.6125,3.6698,3.6202,3.5045,3.5845,3.5441,3.4398,3.5254,3.5191,3.4744,3.5959,3.6209,3.6224,3.4591,3.4522,0.0,0.0,0.0,0.0,0.0,0.0,0.0,0.0,3.7876,0.0,3.9316,0.0,3.9517,0.0,4.0902,4.1103,4.1151,4.1122,0.0,4.0816,3.9403,0.0,0.0,0.0,0.0,0.0,0.0,3.429,3.3947,3.4339,3.4236,0.0,0.0,3.5545,3.6559,3.69,3.7334,0.0,3.7503,3.7196,3.6844,3.6492,3.5445,3.4352,3.557,3.5207,3.4192,3.4249,3.4013,3.3656,3.3258,3.3165,3.3226,3.3352,3.3367,3.3367,3.3307,3.3307,3.3271,3.3244,3.3335,3.3671,3.4476,3.4324,3.4138,3.4621,3.402,3.3454,3.3558,3.3294,0.0,0.0,0.0,0.0,0.0,3.3643,3.2688,3.2465,3.318,3.3664,3.3616,3.4776,3.5989,3.7149,3.7648,3.831,3.9264,3.9139,3.8815,3.8344,3.7854,3.7254,3.659,3.7473,3.7685,3.7268,3.9218,3.9283,3.7742,3.8618,3.8169,3.6723,3.7206,3.684,3.596,3.6665,3.607,3.4778,3.5646,3.5605,3.5173,3.6343,3.6842,3.7087,3.548,3.5266,3.5001,0.0,3.4787,3.5044,3.4297,3.5427,3.6728,0.0,3.9194,4.0204,4.03,4.1017,4.1466,4.1406,4.215,4.2626,4.2626,4.2612,0.0,0.0,4.1527,4.1001,4.2607,0.0,0.0,0.0,0.0,0.0,3.4743,3.4514,3.4439,0.0,3.4221,0.0,3.6619,3.6356,3.7128,3.8517,3.8219,3.7531,3.6767,3.7452,3.6927,3.5917,3.6547,3.6309,3.5575,3.4632,3.4377,3.4321,3.3638,3.3414,3.3393,3.3466,3.3477,3.3466,3.3322,3.3214,3.3117,3.3117,3.3619,3.4378,3.5295,3.4749,3.4474,3.6095,3.4477,3.3222,3.4712,3.4495,3.4162,0.0,0.0,0.0,0.0,3.3778,3.2595,3.3445,3.3327,3.3122,3.2948,3.3811,3.4939,3.6273,3.6677,3.7123,3.7721,3.7327,3.7039,3.687,3.5462,3.5102,3.5957,3.5897,3.6407,3.7526,3.8368,3.8459,3.7931,3.8743,3.826,3.6848,3.8414,3.815,3.6673,3.7451,3.6811,3.5435,3.6296,3.6323,3.5882,3.6064,3.7198,3.8702,3.535,3.4825,3.4529,3.4932,3.5166,3.5649,3.6671,3.712,3.786,0.0,4.0403,4.1218,4.1844,4.158,4.1333,4.133,4.1521,0.0,0.0,0.0,0.0,4.2917,4.2305,4.2425,4.3399,4.0323,3.8856,3.9183,0.0,0.0,3.5579,3.4839,3.4461,0.0,0.0,3.5254,3.7177,3.7009,3.7804,3.9109,3.8339,3.7514,3.6852,3.7575,3.727,3.6565,3.7323,3.6334,3.4819,3.5807,3.4913,3.3468,3.3921,3.3648,3.318,3.3193,3.3256,3.3337,3.3307,3.3322,3.3334,3.3334,3.3885,3.4666,3.5409,3.4945,3.4807,3.6303,3.5175,3.403,3.4473,3.4513,3.4527,0.0,0.0,0.0,0.0,3.4089,3.3173,3.2811,3.3858,3.4268,3.3429,3.4661,3.567,3.6082,3.7142,3.7917,3.8283,3.7551,3.6887,3.6376,3.5378,3.5062,3.5478,3.5358,3.6103,3.7663,3.8035,3.8103,3.7936,3.8875,3.8742,3.7796,3.8646,3.815,3.6786,3.7401,3.6416,3.4587,3.5473,3.6216,3.6915,3.7615,3.8623,3.965,3.5369,3.491,3.4849,3.573,3.5833,3.6261,3.7555,3.738,3.7699,3.9365,4.0228,4.0881,4.1345,4.1345,4.1429,4.1748,4.1486,0.0,4.1269,0.0,0.0,4.2001,4.2685,4.3248,4.3601,4.1756,0.0,3.9762,0.0,0.0,3.5288,3.4731,3.4397,0.0,0.0,3.4937,3.6468,3.6955,3.7767,3.8687,3.8113,3.7611,0.0,3.7613,3.7506,3.72,3.772,3.7036,3.5887,3.6049,3.5192,3.4014,3.3824,3.3461,3.3101,3.3165,3.3259,3.3337,3.3337,3.3367,3.3484,3.3872,3.4501,3.525,3.6059,3.6152,3.6318,3.7205,3.6409,3.574,3.6425,3.5844,3.5378,0.0,0.0,0.0,0.0,3.4129,3.3311,3.32,3.3731,3.3818,3.3131,3.4878,3.6012,3.5887,3.6752,3.7341,3.7497,3.7088,3.6523,3.5837,3.5299,3.4957,3.4821,3.5064,3.5745,3.6862,3.7305,3.7542,3.7586,3.8502,3.844,3.7679,3.8694,3.8431,3.7353,3.7659,3.6793,3.5374,3.5987,3.6716,3.7513,3.8336,3.9233,4.0027,3.5614,3.5414,3.5597,0.0,3.6559,3.696,3.7859,3.7394,3.7481,3.8943,3.9951,4.046,4.0306,4.097,4.1585,4.2026,4.1461,4.1062,4.1018,4.1783,4.1916,4.1204,4.2673,4.3427,4.3316,4.319,4.2015,0.0,0.0,0.0,0.0,3.4476,3.4328,0.0,0.0,0.0,0.0,3.6711,3.7526,3.8043,3.7828,3.7793,3.7864,3.781,3.781,3.7864,3.799,3.7917,3.7504,3.6092,3.5502,3.5193,3.3997,3.3543,3.3471,3.3599,3.3602,3.3607,3.3712,3.3658,3.3782,3.4673,3.5362,3.6059,3.691,3.7566,3.8059,3.8271,3.7685,3.754,3.8852,3.7558,3.6307,0.0,3.5324,3.4735,3.5262,3.4216,0.0,3.408,3.3667,0.0,3.2753,3.4807,3.597,3.5514,3.5967,3.6323,3.6434,3.6519,3.6287,3.5695,3.5497,3.5136,3.458,3.5318,3.5839,3.613,3.681,3.7127,3.7149,3.7836,3.7694,3.6953,3.8378,3.8501,3.7734,3.7833,3.7379,3.6634,3.6825,3.7173,3.7593,3.827,3.909,3.9834,3.6393,3.631,0.0,0.0,3.6623,3.7975,3.9381,4.0015,4.046,4.0821,4.2607,4.3359,4.2051,4.1985,4.1558,4.0363,4.0083,3.9996,4.0042,4.0848,4.1241,4.105,4.1956,4.2429,4.2341,4.1631,4.0723,0.0,0.0,0.0,0.0,3.4775,3.4328,0.0,0.0,0.0,3.6903,3.7573,3.8255,3.8834,3.8203,3.824,3.8707,3.8797,3.8742,3.8612,3.8631,3.79,3.6999,3.7496,3.6687,3.5576,3.6218,3.5876,3.5273,3.5413,3.4988,3.4621,3.5351,3.5053,3.4758,3.5634,3.6437,3.7028,3.7145,3.732,3.7609,3.8255,3.7791,3.7406,3.7893,3.7384,3.641,3.5004,3.5707,3.5962,3.4624,3.5392,3.5659,3.4418,3.5445,3.5639,3.4062,3.4857,3.5148,3.436,3.5742,3.6944,3.7731,3.7174,3.7056,3.7591,3.6855,3.6453,3.6501,3.7347,3.7807,3.7868,3.8214,3.7972,3.719,3.7329,3.6945,3.6214,3.6984,3.6958,3.6389,3.6963,3.6768,3.6072,3.559,3.5873,3.6589,3.6937,3.7651,3.843,3.7111,0.0,0.0,0.0,3.769,3.8691,4.0223,4.1434,4.2058,4.1753,4.2222,4.2295,4.1544,4.1813,4.1562,4.0365,4.0264,4.0088,3.9672,4.0066,4.0323,4.0325,4.1134,4.1707,4.1999,4.2094,4.1499,4.0164,3.8939,0.0,0.0,0.0,0.0,3.4715,0.0,3.5213,3.6431,3.7128,3.8005,3.8867,3.8026,3.8383,3.9383,3.899,3.9097,3.9438,3.9082,3.8528,3.7933,3.75,3.6783,3.6102,3.6315,3.6059,3.5738,3.5859,3.5663,3.549,3.6007,3.5868,3.5791,3.667,3.7151,3.7506,3.7928,3.805,3.8205,3.8621,3.8427,3.8139,3.7995,3.7747,3.7043,3.5439,3.5488,3.5469,3.4625,3.5593,3.6081,3.5274,3.5518,3.5207,3.3771,3.3599,3.3929,3.4711,3.5628,3.6559,3.7541,3.7209,3.7171,3.7572,3.7166,3.7026,3.7149,3.7126,3.7348,3.7834,3.7929,3.771,3.7216,3.7668,3.7423,3.6658,3.7446,3.7389,3.673,3.6623,3.6173,3.5543,3.5681,3.6056,3.6527,3.6694,3.7083,3.7576,3.7595,3.728,0.0,3.8493,3.9072,3.9766,4.0966,4.2385,4.3072,4.2414,4.1724,4.1287,4.1194,4.1584,4.1538,4.0761,4.057,4.0215,3.9521,3.9702,3.9764,3.9633,4.0622,4.1305,4.1616,4.2736,4.2361,4.0392,3.9776,3.8577,3.682,0.0,0.0,3.517,3.5131,3.5393,3.5927,3.6918,3.7774,3.8485,3.8127,3.8732,3.9839,3.9395,3.9704,4.0248,3.957,3.9247,3.8941,3.7362,3.6878,3.6857,3.641,3.6226,3.6258,3.6414,3.6364,3.6331,3.6725,3.6709,3.6797,3.7665,3.7853,3.8004,3.8689,3.8848,3.8906,3.9021,3.9092,3.8955,3.839,3.8258,3.7783,3.6443,3.5692,3.5222,3.5075,3.5764,3.617,3.5801,3.5407,3.4803,3.3829,3.3387,3.3915,3.5768,3.5614,3.5934,3.7107,3.7159,3.7242,3.7416,3.7283,3.7252,3.7303,3.6992,3.7129,3.7663,3.7842,3.778,3.7519,3.788,3.7662,3.7055,3.7621,3.7514,3.691,3.6282,3.5689,3.5253,3.6146,3.6469,3.6498,3.6748,3.6798,3.6857,3.7561,0.0,3.9293,3.8712,4.0412,4.1883,4.1977,4.3142,4.3774,4.3077,4.339,4.3449,4.2851,4.2155,4.1432,4.0662,3.996,3.9492,3.9399,4.0104,4.0179,3.9468,4.0908,4.1417,4.0731,4.2245,4.1852,3.9434,3.9419,3.8495,3.6686,3.5008,3.4505,3.5041,3.556,3.6173,3.6859,3.8151,3.8256,3.7679,3.9221,3.9846,3.9905,4.0936,4.1243,4.1072,4.0284,3.9605,3.896,3.7936,3.7808,3.8048,3.8058,3.8006,3.8006,3.8196,3.77,3.7299,3.8309,3.8037,3.7683,3.8567,3.8828,3.8872,3.896,3.9078,3.917,3.9183,3.9363,3.9331,3.8689,3.8612,3.8342,3.7408,3.7189,3.6856,3.6008,3.6684,3.6687,3.5095,3.6171,3.6728,3.5897,3.6468,3.7011,3.7278,3.5812,3.5601,3.7284,3.737,3.7709,3.8439,3.771,3.7295,3.7289,3.8852,3.9231,3.8502,3.9478,3.945,3.8509,3.7127,3.6492,3.6452,3.573,3.5448,3.5507,3.5488,3.5436,3.5455,3.6408,3.6324,3.5814,3.6667,3.6522,3.6043,4.0318,4.0396,4.0645,4.1274,4.1731,4.2302,4.3108,4.37,4.3875,4.3399,4.3691,4.3862,4.3636,4.3286,4.2783,4.1994,4.1175,4.0519,4.0035,4.0263,4.0282,3.9946,4.1012,4.1704,4.1865,4.2523,4.2374,4.133,3.9909,3.8821,3.8035,3.5903,3.5212,3.5775,3.69,3.7475,3.7658,3.9175,3.9728,3.9642,3.9839,4.0463,4.1248,4.0745,4.1201,4.1903,4.0629,4.0381,4.0438,3.9031,3.8347,3.807,3.8104,3.8156,3.8224,3.8382,3.8227,3.8107,3.8696,3.8656,3.8514,3.8915,3.9059,3.9129,3.917,3.9245,3.9337,3.9414,3.9587,3.9687,3.9526,3.8674,3.8049,3.8261,3.7024,3.61,3.6272,3.6621,3.6629,3.5952,3.6368,3.6578,3.6312,3.6084,3.5998,3.6115,3.6787,3.7537,3.8318,3.8861,3.9271,3.9546,3.8299,3.8061,3.903,3.8804,3.8937,3.945,3.9955,3.967,3.8683,3.8127,3.7374,3.6531,3.6701,3.6239,3.5376,3.547,3.5798,3.6234,3.6161,3.6264,3.6488,3.691,3.655,3.5982,4.1786,4.1732,4.1918,4.3004,4.2819,4.2864,4.3899,4.3942,4.3781,4.3617,4.3701,4.38,4.3846,4.3672,4.3333,4.2758,4.1979,4.1275,4.07,4.0833,4.0837,4.0581,4.1563,4.2273,4.2614,4.29,4.2915,4.2646,4.0722,3.9711,3.956,3.7503,3.6762,3.7214,3.8393,3.8826,3.8743,4.0291,4.0876,4.0713,4.0584,4.1103,4.1838,4.1008,4.1484,4.2429,4.1063,4.105,4.1469,3.9968,3.9139,3.8649,3.8145,3.8268,3.8549,3.8441,3.8446,3.8556,3.8833,3.8935,3.9021,3.9101,3.9183,3.9283,3.933,3.9407,3.9502,3.967,3.9596,3.9564,3.9746,3.8375,3.7613,3.8772,3.6862,3.5611,3.6746,3.6508,3.6228,3.6243,3.6323,3.6521,3.6812,3.6235,3.5897,3.6006,3.8076,3.9134,3.8666,3.9247,3.9553,3.9461,3.8169,3.8016,3.9136,3.8278,3.8473,3.9776,3.9862,3.9537,3.8833,3.8465,3.7562,3.6337,3.6976,3.6588,3.5526,3.5878,3.6353,3.6864,3.6595,3.6738,3.7067,3.7102,3.6616,3.6017,4.0935,4.2136,4.3184,4.3203,4.3632,4.4017,4.4165,4.38,4.3566,4.3771,4.3635,4.3515,4.3515,4.2914,4.2514,4.2495,4.1775,4.1314,4.1295,4.2034,4.2078,4.1227,4.2713,4.321,4.2421,4.3174,4.3242,4.2495,4.1746,4.128,4.1058,3.9813,3.933,3.9489,3.9968,4.0182,4.0271,4.1674,4.1319,3.9955,4.1604,4.1782,4.1134,4.2167,4.2591,4.2501,4.1673,4.1519,4.156,4.0599,4.0366,4.0184,3.8524,3.8681,3.9343,3.8622,3.8446,3.8556,3.8833,3.8935,3.9021,3.9156,3.9301,3.9418,3.9482,3.9558,3.967,3.9943,3.9362,3.8842,3.8984,3.7696,3.7156,3.8834,3.7065,3.6048,3.7661,3.6522,3.5495,3.5412,3.6109,3.6926,3.7794,3.7863,3.7882,3.7957,3.959,3.9761,3.7904,3.7893,3.7877,3.774,3.7071,3.6696,3.6638,3.7475,3.8335,3.9207,3.92,3.9215,3.9146,3.7539,3.6381,3.5626,3.5681,3.5713,3.576,3.663,3.7032,3.7182,3.8022,3.7887,3.7194,3.7208,3.6659,3.6026,4.2479,4.3328,4.3955,4.3955,4.3933,4.3743,4.319,4.3365,4.3328,4.2658,4.3114,4.3428,4.3251,4.3328,4.3347,4.326,4.2555,4.2094,4.2046,4.2288,4.2292,4.1952,4.2979,4.3386,4.3097,4.2835,4.2784,4.2921,4.115,4.0246,4.0138,3.9717,3.983,4.0411,4.1071,4.1306,4.1268,4.214,4.2163,4.1687,4.2111,4.2126,4.1856,4.1767,4.2081,4.2501,4.1692,4.1936,4.2485,4.1522,4.1668,4.1996,4.0345,3.9673,3.9452,3.9261,3.8935,3.8686,3.891,3.9021,3.9115,3.9285,3.9433,3.9545,3.9618,3.9781,3.9815,3.9404,3.9108,3.8807,3.8401,3.7406,3.7043,3.8236,3.6845,3.601,3.7076,3.6867,3.6559,3.6433,3.716,3.8035,3.8904,3.8402,3.8092,3.8191,3.8676,3.8702,3.8112,3.9699,4.0388,3.983,3.9033,3.8575,3.8518,3.882,3.9071,3.9287,3.9914,3.9625,3.8508,3.804,3.7059,3.5795,3.6973,3.7163,3.6715,3.7598,3.8319,3.879,3.7917,3.7782,3.8018,3.7363,3.6553,3.5964,4.319,4.3835,4.4285,4.4192,4.3976,4.3599,4.3051,4.3217,4.3174,4.2539,4.2993,4.3286,4.3049,4.3394,4.3601,4.3461,4.3036,4.276,4.2691,4.2693,4.2677,4.2608,4.3101,4.3358,4.3287,4.2864,4.2811,4.3142,4.1736,4.1022,4.1023,4.0868,4.1105,4.1685,4.2014,4.212,4.2063,4.2433,4.2568,4.2503,4.2447,4.2369,4.2254,4.189,4.2097,4.2537,4.2091,4.2427,4.3013,4.2375,4.2595,4.2941,4.1869,4.1085,4.0513,4.0266,3.9769,3.9312,3.9517,3.9384,3.9245,3.9401,3.9551,3.9712,3.9785,3.9956,3.9986,3.9563,3.9004,3.8561,3.852,3.7307,3.671,3.7963,3.6806,3.6135,3.7302,3.7253,3.7061,3.6944,3.7444,3.8006,3.854,3.8074,3.7913,3.8331,3.8626,3.878,3.8805,3.9904,4.049,4.0311,3.9799,3.9363,3.8986,3.9354,3.9504,3.946,4.0034,3.9779,3.8735,3.8134,3.7283,3.6355,3.7394,3.7377,3.6709,3.7884,3.8495,3.8574,3.7479,3.7572,3.8202,3.6939,3.6307,3.622,4.3095,4.3731,4.4226,4.402,4.3763,4.356,4.3523,4.3322,4.3178,4.3123,4.3215,4.3178,4.2938,4.3178,4.3323,4.3196,4.3178,4.3196,4.3196,4.3196,4.3196,4.3123,4.3178,4.3178,4.3104,4.3105,4.3105,4.3105,4.3087,4.316,4.3269,4.2955,4.2935,4.3177,4.2802,4.2629,4.2609,4.2609,4.2568,4.2503,4.2568,4.247,4.2308,4.2445,4.2546,4.2629,4.2745,4.2936,4.3104,4.3123,4.3178,4.3178,4.3013,4.2704,4.2246,4.1517,4.0812,4.0333,4.0538,4.0058,3.952,3.9577,3.9727,3.9859,3.9996,4.006,4.0148,4.023,3.904,3.8284,3.9167,3.7397,3.6328,3.7952,3.6919,3.6463,3.808,3.7673,3.7163,3.7106,3.7155,3.7222,3.7287,3.7124,3.7459,3.8504,3.9179,3.9605,3.9796,3.8916,3.878,3.9582,3.9678,3.9276,3.8412,3.9256,3.9726,3.9797,3.9798,3.9769,3.9644,3.7958,3.7164,3.7104,3.7109,3.663,3.6007,3.7626,3.779,3.7047,3.6851,3.7265,3.7774,3.6071,3.5905,3.6549,4.2957,4.3554,4.4005,4.3812,4.3631,4.3311,4.2705,4.3396,4.3651,4.2592,4.3287,4.3665,4.3122,4.3031,4.3013,4.2957,4.3105,4.3251,4.334,4.334,4.3376,4.341,4.3376,4.3305,4.3178,4.2577,4.2249,4.2214,4.2666,4.3263,4.4014,4.3228,4.3282,4.3977,4.3172,4.2786,4.2745,4.2649,4.2568,4.2483,4.2407,4.2348,4.2308,4.2346,4.245,4.2629,4.2745,4.2974,4.3196,4.3358,4.3394,4.3376,4.355,4.3487,4.3188,4.2298,4.1665,4.1307,4.1446,4.0999,4.0509,4.0669,4.0415,4.0128,4.0215,4.0278,4.0172,3.9646,3.9333,3.9012,3.8639,3.8079,3.7607,3.74,3.709,3.6991,3.7369,3.7848,3.8149,3.8088,3.8122,3.8413,3.9028,3.7328,3.7105,3.9336,3.8478,3.8421,3.9733,3.9567,3.9843,4.0691,4.0694,4.0277,3.944,4.0251,4.0699,4.0766,4.0768,4.0423,3.974,3.8652,3.7783,3.7105,3.7106,3.6949,3.6793,3.7755,3.797,3.7602,3.685,3.6633,3.6629,3.5968,3.5462,3.5334,4.337,4.3757,4.4023,4.38,4.3632,4.3384,4.2927,4.336,4.3469,4.2722,4.3214,4.3629,4.3556,4.3211,4.3265,4.3952,4.343,4.3123,4.3251,4.3215,4.3214,4.3304,4.3269,4.3196,4.3068,4.2687,4.2414,4.2228,4.2625,4.3116,4.3609,4.3118,4.3192,4.3722,4.3118,4.2861,4.2823,4.2591,4.251,4.2528,4.2409,4.2328,4.2308,4.2366,4.2488,4.2629,4.2745,4.2955,4.3178,4.3287,4.3358,4.3394,4.3498,4.3651,4.3705,4.3232,4.2718,4.2277,4.2018,4.143,4.0853,4.0707,4.044,4.0225,4.0323,4.0417,4.0396,4.0009,3.938,3.9032,3.9417,3.8546,3.7868,3.8224,3.7673,3.7478,3.8238,3.8432,3.8624,3.9004,3.9071,3.9118,3.9192,3.8281,3.8261,3.9687,3.9336,3.9414,4.0308,4.035,4.0585,4.1074,4.106,4.0833,4.0409,4.08,4.1014,4.1054,4.1022,4.0758,4.0271,3.9365,3.865,3.8121,3.7726,3.7254,3.6798,3.7179,3.7151,3.6845,3.6304,3.6435,3.6822,3.5841,3.5654,3.5907,4.3931,4.4011,4.4045,4.3788,4.3634,4.3512,4.3462,4.3342,4.3213,4.3141,4.3177,4.3484,4.4062,4.3592,4.3811,4.5164,4.4022,4.33,4.3449,4.3248,4.3175,4.3305,4.314,4.303,4.2901,4.3012,4.2918,4.2629,4.2805,4.2916,4.3003,4.2935,4.3029,4.3267,4.2953,4.2842,4.2862,4.2571,4.2492,4.2589,4.2432,4.2331,4.2308,4.2405,4.2488,4.2589,4.2745,4.2955,4.3123,4.316,4.3287,4.3411,4.3375,4.3615,4.3961,4.4051,4.3673,4.3108,4.2622,4.1876,4.1075,4.0375,4.0215,4.026,4.0389,4.0531,4.0653,4.0707,3.9596,3.9096,4.0637,3.905,3.7957,3.9307,3.8324,3.7913,3.9401,3.9073,3.8962,3.9702,3.9804,3.9522,3.8842,3.9277,3.9714,3.9969,4.0547,4.0914,4.0972,4.097,4.1019,4.1054,4.1053,4.1069,4.1064,4.1001,4.0972,4.0983,4.0914,4.0867,4.0844,3.9864,3.9377,3.9257,3.8388,3.7452,3.6552,3.6488,3.6177,3.5768,3.5688,3.6352,3.7207,3.5818,3.6017,3.6714,4.3837,4.3753,4.3651,4.3499,4.334,4.325,4.3251,4.365,4.3775,4.3251,4.3631,4.4027,4.4248,4.4064,4.4314,4.5218,4.4975,4.4851,4.5122,4.4467,4.4123,4.4198,4.3376,4.2919,4.2901,4.2861,4.2822,4.2764,4.2803,4.3204,4.3877,4.3168,4.328,4.4068,4.3246,4.2861,4.2803,4.2649,4.2589,4.257,4.2269,4.2207,4.2287,4.2205,4.2269,4.2472,4.2725,4.2974,4.3233,4.3462,4.3548,4.3615,4.3947,4.407,4.4109,4.4354,4.3919,4.3506,4.4144,4.335,4.2007,4.0559,4.0297,4.0389,4.0473,4.064,4.077,4.0788,4.0679,4.0657,4.0935,4.0103,3.9221,3.8754,3.846,3.8389,3.8659,3.9219,3.9641,3.9779,3.98,3.9741,3.9624,3.9053,3.9293,4.0713,4.0259,4.022,4.0878,4.0919,4.0896,4.0844,4.0906,4.0938,4.0938,4.0926,4.0918,4.0914,4.0781,4.0729,4.0698,3.9573,3.9008,3.8842,3.7916,3.725,3.6829,3.6707,3.6435,3.6104,3.5983,3.5914,3.5878,3.6166,3.5754,3.5119,4.3804,4.3736,4.3651,4.348,4.341,4.3486,4.3853,4.3706,4.3612,4.376,4.3974,4.4278,4.479,4.4787,4.5216,4.6385,4.6096,4.6042,4.6437,4.4979,4.3934,4.3555,4.3137,4.2881,4.2842,4.2822,4.2764,4.2688,4.2764,4.3021,4.3385,4.3042,4.3118,4.352,4.3062,4.2823,4.2783,4.2589,4.251,4.2546,4.2308,4.2246,4.2287,4.2246,4.2331,4.2532,4.2725,4.2955,4.3196,4.3374,4.3478,4.3599,4.3929,4.4085,4.4155,4.4426,4.4054,4.3454,4.2948,4.2419,4.1732,4.0595,4.0383,4.0469,4.0581,4.0713,4.0818,4.0898,4.058,4.0446,4.0969,4.0369,3.9817,3.9891,3.951,3.9355,3.9824,3.9832,3.9966,4.0398,4.0445,4.0432,4.0393,4.003,4.0104,4.0835,4.0511,4.0422,4.0721,4.074,4.0718,4.0697,4.0757,4.081,4.0859,4.0768,4.0746,4.0732,4.0524,4.0411,4.0346,3.965,3.9277,3.9172,3.8128,3.7539,3.7285,3.6716,3.643,3.6336,3.6242,3.6215,3.6147,3.5853,3.5453,3.4936,4.3753,4.3738,4.3671,4.3497,4.3428,4.3577,4.409,4.3542,4.3267,4.3885,4.3882,4.4186,4.5182,4.5291,4.583,4.7157,4.6765,4.647,4.6518,4.487,4.374,4.3343,4.3041,4.2842,4.2764,4.2783,4.2725,4.2588,4.2706,4.2745,4.2745,4.2805,4.2881,4.2938,4.2861,4.2841,4.2841,4.257,4.249,4.2564,4.2346,4.2267,4.2287,4.2267,4.2389,4.257,4.2706,4.2918,4.3142,4.3304,4.3462,4.3651,4.3913,4.4067,4.4214,4.4496,4.4178,4.3361,4.1665,4.149,4.158,4.0626,4.0457,4.0564,4.07,4.0781,4.0867,4.0975,4.047,4.0231,4.0951,4.0393,4.0094,4.0955,4.037,4.0109,4.0985,4.0504,4.0293,4.092,4.0974,4.0945,4.0878,4.0869,4.0906,4.1058,4.0852,4.0765,4.0831,4.0648,4.0511,4.0515,4.0604,4.0667,4.0688,4.0552,4.0466,4.0423,4.0156,3.9966,3.9897,3.9569,3.9402,3.932,3.8401,3.791,3.768,3.6871,3.656,3.656,3.6488,3.6488,3.6446,3.5494,3.5149,3.4854,4.3599,4.3497,4.3429,4.3412,4.3251,4.3141,4.3196,4.303,4.2937,4.2992,4.2992,4.357,4.5128,4.5291,4.5635,4.6502,4.6419,4.5725,4.4335,4.4029,4.4209,4.4913,4.3579,4.2745,4.2629,4.2745,4.2704,4.2503,4.2588,4.2609,4.2609,4.2629,4.2785,4.3086,4.2956,4.2956,4.3049,4.2727,4.2649,4.2745,4.229,4.2187,4.2287,4.2145,4.2249,4.2432,4.257,4.2862,4.3233,4.341,4.3667,4.3913,4.4195,4.431,4.444,4.4693,4.4336,4.3499,4.1697,4.194,4.2335,4.0803,4.0492,4.0635,4.0751,4.0842,4.0917,4.0984,4.0961,4.0947,4.1083,4.0395,4.0094,4.0956,4.0374,4.01,4.0976,4.1,4.0918,4.0902,4.0912,4.0872,4.0818,4.075,4.1029,4.1759,4.101,4.082,4.1496,4.0767,4.0292,4.0223,4.0427,4.0458,4.0332,4.0195,4.0072,3.9953,3.9622,3.9426,3.9352,3.9022,3.8785,3.8655,3.8449,3.8178,3.7861,3.7399,3.705,3.6768,3.6629,3.6295,3.5832,3.543,3.4865,3.4185,4.3549,4.3445,4.3359,4.3233,4.316,4.3249,4.3646,4.3264,4.3082,4.357,4.3625,4.4059,4.5182,4.5291,4.5596,4.631,4.5952,4.5369,4.4669,4.4656,4.4429,4.3766,4.3129,4.2745,4.2609,4.2725,4.2725,4.2568,4.2589,4.265,4.2786,4.2786,4.2571,4.2193,4.2775,4.2647,4.2081,4.2528,4.2667,4.2586,4.2425,4.2384,4.2425,4.2364,4.2468,4.2668,4.2881,4.3105,4.3303,4.3632,4.3862,4.4067,4.4237,4.4031,4.3552,4.2748,4.2802,4.2802,4.1151,4.1407,4.1869,4.0788,4.0626,4.0751,4.0842,4.0902,4.0972,4.1048,4.1059,4.1067,4.1092,4.082,4.07,4.1051,4.0786,4.0666,4.0998,4.098,4.0903,4.084,4.0809,4.072,4.0614,4.0545,4.085,4.1645,4.0809,4.0586,4.138,4.0557,3.9951,3.9769,3.98,3.9865,3.9992,3.9827,3.9664,3.951,3.9192,3.8994,3.891,3.8483,3.8298,3.8265,3.7843,3.7578,3.7431,3.7018,3.6664,3.6329,3.5994,3.5577,3.5098,3.4496,3.3728,3.3018,4.341,4.3358,4.3269,4.3123,4.3067,4.3193,4.3662,4.3244,4.31,4.3643,4.3715,4.4023,4.4838,4.491,4.5126,4.557,4.5196,4.4869,4.4746,4.5041,4.465,4.3297,4.2987,4.2746,4.2609,4.2725,4.2706,4.251,4.2548,4.2647,4.2785,4.2785,4.2496,4.2008,4.2701,4.2572,4.1894,4.2491,4.2645,4.2483,4.2445,4.2463,4.2503,4.2503,4.2645,4.2861,4.3068,4.325,4.3461,4.38,4.402,4.4199,4.4344,4.3946,4.3196,4.1939,4.2148,4.2441,4.0846,4.1083,4.1605,4.0822,4.0726,4.0853,4.0917,4.0964,4.1022,4.1092,4.1091,4.1107,4.1092,4.1082,4.1165,4.1425,4.1192,4.1061,4.1303,4.1063,4.0834,4.0712,4.0892,4.0958,4.0803,4.0963,4.1293,4.1809,4.1144,4.0932,4.1396,4.029,3.9688,3.9763,3.9346,3.9186,3.9333,3.9276,3.9147,3.8939,3.8678,3.8502,3.8376,3.7948,3.7739,3.7685,3.717,3.6919,3.6821,3.6437,3.6101,3.5788,3.5511,3.5124,3.4652,3.382,3.3057,3.2427,4.3233,4.3142,4.3104,4.3104,4.2994,4.2901,4.2901,4.2901,4.2901,4.2919,4.2901,4.3227,4.4023,4.4095,4.4077,4.4095,4.4077,4.4095,4.4095,4.4838,4.4907,4.4048,4.3315,4.2805,4.2609,4.2725,4.2647,4.2308,4.2445,4.2503,4.2503,4.2503,4.2606,4.2783,4.2803,4.2803,4.2783,4.2649,4.2568,4.2483,4.2366,4.2387,4.2503,4.2503,4.2667,4.2901,4.2976,4.3249,4.3631,4.383,4.4131,4.4411,4.4468,4.4172,4.3634,4.2827,4.2785,4.2623,4.0886,4.1195,4.179,4.0919,4.0793,4.0913,4.0972,4.1003,4.1011,4.1085,4.1104,4.1093,4.1092,4.1044,4.129,4.2145,4.1505,4.1183,4.197,4.1344,4.0713,4.0519,4.1209,4.1625,4.1406,4.2129,4.2542,4.2412,4.2214,4.1995,4.1717,4.0063,3.9472,4.0257,3.913,3.8426,3.8291,3.856,3.8514,3.818,3.8068,3.7897,3.7685,3.7339,3.7075,3.688,3.6539,3.6287,3.6071,3.5739,3.5441,3.5215,3.5358,3.5095,3.459,3.3634,3.3038,3.2617,4.3142,4.3123,4.3068,4.2975,4.2938,4.2938,4.303,4.2957,4.3137,4.3794,4.3281,4.3347,4.472,4.3871,4.3419,4.398,4.355,4.3733,4.4874,4.4598,4.452,4.4843,4.4086,4.338,4.2745,4.2783,4.2706,4.251,4.255,4.2568,4.2568,4.2685,4.2398,4.1858,4.2645,4.261,4.199,4.253,4.2764,4.2765,4.2528,4.2568,4.2765,4.2566,4.2667,4.292,4.3142,4.3373,4.3664,4.4055,4.434,4.4471,4.4071,4.3869,4.3545,4.2219,4.2427,4.2726,4.1124,4.1393,4.1921,4.0998,4.0864,4.0979,4.101,4.1037,4.1074,4.1092,4.1093,4.1083,4.1046,4.1,4.1073,4.1275,4.1048,4.0873,4.1022,4.0737,4.045,4.0309,4.0969,4.1377,4.1263,4.1946,4.2581,4.2989,4.2711,4.2195,4.1396,4.0185,3.9585,3.974,3.8567,3.7809,3.7524,3.7894,3.7929,3.7632,3.7358,3.7169,3.7052,3.662,3.6454,3.6433,3.5837,3.5774,3.6131,3.5611,3.5512,3.5646,3.5152,3.4748,3.4322,3.3471,3.2713,3.2156,4.303,4.2993,4.2955,4.2919,4.2901,4.3047,4.3429,4.3427,4.3699,4.4573,4.4129,4.3976,4.4684,4.383,4.3394,4.392,4.4124,4.4525,4.5176,4.5084,4.4919,4.4757,4.4207,4.3536,4.2743,4.2725,4.2667,4.2548,4.2589,4.257,4.249,4.2667,4.2397,4.1868,4.2586,4.257,4.2022,4.2509,4.2746,4.2767,4.2607,4.2688,4.2881,4.2686,4.2822,4.3123,4.3303,4.3546,4.3812,4.4207,4.4496,4.4574,4.3933,4.3828,4.3689,4.2441,4.2615,4.283,4.1234,4.149,4.1995,4.1127,4.124,4.1463,4.1128,4.134,4.152,4.1169,4.1098,4.1072,4.1016,4.0953,4.0907,4.0833,4.075,4.0629,4.0465,4.0663,4.0631,4.011,4.1026,4.1635,4.1441,4.2096,4.2752,4.3252,4.239,4.182,4.1784,4.0488,3.9805,3.9932,3.8769,3.7851,3.7256,3.7639,3.7541,3.6956,3.6876,3.6786,3.6715,3.6503,3.6411,3.6365,3.5799,3.5729,3.5947,3.5463,3.5331,3.5371,3.4881,3.4455,3.3999,3.3282,3.2591,3.1956,4.2901,4.2916,4.295,4.3009,4.3082,4.3372,4.4115,4.4224,4.4494,4.5291,4.5172,4.4807,4.4328,4.4007,4.3854,4.3971,4.5343,4.5866,4.5165,4.5825,4.5615,4.4148,4.3824,4.3344,4.2607,4.2589,4.2548,4.2503,4.2568,4.251,4.2328,4.253,4.2607,4.2544,4.2627,4.2649,4.2629,4.2649,4.2595,4.2541,4.2611,4.2711,4.281,4.2715,4.294,4.3301,4.337,4.3621,4.3955,4.4227,4.4487,4.4581,4.3905,4.3842,4.3858,4.3106,4.3085,4.2937,4.1261,4.1494,4.2029,4.1298,4.1751,4.2174,4.1296,4.1708,4.2051,4.1256,4.1094,4.1075,4.1006,4.0888,4.0759,4.0694,4.0626,4.0484,4.0211,4.0921,4.1054,3.9921,4.1267,4.2153,4.1829,4.2503,4.3029,4.323,4.165,4.1234,4.2544,4.0867,4.0017,4.0397,3.9299,3.8182,3.7092,3.7551,3.7251,3.6216,3.6571,3.6635,3.6518,3.6721,3.6671,3.6395,3.6104,3.5872,3.5665,3.5326,3.4953,3.4623,3.4453,3.4068,3.3539,3.2968,3.2424,3.1875,4.2901,4.3407,4.3823,4.3842,4.4349,4.4877,4.5155,4.5115,4.5327,4.6142,4.5064,4.4581,4.5497,4.453,4.4027,4.4555,4.5015,4.5225,4.5109,4.4653,4.4216,4.3874,4.3178,4.2685,4.2524,4.2506,4.2506,4.2503,4.2568,4.2589,4.255,4.2747,4.2824,4.2824,4.2994,4.2975,4.2843,4.2955,4.263,4.2086,4.2569,4.2538,4.2159,4.1884,4.205,4.2474,4.2544,4.2836,4.3262,4.3592,4.3844,4.3874,4.3093,4.3033,4.3077,4.2297,4.2695,4.3005,4.132,4.156,4.21,4.1293,4.1768,4.2163,4.1306,4.125,4.1301,4.1066,4.1011,4.1002,4.0936,4.0765,4.061,4.0561,4.0968,4.0996,4.0158,4.0695,4.0832,3.984,4.1105,4.1999,4.1815,4.2749,4.3225,4.2865,4.2405,4.2078,4.1909,4.0874,3.9876,3.8981,3.8288,3.7134,3.5511,3.6365,3.6405,3.5622,3.6508,3.6506,3.5753,3.6007,3.6013,3.578,3.5411,3.5388,3.5599,3.5259,3.4729,3.4123,3.3651,3.2883,3.1971,3.1716,3.1254,3.0645,4.337,4.3785,4.4144,4.4523,4.4979,4.5436,4.5816,4.587,4.614,4.6873,4.6155,4.5729,4.6097,4.5308,4.49,4.5247,4.5391,4.5333,4.4982,4.4286,4.3714,4.3336,4.2841,4.2546,4.2546,4.2524,4.2503,4.2503,4.2627,4.2647,4.2566,4.2786,4.2881,4.2861,4.2956,4.2975,4.2901,4.2955,4.2739,4.2395,4.283,4.2832,4.2576,4.2486,4.2629,4.2887,4.3056,4.3427,4.3762,4.3089,4.3592,4.4334,4.3564,4.3465,4.3478,4.2691,4.2628,4.2502,4.1242,4.1314,4.1635,4.1205,4.1435,4.166,4.1191,4.1422,4.1579,4.1089,4.0993,4.0956,4.079,4.0675,4.054,4.0342,4.0949,4.1216,4.0536,4.1154,4.1415,4.0699,4.1373,4.1889,4.181,4.2519,4.277,4.2259,4.2047,4.1709,4.1208,4.0504,3.9692,3.8719,3.8397,3.7448,3.5859,3.674,3.6545,3.5312,3.6338,3.6449,3.5796,3.6137,3.6034,3.5636,3.5307,3.5171,3.5053,3.4341,3.3774,3.3285,3.2734,3.1996,3.1275,3.1244,3.0698,2.9769,4.3949,4.429,4.4628,4.5222,4.5538,4.5884,4.6452,4.6641,4.6897,4.7421,4.7302,4.6989,4.6513,4.6219,4.5967,4.5842,4.5783,4.5437,4.4653,4.4068,4.3468,4.2782,4.2668,4.2629,4.2609,4.2546,4.2524,4.2503,4.2685,4.2686,4.2564,4.2804,4.2862,4.2822,4.286,4.288,4.29,4.2879,4.2808,4.2776,4.3069,4.3141,4.3067,4.326,4.3396,4.3513,4.3735,4.4261,4.4556,4.3,4.3608,4.4869,4.4116,4.3881,4.379,4.3163,4.2479,4.1757,4.1086,4.0993,4.11,4.1109,4.1091,4.1092,4.1093,4.1649,4.1946,4.1149,4.0968,4.0874,4.0636,4.0554,4.0454,4.0129,4.0908,4.1391,4.0917,4.1644,4.2064,4.1619,4.1731,4.1838,4.1905,4.2122,4.2053,4.1583,4.1265,4.0873,4.0383,3.9961,3.938,3.8608,3.858,3.791,3.6441,3.7239,3.6798,3.512,3.5985,3.6238,3.5952,3.6291,3.6133,3.5512,3.5302,3.4909,3.4283,3.326,3.2633,3.23,3.1702,3.1099,3.0592,3.0608,2.9961,2.8976,4.4077,4.5198,4.6194,4.6302,4.69,4.7407,4.7515,4.7533,4.753,4.7493,4.6979,4.6741,4.7129,4.7066,4.6726,4.6028,4.5243,4.4489,4.3808,4.3142,4.2737,4.2629,4.2725,4.2725,4.2609,4.2589,4.2548,4.2503,4.2588,4.2668,4.2745,4.2861,4.29,4.29,4.3068,4.305,4.2919,4.3012,4.2705,4.2176,4.2905,4.2883,4.245,4.2578,4.2788,4.301,4.3092,4.3839,4.4676,4.385,4.3876,4.4106,4.3245,4.2665,4.2283,4.2181,4.1645,4.1039,4.0931,4.0995,4.1106,4.1092,4.1105,4.1093,4.11,4.1144,4.1143,4.0943,4.0828,4.0694,4.053,4.0425,4.027,4.0058,4.123,4.1824,4.0783,4.1349,4.1777,4.1553,4.1724,4.2031,4.2383,4.1923,4.1432,4.0966,4.0761,4.0309,3.9454,3.9437,3.8768,3.7293,3.7575,3.684,3.4934,3.6088,3.6014,3.4681,3.5269,3.5456,3.5233,3.5451,3.5255,3.4728,3.4591,3.4119,3.3422,3.2746,3.2034,3.1284,3.0406,2.9646,2.8955,2.8401,2.8092,2.7971,4.5273,4.6015,4.6628,4.7,4.7482,4.7759,4.7615,4.7717,4.7738,4.7533,4.7247,4.7135,4.7392,4.6985,4.6547,4.6158,4.491,4.4011,4.3732,4.3079,4.2725,4.2725,4.2764,4.2764,4.2707,4.2725,4.2706,4.2665,4.2706,4.2745,4.2803,4.2862,4.2901,4.2901,4.2976,4.2994,4.2919,4.303,4.2905,4.265,4.3176,4.3208,4.2998,4.3288,4.3184,4.2861,4.2585,4.3592,4.4893,4.4113,4.4344,4.4793,4.3966,4.3243,4.2621,4.2137,4.1488,4.0893,4.0906,4.1006,4.1093,4.1103,4.1091,4.1108,4.1101,4.099,4.0867,4.0798,4.0706,4.0574,4.0319,4.0652,4.0893,4.0653,4.191,4.2687,4.202,4.2155,4.2121,4.1679,4.1887,4.1988,4.1835,4.1393,4.0838,4.0178,3.9843,3.9351,3.8618,3.8379,3.7837,3.6871,3.6916,3.6429,3.5232,3.5639,3.5505,3.4785,3.471,3.4714,3.4805,3.4842,3.4253,3.3229,3.3378,3.2954,3.2144,3.1672,3.133,3.1034,3.0397,2.9637,2.8848,2.8357,2.7802,2.7278]}]]